[[{"header":{"parameterUnit":"m.s-1","parameterCategory":1,"la1":30.6,"la2":29.2853,"lo1":-89.7004,"lo2":-87.6739,"dy":0.0162,"dx":0.0183,"nx":112,"ny":82,"refTime":"2026-03-17T00:00:00:Z","depth":0,"parameterNumber":2,"parameterNumberName":"U-component_of_WINDS"},"data":[0.0,0.0,0.0,0.0,0.0,0.0,0.0,0.0,0.0,0.0,0.0,0.0,0.0,0.0,0.0,0.0,0.0,0.0,0.0,0.0,0.0,0.0,0.0,0.0,0.0,0.0,0.0,0.0,0.0,0.0,0.0,0.0,0.0,0.0,0.0,0.0,0.0,0.0,0.0,0.0,0.0,0.0,0.0,0.0,0.0,0.0,0.0,0.0,0.0,0.0,0.0,0.0,0.0,0.0,0.0,0.0,0.0,0.0,0.0,0.0,0.0,0.0,0.0,0.0,0.0,0.0,0.0,0.0,0.0,0.0,0.0,0.0,0.0,0.0,0.0,0.0,0.0,0.0,0.0,0.0,0.0,0.0,0.0,0.0,0.0,0.0,0.0,0.0,0.0,0.0,-0.9536,-1.1434,-1.3622,-1.486,-1.434,-1.3252,-1.1847,-1.0125,0.0,0.0,0.0,0.0,0.0,0.0,0.0,0.0,0.0,0.0,0.0,0.0,0.0,0.0,0.0,0.0,0.0,0.0,0.0,0.0,0.0,0.0,0.0,0.0,0.0,0.0,0.0,0.0,0.0,0.0,0.0,0.0,0.0,0.0,0.0,0.0,0.0,0.0,0.0,0.0,0.0,0.0,0.0,0.0,0.0,0.0,0.0,0.0,0.0,0.0,0.0,0.0,0.0,0.0,0.0,0.0,0.0,0.0,0.0,0.0,0.0,0.0,0.0,0.0,0.0,0.0,0.0,0.0,0.0,0.0,0.0,0.0,0.0,0.0,0.0,0.0,0.0,0.0,0.0,0.0,0.0,0.0,0.0,0.0,0.0,0.0,0.0,0.0,0.0,0.0,0.0,0.0,0.0,0.0,0.0,0.0,0.0,0.0,0.0,0.0,0.0,0.0,0.0,0.0,-0.9659,-1.2318,-1.4342,-1.5218,-1.4374,-1.4057,-1.3309,-1.1962,0.0,0.0,0.0,0.0,0.0,0.0,0.0,0.0,0.0,0.0,0.0,0.0,0.0,0.0,0.0,0.0,0.0,0.0,0.0,0.0,0.0,0.0,0.0,0.0,0.0,0.0,0.0,0.0,0.0,0.0,0.0,0.0,0.0,0.0,0.0,0.0,0.0,0.0,0.0,0.0,0.0,0.0,0.0,0.0,0.0,0.0,0.0,0.0,0.0,0.0,0.0,0.0,0.0,0.0,0.0,0.0,0.0,0.0,0.0,0.0,0.0,0.0,0.0,0.0,0.0,0.0,0.0,0.0,0.0,0.0,0.0,0.0,0.0,0.0,0.0,0.0,0.0,0.0,0.0,0.0,0.0,0.0,0.0,0.0,0.0,0.0,0.0,0.0,0.0,0.0,0.0,0.0,0.0,0.0,0.0,0.0,0.0,0.0,0.0,0.0,0.0,0.0,0.0,-0.9532,-1.1215,-1.2857,-1.4304,-1.4836,-1.3994,-1.3778,-1.3014,-1.1287,-0.9688,0.0,0.0,0.0,0.0,0.0,0.0,0.0,0.0,0.0,0.0,0.0,0.0,0.0,0.0,0.0,0.0,0.0,0.0,0.0,0.0,0.0,0.0,0.0,0.0,0.0,0.0,0.0,0.0,0.0,0.0,0.0,0.0,0.0,0.0,0.0,0.0,0.0,0.0,0.0,0.0,0.0,0.0,0.0,0.0,0.0,0.0,0.0,0.0,0.0,0.0,0.0,0.0,0.0,0.0,0.0,0.0,0.0,0.0,0.0,0.0,0.0,0.0,0.0,0.0,0.0,0.0,0.0,0.0,0.0,0.0,0.0,0.0,0.0,0.0,0.0,0.0,0.0,0.0,0.0,0.0,0.0,0.0,0.0,0.0,0.0,0.0,0.0,0.0,0.0,0.0,0.0,0.0,0.0,0.0,0.0,0.0,0.0,0.0,0.0,0.0,0.0,0.0,-1.1248,-1.2757,-1.3412,-1.4326,-1.4625,-1.3865,-1.3544,-1.2557,-1.0636,-0.9658,0.0,0.0,0.0,0.0,0.0,0.0,0.0,0.0,0.0,0.0,0.0,0.0,0.0,0.0,0.0,0.0,0.0,0.0,0.0,0.0,0.0,0.0,0.0,0.0,0.0,0.0,0.0,0.0,0.0,0.0,0.0,0.0,0.0,0.0,0.0,0.0,0.0,0.0,0.0,0.0,0.0,0.0,0.0,0.0,0.0,0.0,0.0,0.0,0.0,0.0,0.0,0.0,0.0,0.0,0.0,0.0,0.0,0.0,0.0,0.0,0.0,0.0,0.0,0.0,0.0,0.0,0.0,0.0,0.0,0.0,0.0,0.0,0.0,0.0,0.0,0.0,0.0,0.0,0.0,0.0,0.0,0.0,0.0,0.0,0.0,0.0,0.0,0.0,0.0,0.0,0.0,0.0,0.0,0.0,0.0,0.0,0.0,0.0,0.0,0.0,0.0,0.0,-1.1735,-1.3386,-1.4178,-1.486,-1.514,-1.4545,-1.4015,-1.3,-1.1442,-0.9847,0.0,0.0,0.0,0.0,0.0,0.0,0.0,0.0,0.0,0.0,0.0,0.0,0.0,0.0,0.0,0.0,0.0,0.0,0.0,0.0,0.0,0.0,0.0,0.0,0.0,0.0,0.0,0.0,0.0,0.0,0.0,0.0,0.0,0.0,0.0,0.0,0.0,0.0,0.0,0.0,0.0,0.0,0.0,0.0,0.0,0.0,0.0,0.0,0.0,0.0,0.0,0.0,0.0,0.0,0.0,0.0,0.0,0.0,0.0,0.0,0.0,0.0,0.0,0.0,0.0,0.0,0.0,0.0,0.0,0.0,0.0,0.0,0.0,0.0,0.0,0.0,0.0,0.0,0.0,0.0,0.0,0.0,0.0,0.0,0.0,0.0,0.0,0.0,0.0,0.0,0.0,0.0,0.0,0.0,0.0,0.0,0.0,0.0,0.0,0.0,0.0,0.0,-1.214,-1.3634,0.0,-1.468,-1.47,-1.3887,-1.3348,-1.2324,-1.0441,0.0,0.0,0.0,0.0,0.0,0.0,0.0,0.0,0.0,0.0,0.0,0.0,0.0,0.0,0.0,0.0,0.0,0.0,0.0,0.0,0.0,0.0,0.0,0.0,0.0,0.0,0.0,0.0,0.0,0.0,0.0,0.0,0.0,0.0,0.0,0.0,0.0,0.0,0.0,0.0,0.0,0.0,0.0,0.0,0.0,0.0,0.0,0.0,0.0,0.0,0.0,0.0,0.0,0.0,0.0,0.0,0.0,0.0,0.0,0.0,0.0,0.0,0.0,0.0,0.0,0.0,0.0,0.0,0.0,0.0,0.0,0.0,0.0,0.0,0.0,0.0,0.0,0.0,0.0,0.0,0.0,0.0,0.0,0.0,0.0,0.0,0.0,0.0,0.0,0.0,0.0,0.0,0.0,0.0,0.0,0.0,0.0,0.0,0.0,0.0,0.0,0.0,-1.0622,-1.2409,-1.3749,0.0,-1.4751,-1.4467,-1.3407,-1.2794,-1.1607,-0.9518,0.0,0.0,0.0,0.0,0.0,0.0,0.0,0.0,0.0,0.0,0.0,0.0,0.0,0.0,0.0,0.0,0.0,0.0,0.0,0.0,0.0,0.0,0.0,0.0,0.0,0.0,0.0,0.0,0.0,0.0,0.0,0.0,0.0,0.0,0.0,0.0,0.0,0.0,0.0,0.0,0.0,0.0,0.0,0.0,0.0,0.0,0.0,0.0,0.0,0.0,0.0,0.0,0.0,0.0,0.0,0.0,0.0,0.0,0.0,0.0,0.0,0.0,0.0,0.0,0.0,0.0,0.0,0.0,0.0,0.0,0.0,0.0,0.0,0.0,0.0,0.0,0.0,0.0,0.0,0.0,0.0,0.0,0.0,0.0,0.0,0.0,0.0,0.0,0.0,0.0,0.0,0.0,0.0,0.0,0.0,0.0,0.0,0.0,0.0,0.0,0.0,0.0,-1.0846,-1.2524,-1.3827,-1.463,-1.5179,-1.4847,-1.326,-1.2385,-1.1009,0.0,0.0,0.0,0.0,0.0,0.0,0.0,0.0,0.0,0.0,0.0,0.0,0.0,0.0,0.0,0.0,0.0,0.0,0.0,0.0,0.0,0.0,0.0,0.0,0.0,0.0,0.0,0.0,0.0,0.0,0.0,0.0,0.0,0.0,0.0,0.0,0.0,0.0,0.0,0.0,0.0,0.0,0.0,0.0,0.0,0.0,0.0,0.0,0.0,0.0,0.0,0.0,0.0,0.0,0.0,0.0,0.0,0.0,0.0,0.0,0.0,0.0,0.0,0.0,0.0,0.0,0.0,0.0,0.0,0.0,0.0,0.0,0.0,0.0,0.0,0.0,0.0,0.0,0.0,0.0,0.0,0.0,0.0,0.0,0.0,0.0,0.0,0.0,0.0,0.0,0.0,0.0,0.0,0.0,0.0,0.0,0.0,0.0,0.0,0.0,0.0,0.0,0.0,-1.1135,-1.2801,-1.4026,-1.4654,-1.4853,-1.4455,-1.323,-1.2216,-1.0894,-0.9126,0.0,0.0,0.0,0.0,0.0,0.0,0.0,0.0,0.0,0.0,0.0,0.0,0.0,0.0,0.0,0.0,0.0,0.0,0.0,0.0,0.0,0.0,0.0,0.0,0.0,0.0,0.0,0.0,0.0,0.0,0.0,0.0,0.0,0.0,0.0,0.0,0.0,0.0,0.0,0.0,0.0,0.0,0.0,0.0,0.0,0.0,0.0,0.0,0.0,0.0,0.0,0.0,0.0,0.0,0.0,0.0,0.0,0.0,0.0,0.0,0.0,0.0,0.0,0.0,0.0,0.0,0.0,0.0,0.0,0.0,0.0,0.0,0.0,0.0,0.0,0.0,0.0,0.0,0.0,0.0,0.0,0.0,0.0,0.0,0.0,0.0,0.0,0.0,0.0,0.0,0.0,0.0,0.0,0.0,0.0,0.0,0.0,0.0,0.0,0.0,0.0,0.0,-1.1256,-1.2831,-1.3912,-1.4346,-1.4485,-1.4117,-1.3049,-1.2261,-1.1077,-0.9397,0.0,0.0,0.0,0.0,0.0,0.0,0.0,0.0,0.0,0.0,0.0,0.0,0.0,0.0,0.0,0.0,0.0,0.0,0.0,0.0,0.0,0.0,0.0,0.0,0.0,0.0,0.0,0.0,0.0,0.0,0.0,0.0,0.0,0.0,0.0,0.0,0.0,0.0,0.0,0.0,0.0,0.0,0.0,0.0,0.0,0.0,0.0,0.0,0.0,0.0,0.0,0.0,0.0,0.0,0.0,0.0,0.0,0.0,0.0,0.0,0.0,0.0,0.0,0.0,0.0,0.0,0.0,0.0,0.0,0.0,0.0,0.0,0.0,0.0,0.0,0.0,0.0,0.0,0.0,0.0,0.0,0.0,0.0,0.0,0.0,0.0,0.0,0.0,0.0,0.0,0.0,0.0,0.0,0.0,0.0,0.0,0.0,0.0,0.0,0.0,0.0,0.0,-1.1256,-1.2693,-1.3604,-1.3845,-1.4105,-1.3839,-1.2789,-1.2386,-1.1483,-0.9681,0.0,0.0,0.0,0.0,0.0,0.0,0.0,0.0,0.0,0.0,0.0,0.0,0.0,0.0,0.0,0.0,0.0,0.0,0.0,0.0,0.0,0.0,0.0,0.0,0.0,0.0,0.0,0.0,0.0,0.0,0.0,0.0,0.0,0.0,0.0,0.0,0.0,0.0,0.0,0.0,0.0,0.0,0.0,0.0,0.0,0.0,0.0,0.0,0.0,0.0,0.0,0.0,0.0,0.0,0.0,0.0,0.0,0.0,0.0,0.0,-0.8713,0.0,0.0,0.0,0.0,0.0,0.0,0.0,0.0,0.0,0.0,0.0,0.0,0.0,0.0,0.0,0.0,0.0,0.0,0.0,0.0,0.0,0.0,0.0,0.0,0.0,0.0,0.0,0.0,0.0,0.0,0.0,0.0,0.0,0.0,0.0,0.0,0.0,0.0,0.0,0.0,0.0,-1.1286,-1.2693,-1.3538,-1.3592,-1.3833,-1.3732,-1.304,-1.2556,-1.1714,-1.034,-0.9354,0.0,0.0,0.0,0.0,0.0,0.0,0.0,0.0,0.0,0.0,0.0,0.0,0.0,0.0,0.0,0.0,0.0,0.0,0.0,0.0,0.0,0.0,0.0,0.0,0.0,0.0,0.0,0.0,0.0,0.0,0.0,0.0,0.0,0.0,0.0,0.0,0.0,0.0,0.0,0.0,0.0,0.0,0.0,0.0,0.0,0.0,0.0,0.0,0.0,0.0,0.0,0.0,0.0,0.0,0.0,0.0,0.0,0.0,0.0,0.0,-0.9854,0.0,0.0,0.0,0.0,0.0,0.0,0.0,0.0,0.0,0.0,0.0,0.0,0.0,0.0,0.0,0.0,0.0,0.0,0.0,0.0,0.0,0.0,0.0,0.0,0.0,0.0,0.0,0.0,0.0,0.0,0.0,0.0,0.0,0.0,0.0,0.0,0.0,0.0,0.0,0.0,-1.1498,-1.288,-1.3652,-1.3525,-1.3732,-1.3718,-1.3114,-1.2928,-1.2228,-1.095,-1.0008,0.0,0.0,0.0,0.0,0.0,0.0,0.0,0.0,0.0,0.0,0.0,0.0,0.0,0.0,0.0,0.0,0.0,0.0,0.0,0.0,0.0,0.0,0.0,0.0,0.0,0.0,0.0,0.0,0.0,0.0,0.0,0.0,0.0,0.0,0.0,0.0,0.0,0.0,0.0,0.0,0.0,0.0,0.0,0.0,0.0,0.0,0.0,0.0,0.0,0.0,0.0,0.0,0.0,-1.3841,-1.3975,-1.3754,-1.4048,-1.4175,-1.4044,-1.2969,-1.2058,-1.1397,-1.1204,0.0,0.0,0.0,0.0,0.0,0.0,0.0,0.0,0.0,0.0,0.0,0.0,0.0,0.0,0.0,0.0,0.0,0.0,0.0,0.0,0.0,0.0,0.0,0.0,-1.2101,-1.1648,0.0,0.0,0.0,0.0,0.0,0.0,0.0,0.0,0.0,0.0,0.0,0.0,-1.1733,-1.3085,-1.3803,-1.3544,-1.3744,-1.3752,-1.3324,-1.3368,-1.2888,-1.1655,-1.0744,-0.957,0.0,0.0,0.0,0.0,0.0,0.0,0.0,0.0,0.0,0.0,0.0,0.0,0.0,0.0,0.0,0.0,0.0,0.0,0.0,0.0,0.0,0.0,0.0,0.0,0.0,0.0,0.0,0.0,0.0,0.0,0.0,0.0,-1.0238,-0.9945,0.0,0.0,0.0,0.0,0.0,0.0,0.0,0.0,0.0,0.0,0.0,0.0,0.0,-1.2946,-1.4102,-1.4482,-1.4923,-1.5424,-1.5765,-1.5905,-1.5879,-1.6172,-1.6299,-1.6306,-1.6413,0.0,-1.31,-1.2831,0.0,0.0,0.0,0.0,0.0,0.0,0.0,0.0,0.0,0.0,0.0,0.0,0.0,0.0,0.0,0.0,0.0,0.0,0.0,0.0,0.0,0.0,-1.2952,-1.3513,-1.3616,-1.3544,0.0,-1.2632,-1.1775,-1.1003,-1.058,0.0,0.0,0.0,0.0,0.0,0.0,0.0,-1.1775,-1.3085,-1.3803,-1.3544,-1.3909,-1.4197,-1.4046,-1.4038,-1.3644,-1.2629,-1.1722,-1.0605,-0.9157,-0.8466,0.0,0.0,0.0,0.0,0.0,0.0,0.0,0.0,0.0,0.0,0.0,0.0,0.0,0.0,0.0,0.0,0.0,0.0,0.0,0.0,0.0,0.0,0.0,0.0,0.0,0.0,0.0,0.0,0.0,-1.0778,-1.1733,-1.0987,-1.1277,-1.1194,0.0,0.0,0.0,0.0,0.0,0.0,0.0,0.0,0.0,-1.3514,-1.4155,-1.497,-1.5985,-1.6627,-1.7154,-1.7575,-1.7869,-1.7923,-1.7769,-1.7896,-1.7862,-1.7716,-1.7849,-1.7321,-1.6195,-1.514,-1.4215,-1.3315,0.0,0.0,0.0,0.0,-1.2537,-1.293,-1.3207,-1.3226,0.0,-1.2795,0.0,0.0,0.0,0.0,0.0,0.0,0.0,0.0,0.0,0.0,-1.4189,-1.4859,-1.4908,-1.4799,-1.4799,-1.4431,-1.3779,0.0,-1.2085,-1.1481,-1.0399,0.0,0.0,0.0,0.0,-1.1099,-1.2023,-1.3302,-1.4026,-1.3761,-1.4353,-1.4621,-1.4256,-1.4474,-1.4163,-1.3154,-1.2394,-1.1288,-0.9838,-0.9612,-0.9011,0.0,0.0,0.0,0.0,0.0,0.0,0.0,0.0,0.0,0.0,0.0,0.0,0.0,0.0,0.0,0.0,0.0,0.0,0.0,0.0,0.0,0.0,0.0,0.0,0.0,0.0,0.0,0.0,-1.2049,-1.2997,-1.2245,-1.2661,-1.2617,0.0,0.0,0.0,0.0,0.0,0.0,-1.3073,-1.3594,-1.4282,-1.5164,-1.5899,-1.674,-1.7709,-1.8384,-1.8858,-1.9152,-1.9446,-1.9432,-1.9152,-1.9225,-1.9138,-1.8938,-1.8938,-1.8891,-1.8718,-1.7198,-1.6091,-1.5378,-1.4545,-1.4248,-1.4408,-1.4313,-1.454,-1.4989,-1.5354,-1.5432,-1.5308,-1.495,0.0,-1.2881,-1.245,0.0,0.0,0.0,0.0,-1.3447,-1.4449,-1.4859,-1.5185,-1.5837,-1.5843,-1.5698,-1.5698,-1.5755,-1.5348,0.0,-1.3551,-1.2909,-1.2,0.0,0.0,0.0,0.0,-1.1709,-1.2518,-1.3664,-1.4328,-1.4224,-1.4833,-1.5089,-1.4673,-1.4878,-1.4641,-1.3664,-1.2857,-1.1887,-1.076,-1.0447,-0.9813,-0.872,0.0,0.0,0.0,0.0,0.0,0.0,0.0,0.0,0.0,0.0,0.0,0.0,0.0,0.0,0.0,0.0,0.0,0.0,0.0,0.0,0.0,0.0,0.0,0.0,0.0,0.0,0.0,0.0,0.0,-1.397,-1.434,0.0,0.0,0.0,0.0,-1.3821,-1.3948,-1.4349,-1.5197,-1.5531,-1.6099,-1.6987,-1.7328,-1.8056,-1.9245,-1.9299,-1.9466,-1.976,-2.0047,-2.004,-1.9766,-2.004,-2.016,-2.0147,-2.0147,-1.9993,-1.9639,-1.8424,-1.7736,-1.7368,-1.65,-1.6333,-1.6573,-1.6573,-1.6934,-1.7515,-1.811,-1.813,-1.7689,-1.7208,-1.558,-1.3824,-1.3524,-1.3037,0.0,0.0,-1.4383,-1.4799,-1.5602,-1.5819,-1.591,-1.6217,-1.6266,-1.6241,-1.6241,-1.6264,-1.6051,0.0,-1.4787,-1.4422,-1.3856,0.0,-1.2257,-1.2481,-1.2398,-1.2542,-1.335,-1.4183,-1.4783,-1.5053,-1.5494,-1.5844,-1.583,-1.5597,-1.5117,-1.4516,-1.3065,-1.2138,-1.2037,-1.0823,-1.0118,-0.9983,-0.9163,0.0,0.0,0.0,0.0,0.0,0.0,0.0,0.0,0.0,0.0,0.0,0.0,0.0,0.0,0.0,0.0,0.0,0.0,0.0,0.0,0.0,0.0,0.0,0.0,0.0,0.0,0.0,0.0,-1.54,-1.5442,0.0,-1.5352,-1.4504,-1.4429,-1.5418,-1.5845,-1.6359,-1.7061,-1.7555,-1.805,-1.8557,-1.9038,-1.9492,-1.992,-2.0114,-2.0354,-2.0641,-2.0555,-2.0461,-2.0361,-2.0274,-2.0234,-2.0234,-2.0234,-2.0281,-2.0314,-1.9693,-1.9165,-1.8684,-1.8176,-1.8156,-1.8397,-1.8203,-1.839,-1.8764,-1.8978,-1.8985,-1.8831,-1.8196,-1.7173,-1.5948,-1.5462,-1.5102,-1.4799,-1.501,-1.5517,-1.6054,-1.6338,-1.6537,-1.673,-1.7002,-1.7062,-1.696,-1.6622,-1.6587,-1.6447,-1.6014,-1.5828,-1.5562,-1.5082,-1.4527,-1.4115,-1.404,-1.3964,-1.4044,-1.4521,-1.5162,-1.557,-1.5663,-1.6119,-1.6296,-1.5908,-1.5708,-1.5332,-1.4569,-1.3704,-1.2982,-1.2705,-1.2228,-1.1661,-1.1073,-1.0345,-0.9531,0.0,0.0,0.0,0.0,0.0,0.0,0.0,0.0,0.0,0.0,0.0,0.0,0.0,0.0,0.0,0.0,0.0,0.0,0.0,0.0,0.0,0.0,0.0,0.0,0.0,0.0,-1.6596,-1.6847,-1.6693,-1.6693,-1.667,-1.5974,-1.5919,-1.6807,-1.7134,-1.7562,-1.8163,-1.8657,-1.9105,-1.9499,-2.008,-2.0481,-2.0675,-2.0969,-2.1216,-2.1403,-2.1209,-2.1116,-2.1116,-2.0915,-2.0822,-2.0822,-2.0822,-2.0935,-2.1102,-2.0909,-2.0595,-2.0194,-1.9599,-1.9486,-1.9646,-1.9553,-1.9639,-1.9806,-1.9806,-1.9746,-1.9606,-1.8958,-1.8304,-1.7674,-1.7363,-1.7116,-1.6876,-1.679,-1.7092,-1.7443,-1.7334,-1.728,-1.7389,-1.7443,-1.7485,-1.7364,-1.6923,-1.68,-1.668,-1.6427,-1.638,-1.6349,-1.6175,-1.5829,-1.5505,-1.5512,-1.5255,-1.5134,-1.5415,-1.5863,-1.619,-1.6394,-1.6678,-1.6839,-1.6539,-1.6162,-1.5631,-1.4955,-1.4017,-1.338,-1.3101,-1.2798,-1.2277,-1.1735,-1.0843,-0.9967,-0.8961,0.0,0.0,0.0,0.0,0.0,0.0,0.0,0.0,0.0,0.0,0.0,0.0,0.0,0.0,0.0,0.0,0.0,0.0,0.0,0.0,0.0,0.0,0.0,-1.4926,-1.6715,-1.8057,-1.8324,-1.811,-1.7908,-1.803,-1.7313,-1.7128,-1.8023,-1.7802,-1.7889,-1.849,-1.8784,-1.9199,-1.9766,-2.0368,-2.0949,-2.1523,-2.1824,-2.1971,-2.1971,-2.1971,-2.1971,-2.1971,-2.1984,-2.1984,-2.1984,-2.1984,-2.1984,-2.1984,-2.1984,-2.1984,-2.1871,-2.0735,-2.0287,-2.0321,-2.0608,-2.0715,-2.0715,-2.0708,-2.0514,-2.0106,-1.9688,-1.9273,-1.8972,-1.8903,-1.8986,-1.8905,-1.9165,-1.9038,-1.8828,-1.8476,-1.8164,-1.7966,-1.7614,-1.7503,-1.7436,-1.7165,-1.6912,-1.6751,-1.6739,-1.6739,-1.6761,-1.7132,-1.6749,-1.6465,-1.6795,-1.6212,0.0,-1.6023,-1.6279,-1.6541,-1.7147,-1.7173,-1.7272,-1.7575,-1.6774,-1.6019,-1.5431,-1.4124,-1.3277,-1.3233,-1.2494,-1.1965,-1.1884,-1.0748,-0.9741,-0.8931,0.0,0.0,0.0,0.0,0.0,0.0,0.0,0.0,0.0,0.0,0.0,0.0,0.0,0.0,0.0,0.0,0.0,0.0,0.0,0.0,0.0,0.0,-1.6335,-1.6546,-1.7815,-1.8951,-1.931,-1.8471,-1.8198,-1.8615,-1.8217,-1.8277,-1.8951,-1.8724,-1.8724,-1.9105,-1.9199,-1.9319,-1.9479,-2.0261,-2.0755,-2.0915,-2.1423,-2.167,-2.167,-2.167,-2.167,-2.1677,-2.1891,-2.1984,-2.1984,-2.1984,-2.1984,-2.1984,-2.1984,-2.1984,-2.1951,-2.163,-2.1503,-2.1516,-2.1597,-2.1623,-2.1597,-2.1383,-2.1263,-2.1142,-2.0717,-2.0301,-1.9839,-1.9801,-1.955,-1.9114,-1.8987,-1.8752,-1.8536,-1.8418,-1.8133,-1.8016,-1.8089,-1.8172,-1.7943,-1.7473,-1.7225,-1.6928,-1.6739,-1.6703,-1.6833,-1.7105,-1.7373,-1.7559,-1.7675,-1.7475,0.0,-1.7463,-1.7345,-1.7285,-1.747,-1.7483,-1.7397,-1.7288,-1.6653,-1.6019,-1.5431,-1.4409,-1.3751,-1.3534,-1.3081,-1.2643,-1.2191,-1.1312,-1.0483,0.0,0.0,0.0,0.0,0.0,0.0,0.0,0.0,0.0,0.0,0.0,0.0,0.0,0.0,0.0,0.0,0.0,0.0,0.0,0.0,0.0,0.0,-1.568,-1.7493,-1.7978,-1.9186,-2.0066,-2.0026,-1.936,-1.9038,-1.9265,-1.9032,-1.8998,-1.9339,-1.9205,-1.9239,-1.9533,-1.9546,-1.9659,-1.9907,-2.0528,-2.0975,-2.1223,-2.1683,-2.1977,-2.2098,-2.1977,-2.1977,-2.2104,-2.2278,-2.2352,0.0,-2.2352,-2.2352,-2.2352,-2.2352,-2.2352,0.0,0.0,0.0,0.0,0.0,-2.1984,-2.1964,-2.179,-2.1657,-2.1523,-2.1349,-2.0969,-2.0592,-2.0466,-2.0099,-1.9562,-1.9402,-1.8907,-1.8622,-1.8616,-1.8415,-1.8374,-1.8539,-1.8701,-1.8654,-1.822,-1.7824,-1.7507,-1.7353,-1.7222,0.0,-1.742,-1.7764,-1.8097,-1.8322,-1.8307,-1.823,-1.823,-1.8076,-1.8009,-1.813,-1.8036,-1.7896,-1.7729,-1.7168,0.0,0.0,0.0,-1.4208,-1.3585,-1.324,0.0,0.0,0.0,0.0,0.0,0.0,0.0,0.0,-0.979,-1.0206,0.0,0.0,0.0,0.0,0.0,0.0,0.0,0.0,0.0,0.0,0.0,0.0,0.0,0.0,0.0,0.0,-1.6552,-1.8294,-1.9213,-2.0435,-2.1218,-2.0694,-2.039,-2.0134,-1.9873,-1.9559,-1.9399,-1.9459,-1.9406,-1.9506,-1.9833,0.0,0.0,0.0,0.0,-2.1423,-2.1984,-2.2271,-2.2552,-2.2812,-2.2545,-2.2559,-2.2812,-2.2846,-2.2859,-2.2859,-2.2859,-2.2859,-2.2859,-2.2859,-2.2859,-2.2812,-2.2291,-2.2084,-2.2084,-2.2084,-2.2084,-2.2078,-2.2044,0.0,0.0,-2.161,-2.1423,-2.1156,-2.0862,-2.0548,-2.0221,-1.9927,-1.9399,-1.8884,-1.8964,-1.8927,-1.9011,-1.8979,-1.9274,-1.9273,-1.8994,-1.864,-1.8276,-1.8276,-1.7932,-1.7811,-1.8059,-1.8072,-1.8281,-1.8858,-1.8724,-1.8544,-1.8544,-1.851,-1.8591,-1.8844,0.0,0.0,-1.8444,-1.7916,-1.7221,-1.6373,-1.5438,-1.4563,-1.3774,-1.3166,-1.3048,-1.3398,-1.2829,-1.2336,-1.2023,-1.2085,-1.2215,-1.2512,-1.1473,-1.1546,0.0,0.0,0.0,0.0,0.0,0.0,0.0,0.0,0.0,0.0,0.0,0.0,0.0,0.0,0.0,-1.5782,-1.7308,-1.8624,-1.9259,-2.054,-2.1456,-2.1153,-2.0523,-2.0214,-2.0154,-1.9673,-1.9559,-2.0034,-1.9633,-1.9593,-2.012,-2.0147,-2.0314,-2.0668,-2.1189,-2.1637,-2.1984,-2.2271,-2.2445,-2.2505,0.0,0.0,-2.2512,-2.2752,-2.2859,-2.2859,-2.2859,-2.2859,-2.2859,-2.2859,-2.2859,-2.2853,-2.2739,-2.2692,-2.2692,-2.2692,-2.2692,-2.2659,-2.2418,-2.2298,-2.2211,-2.1977,-2.1864,-2.1764,-2.147,-2.1009,0.0,-2.0227,-1.9559,-1.9045,-1.9455,-1.9476,-1.9376,-1.9769,-1.9987,-1.9865,-1.9566,-1.9248,-1.9013,-1.9013,-1.879,-1.873,-1.9011,-1.8836,-1.8796,-1.8912,-1.8911,-1.8838,-1.8838,-1.8637,-1.851,-1.8571,-1.8524,-1.8397,-1.8156,-1.7796,-1.7308,-1.666,-1.5351,-1.4529,-1.4355,-1.3616,-1.3411,-1.3985,-1.3643,-1.342,-1.3328,-1.3597,-1.3884,-1.4173,-1.3136,-1.3109,0.0,0.0,0.0,0.0,0.0,0.0,0.0,0.0,0.0,0.0,0.0,-1.5133,0.0,0.0,-1.5756,-1.6593,-1.7687,-1.868,-1.9282,-2.0404,-2.1101,-2.1195,-2.0821,-2.0615,-2.0468,-2.0194,-2.014,-2.0434,-2.0321,-2.0428,-2.0869,-2.0895,-2.1029,-2.1323,-2.1617,-2.1911,-2.2198,-2.2492,-2.2719,-2.2873,-2.2873,-2.2873,-2.2879,-2.3026,-2.3006,-2.2873,-2.3026,-2.3093,-2.3093,-2.3093,-2.3093,-2.308,-2.2926,-2.2859,-2.2859,-2.2859,-2.2859,-2.2839,-2.2692,-2.2545,-2.2392,-2.2251,-2.2104,-2.1931,-2.1637,-2.1243,-2.0828,-2.0541,-1.9927,-1.9466,-1.9907,-1.99,-1.9886,-2.0328,-2.0526,-2.0569,-2.0413,-2.0159,-1.9957,-1.9957,-1.9728,-1.9607,-1.9575,-1.943,-1.9285,-1.9146,-1.9123,-1.9145,-1.9145,-1.9018,-1.8931,-1.8931,-1.8931,-1.8811,-1.851,-1.807,-1.7457,-1.6764,-1.587,-1.5239,-1.4917,-1.4579,-1.4464,-1.4624,-1.4453,-1.4408,-1.4401,-1.4569,-1.4973,-1.5487,-1.4896,-1.4853,0.0,0.0,0.0,0.0,0.0,0.0,0.0,0.0,-1.5355,-1.5604,-1.674,-1.7543,-1.7041,-1.7208,-1.7333,-1.7302,-1.7993,-1.8784,-1.9372,-2.0207,-2.0859,-2.1039,-2.1054,-2.1022,-2.0782,-2.0762,-2.0782,-2.0842,-2.1062,-2.1349,-2.1704,-2.1724,-2.1857,-2.2144,-2.2158,-2.2298,-2.2592,-2.2832,-2.3106,-2.3414,-2.3414,-2.3414,-2.3414,-2.3354,-2.322,-2.3053,-2.3307,-2.3414,-2.3414,-2.3414,-2.338,-2.33,-2.3053,-2.2919,-2.2859,-2.2859,-2.2859,-2.2859,-2.2859,-2.2706,-2.2505,-2.2505,-2.2345,-2.2104,-2.181,-2.151,-2.1223,-2.0929,-2.0468,-2.012,-2.0414,-2.0488,-2.0548,-2.0788,-2.1022,-2.1182,-2.1122,-2.0922,-2.0762,-2.0762,-2.0568,-2.0307,-2.002,-1.992,-1.9766,-1.9419,-1.9366,-1.9366,-1.9366,-1.9366,-1.9366,-1.9366,-1.9366,-1.9245,-1.8951,-1.8326,-1.7688,-1.6945,-1.6524,-1.6229,-1.5713,-1.556,-1.5514,-1.5422,-1.5382,-1.5332,-1.5366,-1.5366,-1.5741,-1.6362,-1.6429,-1.6314,-1.435,-1.4665,0.0,-1.5629,-1.6095,-1.6579,0.0,0.0,-1.771,-1.8699,-1.9388,-1.9687,-1.9264,-1.8965,-1.8632,-1.859,-1.8687,-1.9078,-1.9666,-2.0508,-2.0969,-2.0826,-2.0929,-2.1096,-2.1062,-2.1062,-2.1169,-2.1436,-2.1483,-2.1744,-2.2291,-2.2318,-2.2458,-2.2759,-2.2766,-2.2913,-2.322,-2.326,-2.3427,-2.3721,-2.3721,-2.3721,-2.3714,-2.3447,-2.3454,-2.3674,-2.3708,-2.3721,-2.3721,-2.3721,-2.3567,-2.3327,-2.3287,-2.3106,-2.2859,-2.2859,-2.2859,-2.2859,-2.2859,-2.2839,-2.2812,-2.2812,-2.2786,-2.2706,-2.2412,-2.2118,-2.1824,-2.1537,-2.1216,-2.1029,-2.1329,-2.1403,-2.1416,-2.145,-2.1476,-2.143,-2.1162,-2.1082,-2.1062,-2.1062,-2.1029,-2.0922,-2.0628,-2.0361,-2.0,-1.9452,-1.9366,-1.9366,-1.9366,-1.9366,-1.9366,-1.9366,-1.9366,-1.9245,-1.8951,-1.8387,-1.7844,-1.7525,-1.7,-1.6708,-1.6873,-1.6253,-1.6105,-1.6606,-1.6339,-1.6175,-1.6131,-1.6399,-1.6567,-1.6658,-1.6893,-1.6863,-1.5977,0.0,0.0,0.0,-1.8453,-1.9116,-1.9466,-1.9946,-2.0557,-2.122,-2.2034,-2.2443,-2.1462,-2.0824,-2.0197,0.0,-1.9375,-1.9386,-1.9967,-2.0661,-2.1002,-2.0715,-2.0481,-2.0481,-2.0822,-2.1009,-2.1303,-2.177,-2.1964,-2.2238,-2.2652,-2.2679,-2.2732,-2.2859,-2.2859,-2.3013,-2.3327,-2.3494,-2.3734,-2.4022,-2.4195,-2.4182,-2.4022,-2.3895,-2.3908,-2.4022,-2.4022,-2.4115,-2.4262,-2.4095,-2.3948,-2.3821,-2.3647,-2.3507,-2.3347,-2.2993,-2.2859,-2.2859,-2.2859,-2.2859,-2.2859,-2.2859,-2.2859,-2.2839,-2.2712,-2.2592,-2.2472,-2.2352,-2.2104,-2.1897,-2.2024,-2.1931,-2.1804,-2.1804,-2.1677,-2.1516,-2.1396,-2.1229,-2.1109,-2.1109,-2.1109,-2.1015,-2.0728,-2.0575,-2.0294,-1.9706,-1.9472,-1.9366,-1.9366,-1.9366,-1.9366,-1.9366,-1.9366,-1.9312,-1.8948,-1.8702,-1.8285,-1.7665,-1.7544,-1.741,-1.7354,-1.7225,-1.7154,-1.7283,-1.7181,-1.6992,-1.6814,-1.6934,-1.7008,-1.7159,-1.7267,-1.7261,-1.7158,0.0,0.0,-1.9502,-2.0469,-2.125,-2.1632,-2.2158,-2.2677,-2.3054,-2.3746,-2.3996,-2.2811,-2.21,0.0,-2.0609,-1.9997,-1.9804,-2.0395,-2.0788,-2.0969,-2.0595,-2.018,-2.0054,-2.0401,-2.0695,-2.1149,-2.1817,-2.2211,-2.2545,-2.2846,-2.2859,-2.2859,-2.2859,-2.2946,-2.314,-2.3447,-2.3741,-2.4035,-2.4329,-2.4536,-2.4523,-2.4322,-2.4322,-2.4282,-2.4209,-2.4289,-2.4442,-2.4616,-2.4409,-2.4275,-2.4182,-2.3975,-2.3841,-2.3714,-2.3273,-2.3113,-2.31,-2.302,-2.2993,-2.2979,-2.2893,-2.2859,-2.2859,-2.2859,-2.2859,-2.2859,-2.2859,-2.2706,-2.2539,-2.2539,-2.2385,-2.2205,-2.2124,-2.1944,-2.175,-2.159,-2.1383,-2.1209,-2.1122,-2.1109,-2.1042,-2.0828,-2.0728,-2.0501,-1.9993,-1.9548,-1.9336,-1.9379,-1.9366,-1.9366,-1.9366,-1.9366,-1.9127,-1.8881,-1.8765,-1.8332,-1.779,-1.7778,-1.7805,-1.783,-1.7853,-1.7808,-1.7815,-1.7703,-1.7466,-1.7201,-1.7159,-1.7334,-1.7587,-1.7587,-1.763,0.0,0.0,-1.9541,-2.085,-2.1826,-2.2676,-2.3525,-2.3551,-2.353,-2.4108,-2.4019,-2.3684,-2.3059,-2.2314,-2.1746,-2.146,-2.0773,-2.0465,-2.1067,-2.1173,-2.0895,-2.0314,-2.0227,-2.0114,0.0,-2.0087,-2.0621,-2.1503,-2.2091,-2.2545,-2.2846,-2.2859,-2.2859,-2.2859,-2.3153,-2.3454,-2.3754,-2.4042,-2.4335,-2.4623,-2.4636,-2.4636,-2.4623,-2.4623,-2.4469,-2.4215,-2.4496,-2.4629,-2.4636,-2.4623,-2.4456,-2.4202,-2.4195,-2.4022,-2.3768,-2.3748,-2.3741,-2.3701,-2.3414,-2.3313,-2.326,-2.2959,-2.2859,-2.2859,-2.2859,-2.2859,-2.2859,-2.2859,-2.2853,-2.2846,-2.2846,-2.2846,-2.2766,-2.2472,-2.2398,-2.2238,-2.1677,-2.1543,-2.1456,-2.1162,-2.1109,-2.1109,-2.1096,-2.0862,-2.0575,-2.0267,-1.9714,-1.9312,-1.9399,-1.9366,-1.9366,-1.9366,-1.912,-1.8881,-1.8874,-1.8311,-1.7966,-1.796,-1.7713,-1.7818,-1.8396,-1.7796,-1.7767,-1.8317,-1.7748,-1.7526,-1.7532,-1.7456,-1.7605,-1.7859,-1.7859,-1.801,0.0,0.0,-2.0889,-2.2178,-2.3359,-2.4287,-2.457,-2.4769,-2.487,-2.4773,-2.4418,-2.3966,-2.3285,-2.2843,-2.2493,-2.2025,-2.1639,-2.1406,-2.1463,-2.1291,-2.0962,-2.0575,-2.018,0.0,0.0,0.0,0.0,-2.1203,-2.1797,-2.2258,-2.2552,-2.2752,-2.2859,-2.2859,-2.3166,-2.3474,-2.3768,-2.4062,-2.4349,-2.4636,-2.4636,-2.4636,-2.4636,-2.4636,-2.4583,-2.4496,-2.4596,-2.4636,-2.4636,-2.4636,-2.4576,-2.4489,-2.4489,-2.4429,-2.4342,-2.4342,-2.4342,-2.4275,-2.3788,-2.3494,-2.3307,-2.3207,-2.3033,-2.2859,-2.2859,-2.2859,-2.2859,-2.2859,-2.2859,-2.2859,-2.2859,-2.2859,-2.2839,-2.2739,-2.2565,-2.2365,-2.2171,-2.1824,-2.1523,-2.1423,-2.1243,-2.1109,-2.1109,-2.1029,-2.0737,-2.0328,-1.9574,-1.8985,-1.8784,-1.8777,-1.8777,-1.8777,-1.8655,-1.8538,-1.8311,-1.8083,-1.7966,-1.7726,-1.7602,-1.7719,-1.8083,-1.7996,-1.7946,-1.8172,-1.794,-1.7701,-1.7462,-1.7554,-1.7618,-1.7871,-1.7871,-1.8022,0.0,-2.1045,-2.2187,-2.331,-2.4336,-2.5117,-2.5273,-2.5527,-2.545,-2.4649,-2.4032,-2.3486,-2.2946,-2.2528,-2.2257,-2.2325,-2.2131,-2.1872,-2.1824,-2.1416,-2.1002,-2.0715,-2.0347,0.0,0.0,0.0,0.0,-2.0762,-2.1343,-2.1844,-2.2245,-2.2645,-2.2859,-2.2859,-2.3267,-2.3581,-2.3768,-2.4162,-2.4449,-2.4636,-2.4636,-2.4636,-2.4636,-2.4636,-2.4636,-2.4636,-2.4636,-2.4636,-2.4636,-2.4636,-2.4636,-2.4636,-2.4636,-2.4636,-2.4636,-2.4636,-2.4636,-2.4569,-2.4095,-2.3801,-2.3607,-2.3394,-2.3193,-2.3006,-2.2893,-2.2859,-2.2859,-2.2859,-2.2859,-2.2859,-2.2859,-2.2859,-2.2859,-2.2859,-2.2719,-2.2545,-2.2438,-2.2124,-2.183,-2.1724,-2.155,-2.139,-2.1289,-2.0969,-2.0519,-1.9962,-1.9248,-1.8826,-1.8714,-1.8714,-1.8714,-1.8714,-1.8595,-1.8483,-1.8251,-1.8138,-1.8019,-1.7774,-1.7774,-1.7894,-1.8251,-1.8138,-1.8138,-1.8257,-1.8138,-1.8019,-1.7774,-1.7774,-1.7907,-1.8161,-1.8161,-1.8312,-2.1543,-2.2627,-2.3477,-2.4307,-2.4834,-2.5244,-2.5644,-2.5723,-2.5257,-2.3918,-2.3033,-2.2274,0.0,0.0,-2.1379,-2.2427,-2.2232,-2.1994,-2.2141,-2.1534,-2.1009,0.0,0.0,0.0,0.0,0.0,0.0,-2.0261,0.0,-2.1363,-2.1951,-2.2545,-2.2859,-2.2859,-2.3454,-2.3774,-2.3774,-2.4349,-2.4636,-2.4636,-2.4636,-2.4636,-2.4636,-2.4636,-2.4636,-2.4636,-2.4636,-2.4636,-2.4636,-2.4636,-2.4636,-2.4636,-2.4636,-2.4636,-2.4636,-2.4636,-2.4636,-2.4596,-2.4322,-2.4215,-2.4115,-2.3554,-2.336,-2.3293,-2.2999,-2.2913,-2.2906,-2.2893,-2.2886,-2.2886,-2.2866,-2.2859,-2.2859,-2.2859,-2.2859,-2.2786,-2.2505,-2.2432,-2.2338,-2.2064,-2.1997,-2.1891,-2.1603,-2.0843,-1.9975,-1.9325,-1.8976,-1.8797,-1.9126,-1.912,-1.912,-1.912,-1.8882,-1.8643,-1.8643,-1.841,-1.8294,-1.8294,-1.8294,-1.841,-1.8643,-1.841,-1.841,-1.8643,-1.841,-1.8294,-1.8294,-1.8294,-1.8426,-1.8686,-1.8686,-1.8825,-2.3223,-2.4414,-2.5205,-2.5752,-2.5967,-2.5996,-2.5791,-2.5478,-2.4896,-2.349,-2.2159,-2.1099,0.0,0.0,0.0,-2.1852,-2.2533,0.0,-2.2228,-2.1527,0.0,0.0,0.0,-2.1209,-2.0915,-2.0815,0.0,0.0,-2.1022,-2.1363,-2.1951,-2.2545,-2.2859,-2.2859,-2.3454,-2.3774,-2.3774,-2.4349,-2.4636,-2.4636,-2.4636,-2.4636,-2.4636,-2.4636,-2.4636,-2.4636,-2.4636,-2.4636,-2.4636,-2.4636,-2.4636,-2.4636,-2.4636,-2.4636,-2.4636,-2.4636,-2.4636,-2.4623,-2.4556,-2.4382,-2.4175,-2.4028,-2.3834,-2.3641,-2.3561,-2.3541,-2.3494,-2.3273,-2.3207,-2.3153,-2.2926,-2.2859,-2.2859,-2.2859,-2.2859,-2.2839,-2.2766,-2.2572,-2.2398,-2.2318,-2.1866,-2.1496,-2.1214,-2.0528,-1.9983,-1.9503,-1.9163,-1.8854,-1.8582,-1.8533,-1.8533,-1.8533,-1.841,-1.841,-1.841,-1.8294,-1.8294,-1.8294,-1.8294,-1.8294,-1.841,-1.8294,-1.8294,-1.841,-1.8294,-1.8294,-1.8294,-1.8294,-1.8426,-1.8686,-1.8686,-1.8825,-2.4228,-2.5352,-2.6035,-2.6084,-2.625,-2.6172,-2.5342,-2.4824,-2.4069,-2.2389,-2.0876,0.0,0.0,0.0,0.0,0.0,0.0,0.0,-2.1788,-2.1084,-2.0775,0.0,-2.1176,0.0,-2.1309,-2.1303,-2.1356,0.0,-2.1376,-2.1503,-2.1964,-2.2545,-2.2859,-2.2859,-2.3454,-2.3895,-2.4148,-2.4476,-2.4636,-2.4636,-2.4636,-2.4636,-2.4636,-2.4636,-2.4636,-2.4636,0.0,-2.4636,-2.4636,-2.4636,-2.4636,-2.4636,-2.4636,-2.4636,-2.4636,-2.4636,-2.4636,-2.4636,-2.4636,-2.4529,-2.4376,-2.4242,-2.4095,-2.3935,-2.3808,-2.3625,-2.3592,-2.3567,-2.3287,-2.3007,-2.3113,-2.2966,-2.2859,-2.2859,-2.2859,-2.2859,-2.2859,-2.2732,-2.2612,-2.2612,-2.211,-2.146,-2.1172,-2.0554,-1.9949,-1.9653,-1.9273,-1.8969,-1.8674,-1.8638,-1.8638,-1.8638,-1.8638,-1.8638,-1.8638,-1.8638,-1.8638,-1.8638,-1.8638,-1.8638,-1.8638,-1.8638,-1.8638,-1.8638,-1.8638,-1.8638,-1.8638,-1.8638,-1.8716,-1.8855,-1.8855,-1.8933,-2.4912,-2.5801,-2.6299,-2.5918,-2.6064,-2.5957,-2.4629,-2.3877,-2.2892,-2.0824,0.0,0.0,-1.8902,0.0,-1.9533,-2.0798,0.0,-2.151,-2.1156,-2.051,-2.0267,-2.0528,-2.0882,-2.1229,-2.1523,-2.1657,-2.183,-2.2084,-2.1871,-2.1817,-2.2031,-2.2565,-2.2899,-2.2979,-2.3494,-2.4048,-2.4629,-2.4636,-2.4636,-2.4636,-2.4636,-2.4636,-2.4636,-2.4636,-2.4636,-2.4636,-2.4636,0.0,-2.4636,-2.4636,-2.4636,-2.4636,-2.4636,-2.4636,-2.4636,-2.4636,-2.4636,-2.4636,-2.4636,-2.4636,-2.4596,-2.4342,-2.4262,-2.4215,-2.3961,-2.3595,-2.3301,-2.3549,-2.3215,-2.2858,-2.3207,-2.3126,-2.2913,-2.2873,-2.2859,-2.2859,-2.2859,-2.2859,-2.2859,-2.2859,-2.2387,-2.1797,-2.1494,-2.0693,-1.9955,-1.9607,-1.9271,-1.9114,-1.9078,-1.9078,-1.9078,-1.9078,-1.9078,-1.9078,-1.9078,-1.9078,-1.9078,-1.9078,-1.9078,-1.9078,-1.9078,-1.9078,-1.9078,-1.9078,-1.9078,-1.9078,-1.9078,-1.9078,-1.9078,-1.9078,-1.9078,-1.9078,-2.5898,-2.6269,-2.6367,-2.6299,-2.6064,-2.5508,-2.4199,-2.2754,0.0,0.0,0.0,-1.642,-1.718,-1.7871,0.0,-2.0013,0.0,0.0,0.0,0.0,-1.9893,0.0,0.0,0.0,0.0,0.0,0.0,0.0,0.0,-2.2552,-2.2352,-2.2672,-2.3093,-2.3594,-2.3714,-2.4048,-2.4629,-2.4636,-2.4636,-2.4636,-2.4636,-2.4636,-2.4636,-2.4636,-2.4636,-2.4636,-2.4636,0.0,-2.4636,-2.4636,-2.4636,-2.4636,-2.4636,-2.4636,-2.4636,-2.4636,-2.4636,-2.4636,-2.4636,-2.4636,-2.4629,-2.4576,-2.4563,-2.4402,-2.4055,-2.3895,-2.3695,-2.3317,-2.322,-2.336,-2.2884,-2.3007,-2.318,-2.2926,-2.2859,-2.2859,-2.2859,-2.2859,-2.2859,-2.2859,-2.2278,-2.1757,-2.1391,-2.0736,-2.0118,-1.9537,-1.9428,-1.932,-1.9102,-1.9078,-1.9078,-1.9078,-1.9078,-1.9078,-1.9078,-1.9078,-1.9078,-1.9078,-1.9078,-1.9078,-1.9078,-1.9078,-1.9078,-1.9078,-1.9078,-1.9078,-1.9078,-1.9078,-1.9078,-1.9078,-1.9078,-1.9078,-2.5869,-2.6211,-2.6279,-2.582,-2.545,-2.4685,-2.2814,0.0,0.0,0.0,0.0,-1.5149,-1.598,0.0,0.0,0.0,0.0,0.0,0.0,0.0,0.0,0.0,0.0,0.0,0.0,0.0,0.0,0.0,0.0,-2.2799,-2.2659,-2.2786,-2.314,-2.3754,-2.3774,-2.4048,-2.4629,-2.4636,-2.4636,-2.4636,-2.4636,-2.4636,-2.4636,-2.4636,-2.4636,-2.4636,-2.4636,0.0,-2.4636,-2.4636,-2.4636,-2.4636,-2.4636,-2.4636,-2.4636,-2.4636,-2.4636,-2.4636,-2.4636,-2.4636,-2.4636,-2.4341,-2.4334,-2.4193,-2.4038,-2.3748,-2.3419,-2.3286,-2.3292,-2.3265,-2.3138,-2.3271,-2.3287,-2.314,-2.2979,-2.2859,-2.2585,-2.2585,-2.2585,-2.231,-2.1904,-2.1446,-2.132,-2.0773,-2.0189,-1.9929,-1.9645,-1.9422,-1.9295,-1.9163,-1.9078,-1.9078,-1.9078,-1.9078,-1.9078,-1.9078,-1.9078,-1.9078,-1.9078,-1.9078,-1.9078,-1.9078,-1.9078,-1.9078,-1.9078,-1.9078,-1.9078,-1.9078,-1.9078,-1.9078,-1.9078,-1.9078,-2.5615,-2.5986,-2.6035,-2.5156,-2.4539,-2.3606,-2.1063,-1.9295,0.0,0.0,0.0,0.0,-1.478,0.0,0.0,0.0,0.0,0.0,0.0,0.0,0.0,0.0,0.0,0.0,0.0,0.0,0.0,0.0,0.0,0.0,-2.2859,-2.2859,-2.3113,-2.3661,-2.3734,-2.4022,-2.4536,-2.4603,-2.4636,-2.4636,-2.4636,-2.4636,-2.4636,-2.4636,-2.4636,-2.4636,-2.4636,0.0,0.0,-2.4636,-2.4636,-2.4636,-2.4636,-2.4636,-2.4636,-2.4636,-2.4636,-2.4636,-2.4636,-2.4636,-2.4488,-2.4193,-2.4038,-2.4038,-2.3742,-2.3302,-2.3005,-2.3147,-2.3138,-2.3108,-2.3336,-2.3425,-2.35,-2.344,-2.318,-2.2815,-2.2539,-2.2349,-2.2173,-2.1904,-2.149,-2.1214,-2.1214,-2.0772,-2.0346,-2.0285,-1.9911,-1.9597,-1.9483,-1.9289,-1.9138,-1.9084,-1.9078,-1.9078,-1.9078,-1.9078,-1.9078,-1.9078,-1.9078,-1.9078,-1.9078,-1.9078,-1.9078,-1.9078,-1.9078,-1.9078,-1.9078,-1.9078,-1.9102,-1.9163,-1.9163,-1.9193,-2.5615,-2.5762,-2.5489,-2.4426,-2.3345,-2.1916,-1.9516,0.0,0.0,0.0,-1.309,-1.261,-1.3076,0.0,0.0,0.0,0.0,0.0,0.0,0.0,0.0,0.0,0.0,0.0,0.0,0.0,0.0,0.0,0.0,0.0,-2.2859,-2.2859,-2.302,-2.336,-2.3627,-2.3921,-2.4242,-2.4502,-2.4636,-2.4636,-2.4636,-2.4636,-2.4636,-2.4636,-2.4636,-2.4636,-2.4636,0.0,0.0,-2.4636,-2.4636,-2.4636,-2.4636,-2.4636,-2.4636,-2.4636,-2.4636,-2.4636,-2.4636,-2.4636,-2.4488,-2.4193,-2.4038,-2.3896,-2.3154,-2.3005,-2.2856,-2.2558,-2.2831,-2.3349,-2.3095,-2.3575,-2.4062,-2.3794,-2.3212,-2.2841,-2.2701,-2.2222,-2.1904,-2.1766,-2.149,-2.1214,-2.1214,-2.0918,-2.0551,-2.0315,-2.0237,-2.0026,-1.9531,-1.9446,-1.9338,-1.9102,-1.9078,-1.9078,-1.9078,-1.9078,-1.9078,-1.9078,-1.9078,-1.9078,-1.9078,-1.9078,-1.9078,-1.9078,-1.9078,-1.9078,-1.9078,-1.9078,-1.9199,-1.9428,-1.9428,-1.9567,-2.5146,-2.5527,-2.5372,-2.4059,-2.2726,-2.0995,-1.8493,0.0,0.0,-1.3212,-1.241,-1.1998,-1.2077,0.0,0.0,0.0,0.0,0.0,0.0,0.0,0.0,0.0,0.0,0.0,0.0,0.0,0.0,0.0,0.0,0.0,-2.2859,-2.2859,-2.3006,-2.3313,-2.344,-2.3728,-2.4202,-2.4322,-2.4462,-2.4636,-2.4636,-2.4636,-2.4636,-2.4636,-2.4636,-2.4636,-2.4636,0.0,0.0,-2.4636,-2.4636,-2.4636,-2.4636,-2.4636,-2.4636,-2.4636,-2.4636,-2.4636,-2.4636,-2.4636,-2.4488,-2.389,-2.3593,-2.3593,-2.3005,-2.2707,-2.2558,-2.2707,-2.2999,-2.3419,-2.3606,-2.3891,-2.4128,-2.3549,-2.3104,-2.2741,-2.2179,-2.1678,-2.1352,-2.122,-2.1081,-2.0943,-2.0943,-2.0804,-2.0629,-2.0527,-2.0376,-2.0201,-1.9983,-1.9814,-1.9682,-1.9573,-1.9271,-1.9078,-1.9078,-1.9078,-1.9078,-1.9078,-1.9078,-1.9078,-1.9078,-1.9078,-1.9078,-1.9078,-1.9078,-1.9078,-1.9078,-1.9235,-1.9368,-1.947,-1.9639,-1.9778,-2.4238,-2.4922,-2.4944,-2.338,-2.192,-2.0106,0.0,0.0,-1.378,-1.2509,-1.1915,-1.1505,-1.1314,-1.1072,0.0,0.0,0.0,0.0,0.0,0.0,0.0,0.0,0.0,0.0,0.0,0.0,0.0,0.0,0.0,0.0,-2.2859,-2.2859,-2.2966,-2.3187,-2.328,-2.3567,-2.4068,-2.4162,-2.4349,-2.4636,-2.4636,-2.4636,-2.4636,-2.4636,-2.4636,-2.4636,-2.4636,0.0,0.0,-2.4636,-2.4636,-2.4636,-2.4636,-2.4636,-2.4636,-2.4636,-2.4636,-2.4636,-2.4636,-2.4636,-2.4488,-2.3742,-2.3445,-2.3296,-2.3154,-2.2707,-2.2558,-2.2856,-2.3296,-2.3742,-2.4038,-2.4189,-2.3991,-2.349,-2.3002,-2.2441,-2.1876,-2.1321,-2.0943,-2.0804,-2.0665,-2.0665,-2.0665,-2.0665,-2.0665,-2.0665,-2.0515,-2.0364,-2.0285,-2.0116,-1.9971,-1.9899,-1.9543,-1.9283,-1.9199,-1.9187,-1.9157,-1.9084,-1.9078,-1.9078,-1.9078,-1.9078,-1.9114,-1.9187,-1.9187,-1.9229,-1.9314,-1.9501,-1.9633,-1.9712,-1.9911,-2.0044,-2.2832,-2.3799,-2.403,-2.2303,-2.0747,-1.8879,0.0,-1.446,-1.3022,-1.1948,-1.1477,-1.1116,-1.0506,-0.9991,-0.9937,0.0,0.0,0.0,0.0,0.0,0.0,0.0,0.0,0.0,0.0,0.0,0.0,0.0,0.0,0.0,-2.2859,-2.2859,-2.2859,-2.2866,-2.3166,-2.3474,-2.3774,-2.4062,-2.4349,-2.4636,-2.4636,-2.4636,-2.4636,-2.4636,-2.4636,0.0,0.0,0.0,0.0,-2.4636,-2.4636,-2.4636,-2.4636,-2.4636,-2.4636,-2.4636,-2.4636,-2.4636,-2.4636,-2.4636,-2.4488,-2.4193,-2.3742,-2.3445,-2.3445,-2.3154,-2.2856,-2.2856,-2.3451,-2.4038,-2.4488,-2.4334,-2.4031,-2.4031,-2.3006,-2.2163,-2.2163,-2.1316,-2.0665,-2.0665,-2.0665,-2.0665,-2.0665,-2.0665,-2.0665,-2.0665,-2.0665,-2.0569,-2.0309,-2.0273,-2.0171,-1.9917,-1.9881,-1.9766,-1.9489,-1.9464,-1.935,-1.909,-1.9078,-1.9078,-1.9078,-1.9078,-1.9193,-1.9458,-1.9464,-1.9597,-1.9875,-1.9881,-2.0014,-2.0267,-2.0273,-2.0412,-2.1035,-2.1724,-2.182,-2.0881,-1.9298,-1.752,-1.556,-1.4073,-1.2681,-1.1532,-1.0964,-1.0549,-1.0079,-0.9614,-0.9594,-1.0389,0.0,0.0,0.0,0.0,0.0,0.0,0.0,0.0,0.0,0.0,0.0,0.0,0.0,0.0,-2.2859,-2.2859,-2.2859,-2.2859,-2.2959,-2.3253,-2.3768,-2.3861,-2.4155,-2.4636,-2.4636,-2.4636,-2.4636,-2.4636,-2.4636,0.0,0.0,0.0,0.0,-2.4636,-2.4636,-2.4636,-2.4636,-2.4636,-2.4636,-2.4636,-2.4636,-2.4636,-2.4636,-2.4636,-2.4488,-2.4193,-2.389,-2.3742,-2.3445,-2.3147,-2.3005,-2.3451,-2.4044,-2.4488,-2.4636,-2.4341,-2.389,-2.3593,-2.3018,-2.2317,-2.2032,-2.146,-2.0937,-2.0937,-2.0792,-2.0665,-2.0665,-2.0665,-2.0665,-2.0665,-2.0665,-2.0641,-2.0557,-2.0545,-2.0515,-2.043,-2.0418,-2.0158,-1.9519,-1.9464,-1.9356,-1.909,-1.9078,-1.9157,-1.9338,-1.9344,-1.947,-1.9748,-1.9754,-1.9796,-1.9887,-2.0068,-2.0285,-2.0545,-2.0545,-2.0593,0.0,-1.9412,-1.961,-1.89,-1.7624,-1.6207,-1.4698,-1.3411,-1.2173,-1.1089,-1.0446,-0.9976,-0.9614,-0.9263,-0.9268,-0.9944,0.0,0.0,0.0,0.0,0.0,0.0,0.0,0.0,0.0,0.0,0.0,0.0,0.0,0.0,-2.2859,-2.2859,-2.2859,-2.2859,-2.2859,-2.31,-2.3601,-2.3607,-2.3841,-2.4309,-2.4309,-2.4309,-2.4309,-2.4309,-2.4309,0.0,0.0,0.0,0.0,-2.4589,-2.4636,-2.4636,-2.4636,-2.4636,-2.4636,-2.4636,-2.4636,-2.4636,-2.4636,-2.4636,-2.4488,-2.4341,-2.4186,-2.4186,-2.3742,-2.3445,-2.3445,-2.4044,-2.4341,-2.4636,-2.4636,-2.4193,-2.3742,-2.3445,-2.2793,-2.2166,-2.2013,-2.1529,-2.1185,-2.1076,-2.0931,-2.0786,-2.0684,-2.0665,-2.0665,-2.0665,-2.0665,-2.0665,-2.0665,-2.0665,-2.0665,-2.0665,-2.0665,-2.0424,-1.982,-1.9772,-1.9664,-1.9398,-1.938,-1.9458,-1.9615,-1.9627,-1.9754,-2.0032,-2.0032,-2.008,-2.0183,-2.0346,-2.0509,-2.0665,-2.0665,-2.0665,0.0,-1.684,-1.736,-1.6741,-1.5888,-1.4944,-1.3722,-1.2622,0.0,-1.0577,-0.9932,-0.951,-0.9211,-0.8976,-0.9031,0.0,0.0,0.0,0.0,0.0,0.0,0.0,0.0,0.0,0.0,0.0,0.0,0.0,0.0,0.0,-2.3003,-2.3003,-2.2859,-2.2859,-2.2859,-2.3013,-2.3327,-2.3327,-2.3474,-2.3774,-2.3774,-2.3774,-2.3774,-2.3774,-2.3774,0.0,0.0,0.0,0.0,-2.4496,-2.4616,-2.4636,-2.4636,-2.4636,-2.4636,-2.4636,-2.4636,-2.4636,-2.4636,-2.4636,-2.4636,-2.4636,-2.4636,-2.4488,-2.4193,-2.4038,-2.4186,-2.4488,-2.4636,-2.4636,-2.4636,-2.4038,-2.3445,-2.3445,-2.2664,-2.1897,-2.1897,-2.1691,-2.1432,-2.1172,-2.1088,-2.0979,-2.0738,-2.0684,-2.0665,-2.0665,-2.0665,-2.0665,-2.0665,-2.0665,-2.0665,-2.0665,-2.0665,-2.0569,-2.0327,-2.0285,-2.0165,-1.9905,-1.9887,-1.9899,-1.9911,-1.9917,-2.0038,-2.0297,-2.0309,-2.0424,-2.0665,-2.0665,-2.0665,-2.0665,-2.0665,-2.0665,-1.3195,0.0,-1.5081,-1.5238,-1.4489,-1.3606,0.0,0.0,0.0,0.0,0.0,0.0,0.0,0.0,0.0,0.0,0.0,0.0,0.0,0.0,0.0,0.0,0.0,0.0,0.0,0.0,0.0,0.0,0.0,0.0,-2.327,-2.327,-2.3133,-2.2866,-2.2859,-2.3013,-2.3327,-2.3327,-2.3474,-2.3774,-2.3774,-2.3774,-2.3774,-2.3774,-2.3774,0.0,0.0,0.0,-2.4209,-2.4275,-2.4436,-2.4636,-2.4636,-2.4636,-2.4636,-2.4636,-2.4636,-2.4636,-2.4636,-2.4636,-2.4636,-2.4636,-2.4636,-2.4636,-2.4488,-2.4488,-2.4488,-2.4636,-2.4636,-2.4636,-2.4636,-2.4186,-2.3742,-2.3445,-2.2955,-2.2614,-2.2317,-2.1963,-2.1758,-2.1691,-2.1341,-2.104,-2.0979,-2.0804,-2.0665,-2.0665,-2.0665,-2.0665,-2.0665,-2.0665,-2.0665,-2.0665,-2.0665,-2.0641,-2.0581,-2.0394,-2.0165,-1.9905,-1.9887,-1.9977,-2.0177,-2.0189,-2.0309,-2.0569,-2.0575,-2.0605,-2.0665,-2.0665,-2.0665,-2.0665,-2.0665,-2.0665,-1.19,-1.2628,-1.339,-1.3496,-1.3164,-1.2632,0.0,0.0,0.0,0.0,0.0,0.0,0.0,0.0,0.0,0.0,0.0,0.0,0.0,0.0,0.0,0.0,0.0,0.0,0.0,0.0,0.0,0.0,0.0,0.0,-2.4067,-2.3809,-2.3406,-2.2859,-2.2859,-2.2946,-2.3113,-2.3113,-2.3193,-2.3354,-2.3354,-2.3354,-2.3354,-2.3354,-2.3354,0.0,0.0,0.0,-2.3814,-2.3948,-2.4102,-2.4255,-2.4389,-2.4436,-2.4449,-2.4583,-2.4636,-2.4636,-2.4636,-2.4636,-2.4636,-2.4636,-2.4636,-2.4636,-2.4636,-2.4636,-2.4636,-2.4636,-2.4636,-2.4636,-2.4636,-2.4341,-2.389,-2.3742,-2.3302,-2.2856,-2.2558,-2.2299,-2.2011,-2.1891,-2.1631,-2.1354,-2.11,-2.0943,-2.081,-2.069,-2.0665,-2.0665,-2.0665,-2.0665,-2.0665,-2.0665,-2.0665,-2.0665,-2.0665,-2.0539,-2.0394,-2.0255,-2.0243,-2.0309,-2.0448,-2.0454,-2.0527,-2.0665,-2.0665,-2.0665,-2.0665,-2.0665,-2.0665,-2.0665,-2.0665,-2.0665,-1.137,-1.1879,-1.2243,-1.2199,-1.2214,-1.2159,0.0,0.0,0.0,0.0,0.0,0.0,0.0,0.0,0.0,0.0,0.0,0.0,0.0,0.0,0.0,0.0,0.0,0.0,0.0,0.0,0.0,0.0,0.0,0.0,-2.5055,-2.4552,-2.3767,-2.3133,-2.314,-2.314,-2.314,-2.3003,-2.2859,-2.2859,-2.2859,-2.2859,-2.2859,-2.2859,-2.2859,-2.2879,0.0,0.0,-2.3347,-2.3601,-2.3728,-2.3794,-2.4042,-2.4162,-2.4235,-2.4482,-2.4596,-2.4636,-2.4636,-2.4636,-2.4636,-2.4636,-2.4636,-2.4636,-2.4636,-2.4636,-2.4636,-2.4636,-2.4636,-2.4636,-2.4636,-2.4334,-2.4038,-2.389,-2.3445,-2.3005,-2.2856,-2.2558,-2.2198,-2.1975,-2.1897,-2.1722,-2.1263,-2.1148,-2.1046,-2.0822,-2.0756,-2.0726,-2.0726,-2.0696,-2.0665,-2.0665,-2.0665,-2.0665,-2.0665,-2.0665,-2.0665,-2.0665,-2.0665,-2.0665,-2.0665,-2.0665,-2.0665,-2.0665,-2.0665,-2.0665,-2.0665,-2.0665,-2.0665,-2.0665,-2.0665,-2.0665,-1.137,-1.1822,-1.2208,-1.254,-1.2837,-1.2995,0.0,0.0,0.0,0.0,0.0,0.0,0.0,0.0,0.0,0.0,0.0,0.0,0.0,0.0,0.0,0.0,0.0,0.0,0.0,0.0,0.0,0.0,0.0,0.0,-2.5378,-2.5018,-2.4484,-2.3816,-2.3823,-2.3823,-2.3823,-2.3277,-2.2859,-2.2859,-2.2859,-2.2859,-2.2859,-2.2859,-2.2859,-2.2866,0.0,-2.3086,-2.3327,-2.3374,-2.3547,-2.3774,-2.3821,-2.3988,-2.4209,-2.4255,-2.4429,-2.4636,-2.4636,-2.4636,-2.4636,-2.4636,-2.4636,-2.4636,-2.4636,-2.4636,-2.4636,-2.4636,-2.4636,-2.4636,-2.4636,-2.4488,-2.4341,-2.3593,-2.3445,-2.3147,-2.2558,-2.2414,-2.2247,-2.2211,-2.2023,-2.1842,-2.1758,-2.1559,-2.1402,-2.136,-2.1154,-2.1003,-2.1003,-2.0804,-2.0665,-2.0665,-2.0665,-2.0665,-2.0665,-2.0665,-2.0665,-2.0665,-2.0665,-2.0665,-2.0665,-2.0665,-2.0665,-2.0665,-2.0665,-2.0665,-2.0665,-2.0665,-2.0665,-2.0665,-2.0665,-2.0665,-1.1021,-1.1453,-1.1957,-1.28,-1.3314,0.0,0.0,0.0,0.0,0.0,0.0,0.0,0.0,0.0,0.0,0.0,0.0,0.0,0.0,0.0,0.0,0.0,0.0,0.0,0.0,0.0,0.0,0.0,0.0,0.0,-2.6962,-2.6533,-2.6052,-2.5404,-2.5576,-2.5674,-2.5674,-2.5398,-2.4602,-2.3543,-2.3543,-2.3406,-2.3133,-2.3133,-2.3133,-2.2859,0.0,-2.2946,-2.3073,-2.3073,-2.316,-2.33,-2.3467,-2.3614,-2.3768,-2.4088,-2.4389,-2.4636,-2.4636,-2.4636,-2.4636,-2.4636,-2.4636,-2.4636,-2.4636,-2.4636,-2.4636,-2.4636,-2.4636,-2.4636,-2.4636,-2.4488,-2.4186,-2.3742,-2.3445,-2.3005,-2.2707,-2.2408,-2.2259,-2.2259,-2.2162,-2.2036,-2.1891,-2.177,-2.1643,-2.1504,-2.1372,-2.1233,-2.1076,-2.0955,-2.0822,-2.0684,-2.0665,-2.0665,-2.0665,-2.0665,-2.0665,-2.0665,-2.0665,-2.0665,-2.0665,-2.0665,-2.0665,-2.0665,-2.0665,-2.0665,-2.0665,-2.0665,-2.0665,-2.0665,-2.0665,-2.0665,-1.0597,-1.1095,-1.1755,0.0,0.0,0.0,0.0,0.0,0.0,0.0,0.0,0.0,0.0,0.0,0.0,0.0,0.0,0.0,0.0,0.0,0.0,0.0,0.0,0.0,0.0,0.0,0.0,0.0,0.0,0.0,-2.7989,-2.7781,-2.7366,-2.6735,-2.6998,-2.7306,-2.7387,-2.7387,-2.6463,-2.4752,-2.4624,-2.4224,-2.3809,-2.3679,-2.327,-2.2859,-2.2859,-2.2859,-2.2859,-2.2859,-2.2859,-2.2886,-2.3126,-2.326,-2.3394,-2.3988,-2.4342,-2.4549,-2.4609,-2.4636,-2.4636,-2.4636,-2.4636,-2.4636,-2.4636,-2.4636,-2.4636,-2.4636,-2.4636,-2.4636,-2.4636,-2.4341,-2.4038,-2.389,-2.3302,-2.2856,-2.2707,-2.2558,-2.2259,-2.2259,-2.2259,-2.2198,-2.1999,-2.1963,-2.1891,-2.1691,-2.1607,-2.1492,-2.1275,-2.1136,-2.0979,-2.078,-2.0702,-2.0665,-2.0665,-2.0665,-2.0665,-2.0665,-2.0665,-2.0665,-2.0665,-2.0665,-2.0665,-2.0665,-2.0665,-2.0665,-2.0665,-2.0665,-2.0665,-2.0665,-2.0665,-2.0665,-1.0339,-1.0893,-1.1682,0.0,0.0,0.0,0.0,0.0,0.0,0.0,0.0,0.0,0.0,0.0,0.0,0.0,0.0,0.0,0.0,0.0,0.0,0.0,0.0,0.0,0.0,0.0,0.0,0.0,0.0,0.0,-2.7991,-2.7655,-2.7487,-2.7522,-2.7572,-2.7744,-2.8073,-2.8073,-2.7668,-2.6847,-2.6218,-2.5562,-2.4873,-2.4217,-2.355,-2.2859,-2.2859,-2.2859,-2.2859,-2.2859,-2.2859,-2.2866,-2.2886,-2.3073,-2.3394,-2.3988,-2.4215,-2.4269,-2.4543,-2.4636,-2.4636,-2.4636,-2.4636,-2.4636,-2.4636,-2.4636,-2.4636,-2.4636,-2.4636,-2.4636,-2.4636,-2.4341,-2.389,-2.3593,-2.3154,-2.2856,-2.2408,-2.2259,-2.2259,-2.2259,-2.2259,-2.2253,-2.2235,-2.2235,-2.2223,-2.2211,-2.1999,-2.1836,-2.1812,-2.1372,-2.1052,-2.1034,-2.0816,-2.0665,-2.0665,-2.0665,-2.0665,-2.0665,-2.0665,-2.0665,-2.0665,-2.0665,-2.0665,-2.0665,-2.0665,-2.0665,-2.0665,-2.0665,-2.0665,-2.0665,-2.0665,-2.0665,-1.1002,-1.1251,-1.1737,0.0,0.0,0.0,0.0,0.0,0.0,0.0,0.0,0.0,0.0,0.0,0.0,0.0,0.0,0.0,0.0,0.0,0.0,0.0,0.0,0.0,0.0,0.0,0.0,0.0,0.0,0.0,0.0,-2.8698,-2.8834,-2.888,-2.9365,-2.9692,-2.9833,-3.0072,-3.0048,-2.9778,-2.7949,-2.6635,-2.5697,-2.5165,-2.4488,-2.355,-2.355,-2.355,-2.355,-2.355,-2.355,-2.355,-2.355,-2.3736,-2.4059,-2.4472,-2.4747,-2.4953,-2.4977,-2.4938,-2.4938,-2.4636,-2.4636,-2.4636,-2.4636,-2.4636,-2.4636,-2.4636,-2.4636,-2.4636,-2.4636,-2.4186,-2.3593,-2.3445,-2.3005,-2.2558,-2.2259,-2.2259,-2.2259,-2.2259,-2.2259,-2.2259,-2.2259,-2.2259,-2.2259,-2.2259,-2.2174,-2.2054,-2.1891,-2.1691,-2.1438,-2.1094,-2.1102,-2.0943,-2.0665,-2.0943,-2.0943,-2.0665,-2.0665,-2.0665,-2.0665,-2.0665,-2.0665,-2.0665,-2.0665,-2.0665,-2.0665,-2.0665,-2.0665,-2.0665,-2.0665,-2.0665,-1.1297,-1.1388,-1.1746,0.0,0.0,0.0,0.0,0.0,0.0,0.0,0.0,0.0,0.0,0.0,0.0,0.0,0.0,0.0,0.0,0.0,0.0,0.0,0.0,0.0,0.0,0.0,0.0,0.0,0.0,0.0,0.0,-2.9241,-2.9443,-2.9571,-3.0112,-3.0525,-3.0791,-3.1057,-3.1249,-3.1377,-2.9543,-2.8097,-2.7028,-2.6627,-2.595,-2.5015,-2.5015,-2.5015,-2.5015,-2.5015,-2.5015,-2.5015,-2.5015,-2.5147,-2.5251,-2.5827,-2.5838,-2.5798,-2.5805,-2.5513,-2.5373,-2.4784,-2.4636,-2.4636,-2.4636,-2.4636,-2.4636,-2.4636,-2.4636,-2.4636,-2.4636,-2.4044,-2.3593,-2.3445,-2.2999,-2.2408,-2.2259,-2.2259,-2.2259,-2.2259,-2.2259,-2.2259,-2.2259,-2.2259,-2.2259,-2.2259,-2.2259,-2.2198,-2.2017,-2.1921,-2.1807,-2.1254,-2.1309,-2.1167,-2.0949,-2.1075,-2.1075,-2.0665,-2.0665,-2.0665,-2.0665,-2.0665,-2.0665,-2.0665,-2.0665,-2.0665,-2.0665,-2.0665,-2.0665,-2.0665,-2.0665,-2.0665,-1.103,-1.1223,0.0,0.0,0.0,0.0,0.0,0.0,0.0,0.0,0.0,0.0,0.0,0.0,0.0,0.0,0.0,0.0,0.0,0.0,0.0,0.0,0.0,0.0,0.0,0.0,0.0,0.0,0.0,0.0,0.0,-2.8984,-2.9159,-2.9553,-2.9571,-2.9956,-3.0772,-3.0781,-3.0983,-3.1368,-3.112,-3.0334,-2.9273,-2.8608,-2.78,-2.7113,-2.7113,-2.7113,-2.7113,-2.7113,-2.7113,-2.7113,-2.7113,-2.7113,-2.72,-2.7915,-2.7763,-2.7021,-2.6849,-2.6364,-2.5646,-2.4924,-2.4636,-2.4636,-2.4636,-2.4636,-2.4636,-2.4636,-2.4636,-2.4636,-2.4636,-2.4341,-2.389,-2.3445,-2.3154,-2.2856,-2.2408,-2.2265,-2.2265,-2.2265,-2.2259,-2.2259,-2.2259,-2.2259,-2.2259,-2.2259,-2.2259,-2.2259,-2.2265,-2.2029,-2.1807,-2.1678,-2.1616,-2.1505,-2.1238,-2.1214,-2.1075,-2.0665,-2.0665,-2.0665,-2.0665,-2.0665,-2.0665,-2.0665,-2.0665,-2.0665,-2.0665,-2.0665,-2.0665,-2.0665,-2.0665,-2.0665,-1.172,0.0,0.0,0.0,0.0,0.0,0.0,0.0,0.0,0.0,0.0,0.0,0.0,0.0,0.0,0.0,0.0,0.0,0.0,0.0,0.0,0.0,0.0,0.0,0.0,0.0,0.0,0.0,0.0,0.0,0.0,-2.8984,-2.9039,-2.9149,-2.9424,-2.969,-2.9929,-3.0222,-3.0433,-3.0552,-3.071,-3.0462,-2.9674,-2.9159,-2.8617,-2.7932,-2.7932,-2.7932,-2.7932,-2.7932,-2.7932,-2.7932,-2.7932,-2.7932,-2.799,-2.8329,-2.81,-2.7391,-2.7087,-2.6466,-2.5658,-2.4864,-2.4636,-2.4636,-2.4636,-2.4636,-2.4636,-2.4636,-2.4636,-2.4636,-2.4636,-2.4488,-2.4334,-2.389,-2.3593,-2.3147,-2.3147,-2.2856,-2.2707,-2.2707,-2.2558,-2.2259,-2.2259,-2.2259,-2.2259,-2.2259,-2.2259,-2.2408,-2.2707,-2.2614,-2.2676,-2.2652,-2.2563,-2.2147,-2.1651,-2.1603,-2.1352,-2.081,-2.0943,-2.0943,-2.0671,-2.0665,-2.0665,-2.0665,-2.0665,-2.0665,-2.0665,-2.0665,-2.0665,-2.0665,-2.0665,-2.0665,0.0,0.0,0.0,0.0,0.0,0.0,0.0,0.0,0.0,0.0,0.0,0.0,0.0,0.0,0.0,0.0,0.0,0.0,0.0,0.0,0.0,0.0,0.0,0.0,0.0,0.0,0.0,0.0,0.0,0.0,0.0,-2.8984,-2.8984,-2.8984,-2.9214,-2.9415,-2.9571,-2.9819,-3.003,-3.0204,-3.0442,-3.0375,-3.0241,-3.0142,-2.9944,-2.9526,-2.9526,-2.9526,-2.9526,-2.9526,-2.9526,-2.9526,-2.9526,-2.9526,-2.9578,-2.9834,-2.9437,-2.8443,-2.7625,-2.678,-2.5949,-2.4841,-2.4543,-2.4636,-2.4636,-2.4636,-2.4636,-2.4636,-2.4636,-2.4636,-2.4636,-2.4636,-2.4488,-2.4044,-2.3742,-2.3593,-2.3445,-2.3296,-2.3005,-2.2856,-2.2707,-2.2558,-2.2259,-2.2259,-2.2259,-2.2259,-2.2408,-2.2707,-2.3005,-2.3151,-2.3152,-2.319,-2.3158,-2.2853,-2.2198,-2.2027,-2.1603,-2.0949,-2.0937,-2.0943,-2.0671,-2.0804,-2.0804,-2.0665,-2.0665,-2.0665,-2.0665,-2.0665,-2.0665,-2.0665,-2.0665,-2.0665,0.0,0.0,0.0,0.0,0.0,0.0,0.0,0.0,0.0,0.0,0.0,0.0,0.0,0.0,0.0,0.0,0.0,0.0,0.0,0.0,0.0,0.0,0.0,0.0,0.0,0.0,0.0,0.0,0.0,0.0,0.0,-2.8966,-2.8984,-2.8984,-2.8984,-2.9159,-2.9516,-2.9516,-2.9709,-3.0094,-3.013,-3.0332,-3.0699,-3.113,-3.135,-3.1377,-3.1377,-3.1377,-3.1377,-3.1377,-3.1377,-3.1377,-3.1249,-3.1249,-3.1294,-3.1678,-3.0866,-2.9437,-2.843,-2.7252,-2.5984,-2.4616,-2.4382,-2.4603,-2.4629,-2.4636,-2.4636,-2.4636,-2.4636,-2.4636,-2.4636,-2.4636,-2.4488,-2.4186,-2.4038,-2.389,-2.3593,-2.3445,-2.3296,-2.3005,-2.3005,-2.2856,-2.2408,-2.2408,-2.2408,-2.2408,-2.2707,-2.3154,-2.3445,-2.3445,-2.3497,-2.3686,-2.3634,-2.3399,-2.2871,-2.2512,-2.1957,-2.1263,-2.0979,-2.0828,-2.0665,-2.0937,-2.1081,-2.0671,-2.0665,-2.0665,-2.0665,-2.0665,-2.0665,-2.0665,-2.0665,-2.0665,0.0,0.0,0.0,0.0,0.0,0.0,0.0,0.0,0.0,0.0,0.0,0.0,0.0,0.0,0.0,0.0,0.0,0.0,0.0,0.0,0.0,0.0,0.0,0.0,0.0,0.0,0.0,0.0,0.0,0.0,-2.8526,-2.8819,-2.8984,-2.8984,-2.8984,-2.9021,-2.9113,-2.9113,-2.9149,0.0,-2.9562,-2.9745,-2.9855,-3.058,-3.1084,-3.1377,-3.1377,-3.1377,-3.1377,-3.1377,-3.1249,-3.1,-3.0611,-3.0343,-3.0083,-2.9918,-2.9155,-2.7995,-2.7126,-2.6205,-2.5114,-2.448,-2.4249,-2.4342,-2.4569,-2.4636,-2.4636,-2.4636,-2.4636,-2.4636,-2.4636,-2.4636,-2.4636,-2.4488,-2.4488,-2.4488,-2.4341,-2.4038,-2.389,-2.3742,-2.3445,-2.3296,-2.3147,-2.3147,-2.3147,-2.3147,-2.3445,-2.3748,-2.389,-2.4186,-2.4314,-2.4402,-2.419,-2.3859,-2.3438,-2.3223,-2.2544,-2.1695,-2.181,-2.1576,-2.0678,-2.0804,-2.0804,-2.0665,-2.0665,-2.0665,-2.0665,-2.0665,-2.0665,-2.0665,-2.0665,-2.0665,0.0,0.0,0.0,0.0,0.0,0.0,0.0,0.0,0.0,0.0,0.0,0.0,0.0,0.0,0.0,0.0,0.0,0.0,0.0,0.0,0.0,0.0,0.0,0.0,0.0,0.0,0.0,0.0,0.0,-2.8397,-2.8397,-2.8764,-2.8984,-2.8984,-2.8984,-2.8984,-2.8984,-2.8984,-2.8984,-2.8984,-2.9195,-2.9388,-2.9589,-3.0222,-3.0726,-3.1093,-3.1093,-3.1203,-3.1377,-3.1377,-3.1129,-3.0611,-3.0083,-2.9543,-2.9011,-2.8477,-2.7692,-2.6792,-2.602,-2.5237,-2.4602,-2.3958,-2.3975,-2.4235,-2.4382,-2.4523,-2.4636,-2.4636,-2.4636,-2.4636,-2.4636,-2.4636,-2.4636,-2.4636,-2.4636,-2.4636,-2.4636,-2.4488,-2.4186,-2.4038,-2.389,-2.3593,-2.3445,-2.3445,-2.3445,-2.3593,-2.389,-2.4038,-2.4186,-2.4488,-2.4636,-2.4636,-2.4496,-2.4209,-2.3925,-2.3339,-2.2838,-2.2124,-2.1838,-2.142,-2.0865,-2.0853,-2.0798,-2.0671,-2.0665,-2.0665,-2.0665,-2.0665,-2.0665,-2.0665,-2.0665,-2.0665,0.0,0.0,0.0,0.0,0.0,0.0,0.0,0.0,0.0,0.0,0.0,0.0,0.0,0.0,0.0,0.0,0.0,0.0,0.0,0.0,0.0,0.0,0.0,0.0,0.0,0.0,0.0,0.0,0.0,-2.8187,-2.8187,-2.8553,-2.8773,-2.8773,-2.8847,-2.8883,-2.8883,-2.8948,-2.8984,-2.8984,-2.8984,-2.9149,-2.9479,-2.9828,-3.0241,-3.069,-3.0754,-3.0974,-3.1157,-3.1221,-3.0732,-2.9952,-2.9273,-2.8477,-2.7816,-2.6996,-2.6344,-2.5704,-2.5015,-2.4516,-2.4067,-2.344,-2.3688,-2.4142,-2.4189,-2.4409,-2.4636,-2.4636,-2.4636,-2.4636,-2.4636,-2.4636,-2.4636,-2.4636,-2.4636,-2.4636,-2.4636,-2.4636,-2.4488,-2.4186,-2.4044,-2.4038,-2.3593,-2.3593,-2.3742,-2.4038,-2.4044,-2.4193,-2.4488,-2.4636,-2.4636,-2.4636,-2.4636,-2.4536,-2.4156,-2.3546,-2.2987,-2.2569,-2.1752,-2.1321,-2.1136,-2.113,-2.1028,-2.081,-2.081,-2.0786,-2.0738,-2.0738,-2.0714,-2.0665,-2.0665,-2.0665,0.0,0.0,0.0,0.0,0.0,0.0,0.0,0.0,0.0,0.0,0.0,0.0,0.0,0.0,0.0,0.0,0.0,0.0,0.0,0.0,0.0,0.0,0.0,0.0,0.0,0.0,0.0,0.0,-2.7114,-2.7343,-2.7343,-2.7719,-2.793,-2.793,-2.8278,-2.8471,-2.8471,-2.881,-2.8984,-2.8984,-2.8984,-2.9012,-2.9067,-2.9122,-2.9562,-3.0296,-3.0644,-3.0692,-3.0401,-3.0477,-2.9822,-2.8897,-2.7833,-2.7028,-2.6234,-2.5569,-2.5037,-2.4631,-2.4224,-2.3843,-2.3509,-2.3372,-2.3554,-2.3875,-2.4128,-2.4409,-2.4636,-2.4636,-2.4636,-2.4636,-2.4636,-2.4636,-2.4636,-2.4636,-2.4636,-2.4636,-2.4636,-2.4636,-2.4636,-2.4488,-2.4488,-2.4488,-2.4488,-2.4488,-2.4488,-2.4488,-2.4488,-2.4488,-2.4636,-2.4636,-2.4636,-2.4636,-2.4636,-2.4468,-2.3986,-2.3986,-2.342,-2.2562,-2.2366,-2.2097,-2.1432,-2.1426,-2.1408,-2.1372,-2.1372,-2.1251,-2.1009,-2.1009,-2.0889,-2.0665,-2.0665,-2.0665,0.0,0.0,0.0,0.0,0.0,0.0,0.0,0.0,0.0,0.0,0.0,0.0,0.0,0.0,0.0,0.0,0.0,0.0,0.0,0.0,0.0,0.0,0.0,0.0,0.0,0.0,0.0,0.0,-2.6949,-2.7178,-2.7178,-2.7554,-2.7765,-2.7765,-2.8177,-2.8397,-2.8397,-2.8783,-2.8984,-2.8984,-2.8984,-2.8984,-2.8984,-2.8984,-2.9305,-2.9855,-3.003,-3.011,-2.9903,-2.9559,-2.8833,-2.7833,-2.6486,-2.5555,-2.4895,-2.4088,-2.3679,-2.3543,-2.3406,-2.327,-2.3153,-2.302,-2.3387,-2.3794,-2.3921,-2.4275,-2.4636,-2.4636,-2.4636,-2.4636,-2.4636,-2.4636,-2.4636,-2.4636,-2.4636,-2.4636,-2.4636,-2.4636,-2.4636,-2.4636,-2.4636,-2.4636,-2.4636,-2.4636,-2.4636,-2.4636,-2.4636,-2.4636,-2.4636,-2.4636,-2.4636,-2.4636,-2.4636,-2.4488,-2.4038,-2.3742,-2.3394,-2.2688,-2.2393,-2.1965,-2.1704,-2.1698,-2.1698,-2.1698,-2.1553,-2.142,-2.1293,-2.1136,-2.1003,-2.0883,-2.0738,-2.0665,0.0,0.0,0.0,0.0,0.0,0.0,0.0,0.0,0.0,0.0,0.0,0.0,0.0,0.0,0.0,0.0,0.0,0.0,0.0,0.0,0.0,0.0,0.0,0.0,0.0,0.0,0.0,0.0,-2.6866,-2.7031,-2.7031,-2.7306,-2.7471,-2.7471,-2.7866,-2.8086,-2.8086,-2.8581,-2.8883,-2.8984,-2.8984,-2.8984,-2.8984,-2.8984,-2.914,-2.9424,-2.9525,-2.9542,-2.9348,-2.8776,-2.798,-2.6909,-2.5525,-2.4624,-2.4095,-2.327,-2.2996,-2.2996,-2.2866,-2.2859,-2.2859,-2.2859,-2.3227,-2.3674,-2.3748,-2.4122,-2.4543,-2.4616,-2.4636,-2.4636,-2.4636,-2.4636,-2.4636,-2.4636,-2.4636,-2.4636,-2.4636,-2.4636,-2.4636,-2.4636,-2.4636,-2.4636,-2.4636,-2.4636,-2.4636,-2.4636,-2.4636,-2.4636,-2.4636,-2.4636,-2.4636,-2.4636,-2.4636,-2.4341,-2.389,-2.3593,-2.3147,-2.2707,-2.2226,-2.1969,-2.1969,-2.1969,-2.1969,-2.1969,-2.1782,-2.1643,-2.1577,-2.1299,-2.113,-2.1052,-2.0786,-2.0665,0.0,0.0,0.0,0.0,0.0,0.0,0.0,0.0,0.0,0.0,0.0,0.0,0.0,0.0,0.0,0.0,0.0,0.0,0.0,0.0,0.0,0.0,0.0,0.0,0.0,0.0,0.0,0.0,-2.6609,-2.6619,-2.6619,-2.6637,-2.6646,-2.6646,-2.7031,-2.7242,-2.7242,-2.8031,-2.8618,-2.8984,-2.8984,-2.8984,-2.8984,-2.8984,-2.8993,-2.9039,-2.9406,-2.9243,-2.8615,-2.8324,-2.7588,-2.6585,-2.545,-2.4766,-2.436,-2.3679,-2.3406,-2.327,-2.2996,-2.2859,-2.2859,-2.2859,-2.3086,-2.34,-2.3688,-2.3981,-2.4282,-2.4563,-2.4636,-2.4636,-2.4636,-2.4636,-2.4636,-2.4636,-2.4636,-2.4636,-2.4636,-2.4636,-2.4636,-2.4636,-2.4636,-2.4636,-2.4636,-2.4636,-2.4636,-2.4636,-2.4636,-2.4636,-2.4636,-2.4636,-2.4636,-2.4636,-2.4636,-2.4341,-2.3445,-2.3445,-2.3147,-2.2408,-2.2247,-2.2241,-2.2241,-2.2241,-2.2241,-2.2241,-2.2229,-2.2096,-2.1848,-2.1589,-2.1323,-2.1052,-2.0786,-2.0665,0.0,0.0,0.0,0.0,0.0,0.0,0.0,0.0,0.0,0.0,0.0,0.0,0.0,0.0,0.0,0.0,0.0,0.0,0.0,0.0,0.0,0.0,0.0,0.0,0.0,0.0,0.0,0.0,0.0,-2.6591,-2.6591,-2.6591,-2.6591,-2.6591,-2.6976,-2.7435,-2.7957,-2.8251,-2.859,-2.8984,-2.8984,-2.8984,-2.8984,-2.8984,-2.8984,-2.8993,-2.9131,-2.898,-2.8509,-2.8019,-2.7519,-2.7182,-2.6238,-2.576,-2.5435,-2.4745,-2.4217,-2.3679,-2.3133,-2.2859,-2.2859,-2.2859,-2.3073,-2.3347,-2.3454,-2.3821,-2.4222,-2.4329,-2.4489,-2.4636,-2.4636,-2.4636,-2.4636,-2.4636,-2.4636,-2.4636,-2.4636,-2.4636,-2.4636,-2.4636,-2.4636,-2.4636,-2.4636,-2.4636,-2.4636,-2.4636,-2.4636,-2.4636,-2.4636,-2.4636,-2.4636,-2.4636,-2.4341,-2.4038,-2.3445,-2.3147,-2.2856,-2.2259,-2.2259,-2.2259,-2.2259,-2.2259,-2.2259,-2.2259,-2.2259,-2.2217,-2.212,-2.1976,-2.1713,-2.1317,-2.1151,-2.0943,0.0,0.0,0.0,0.0,0.0,0.0,0.0,0.0,0.0,0.0,0.0,0.0,0.0,0.0,0.0,0.0,0.0,0.0,0.0,0.0,0.0,0.0,0.0,0.0,0.0,0.0,0.0,0.0,0.0,0.0,-2.6591,-2.6591,-2.6591,-2.6591,-2.6848,-2.7306,-2.7985,-2.7985,-2.8251,-2.8783,-2.8783,-2.8856,-2.8984,-2.8984,-2.8984,-2.8984,-2.8984,-2.8781,-2.8428,-2.7921,-2.7713,-2.7777,-2.7101,-2.6711,-2.6501,-2.5689,-2.5022,-2.436,-2.3406,-2.3133,-2.2996,-2.3003,-2.2999,-2.3193,-2.3293,-2.3674,-2.4075,-2.4175,-2.4409,-2.4636,-2.4636,-2.4636,-2.4636,-2.4636,-2.4636,-2.4636,-2.4636,-2.4636,-2.4636,-2.4636,-2.4636,-2.4636,-2.4636,-2.4636,-2.4636,-2.4636,-2.4636,-2.4636,-2.4636,-2.4636,-2.4488,-2.4341,-2.4193,-2.3742,-2.3296,-2.3005,-2.2707,-2.2259,-2.2259,-2.2259,-2.2259,-2.2259,-2.2259,-2.2259,-2.2408,-2.2408,-2.2259,-2.2025,-2.1762,-2.1468,-2.12,-2.0937,0.0,0.0,0.0,0.0,0.0,0.0,0.0,0.0,0.0,0.0,0.0,0.0,0.0,0.0,0.0,0.0,0.0,0.0,0.0,0.0,0.0,0.0,0.0,0.0,0.0,0.0,0.0,0.0,-2.6591,-2.6591,-2.6591,-2.6591,-2.6591,-2.6591,-2.6591,-2.6774,-2.7169,-2.7178,-2.7581,-2.8397,-2.8397,-2.8599,-2.8984,-2.8984,-2.8984,-2.8984,-2.8984,-2.8746,-2.8424,-2.8175,-2.8066,-2.8077,-2.7794,-2.7769,-2.7708,-2.6635,-2.5965,-2.5427,-2.3945,-2.3406,-2.3406,-2.2996,-2.2859,-2.2919,-2.322,-2.3527,-2.3828,-2.4108,-2.4409,-2.4636,-2.4636,-2.4636,-2.4636,-2.4636,-2.4636,-2.4636,-2.4636,-2.4636,-2.4636,-2.4636,-2.4636,-2.4636,-2.4636,-2.4636,-2.4636,-2.4636,-2.4636,-2.4636,-2.4636,-2.4636,-2.4488,-2.4038,-2.4038,-2.3742,-2.3005,-2.2856,-2.2707,-2.2259,-2.2259,-2.2259,-2.2259,-2.2259,-2.2259,-2.2259,-2.2551,-2.2701,-2.2259,-2.1734,-2.148,-2.1468,-2.0919,-2.0665,-1.0155,0.0,0.0,0.0,0.0,0.0,0.0,0.0,0.0,0.0,0.0,0.0,0.0,0.0,0.0,0.0,0.0,0.0,0.0,0.0,0.0,0.0,0.0,0.0,0.0,0.0,0.0,0.0,-2.6591,-2.6591,-2.6591,-2.6591,-2.6591,-2.6591,-2.6591,-2.6774,-2.7169,-2.7178,-2.7581,-2.8397,-2.8397,-2.8599,-2.8984,-2.8984,-2.8865,-2.8636,-2.8388,-2.814,-2.7779,-2.8487,-2.9067,-2.9582,-2.9556,-2.9494,-2.943,-2.8748,-2.7692,-2.6494,-2.5008,-2.421,-2.3679,-2.3133,-2.2859,-2.2879,-2.2966,-2.3354,-2.3788,-2.3868,-2.4249,-2.4636,-2.4636,-2.4636,-2.4636,-2.4636,-2.4636,-2.4636,-2.4636,-2.4636,-2.4636,-2.4636,-2.4636,-2.4636,-2.4636,-2.4636,-2.4636,-2.4636,-2.4636,-2.4636,-2.4636,-2.4636,-2.4488,-2.4038,-2.3742,-2.3445,-2.3005,-2.2558,-2.2408,-2.2265,-2.2259,-2.2259,-2.2259,-2.2259,-2.2259,-2.2259,-2.2408,-2.2408,-2.2259,-2.231,-2.205,-2.1468,-2.0919,-2.0665,0.0,0.0,0.0,0.0,0.0,0.0,0.0,0.0,0.0,0.0,0.0,0.0,0.0,0.0,0.0,0.0,0.0,0.0,0.0,0.0,0.0,0.0,0.0,0.0,0.0,-2.5839,-2.6078,-2.6078,-2.6233,-2.6408,-2.6582,-2.6591,-2.6591,-2.6591,-2.6591,-2.6701,-2.693,-2.693,-2.7251,-2.7884,-2.7884,-2.8187,-2.8737,-2.8737,-2.8592,-2.8268,-2.7771,-2.7272,-2.6909,-2.7142,-2.8097,-2.9324,-2.9324,-2.9542,-2.9561,-2.8888,-2.7965,-2.6777,-2.5292,-2.4488,-2.3823,-2.3133,-2.2859,-2.2859,-2.2859,-2.3287,-2.3774,-2.3774,-2.4189,-2.4636,-2.4636,-2.4636,-2.4636,-2.4636,-2.4636,-2.4636,-2.4636,-2.4636,-2.4636,-2.4636,-2.4636,-2.4636,-2.4636,-2.4636,-2.4636,-2.4636,-2.4636,-2.4636,-2.4636,-2.4636,-2.4341,-2.3742,-2.3593,-2.3147,-2.2707,-2.2408,-2.2259,-2.2259,-2.2259,-2.2259,-2.2259,-2.2259,-2.2259,-2.2259,-2.2408,-2.2447,-2.2215,-2.2199,-2.1789,-2.113,-2.0816,-2.0665,-1.0956,-1.0938,0.0,0.0,0.0,0.0,-1.1877,-1.2645,0.0,0.0,0.0,0.0,0.0,0.0,0.0,0.0,0.0,0.0,0.0,0.0,0.0,0.0,0.0,0.0,-2.4785,-2.5142,-2.5372,-2.5372,-2.5738,-2.6142,-2.6564,-2.6591,-2.6591,-2.6582,-2.6482,-2.6473,-2.6473,-2.6473,-2.6674,-2.7169,-2.7178,-2.7609,-2.8397,-2.8397,-2.8256,-2.802,-2.7272,-2.6537,-2.5937,-2.5186,-2.6083,-2.7874,-2.7874,-2.8187,-2.8435,-2.7776,-2.7145,-2.6391,-2.5037,-2.4367,-2.3823,-2.3133,-2.2859,-2.2859,-2.2859,-2.3267,-2.3734,-2.3801,-2.4189,-2.4596,-2.4629,-2.4636,-2.4636,-2.4636,-2.4636,-2.4636,-2.4636,-2.4636,-2.4636,-2.4636,-2.4636,-2.4636,-2.4636,-2.4636,-2.4636,-2.4636,-2.4636,-2.4636,-2.4636,-2.4636,-2.4334,-2.3445,-2.3445,-2.3147,-2.2408,-2.2259,-2.2259,-2.2259,-2.2259,-2.2259,-2.2259,-2.2259,-2.2259,-2.2259,-2.2682,-2.2552,-2.2025,-2.1612,-2.1203,-2.0665,-2.0665,-2.0665,-1.1269,-1.1159,-1.0984,-1.1278,0.0,0.0,-1.1489,-1.2223,0.0,0.0,0.0,0.0,0.0,0.0,0.0,0.0,0.0,0.0,0.0,0.0,0.0,0.0,0.0,0.0,-2.4785,-2.5142,-2.5372,-2.5372,-2.5738,-2.6142,-2.6564,-2.6591,-2.6473,-2.6245,-2.6017,-2.5907,-2.5907,-2.5907,-2.6215,-2.6825,-2.7057,-2.7609,-2.8397,-2.8397,-2.8256,-2.79,-2.7039,-2.6197,-2.5602,-2.4602,-2.5077,-2.6194,-2.6194,-2.6623,-2.71,-2.6977,-2.6643,-2.6107,-2.515,-2.4488,-2.3823,-2.3133,-2.2859,-2.2859,-2.2859,-2.312,-2.3514,-2.3988,-2.4202,-2.4342,-2.4576,-2.4636,-2.4636,-2.4636,-2.4636,-2.4636,-2.4636,-2.4636,-2.4636,-2.4636,-2.4636,-2.4636,-2.4636,-2.4636,-2.4636,-2.4636,-2.4636,-2.4636,-2.4636,-2.4636,-2.4334,-2.3445,-2.3445,-2.3147,-2.2408,-2.2259,-2.2259,-2.2259,-2.2259,-2.2259,-2.2259,-2.2259,-2.2259,-2.2259,-2.2202,-2.194,-2.1618,-2.148,-2.1203,-2.0665,-2.0665,-2.0665,-1.2333,-1.2076,-1.1813,-1.1783,0.0,0.0,0.0,0.0,0.0,0.0,0.0,0.0,0.0,0.0,0.0,0.0,0.0,0.0,0.0,0.0,0.0,0.0,0.0,0.0,-2.3868,-2.4225,-2.4629,-2.5041,-2.5262,-2.5555,-2.5958,-2.5977,-2.5854,-2.5612,-2.516,-2.4919,-2.5,-2.5119,-2.5436,-2.5963,-2.6655,-2.7205,-2.7792,-2.7994,-2.7939,-2.7727,-2.7073,-2.6432,-2.5709,-2.4833,-2.468,-2.4836,-2.4897,-2.5257,-2.5851,-2.572,-2.5544,-2.5165,-2.4759,-2.4217,-2.3543,-2.3133,-2.2859,-2.2859,-2.2859,-2.308,-2.3454,-2.4042,-2.4202,-2.4269,-2.4563,-2.4636,-2.4636,-2.4636,-2.4636,-2.4636,-2.4636,-2.4636,-2.4636,-2.4636,-2.4636,-2.4636,-2.4636,-2.4636,-2.4636,-2.4636,-2.4636,-2.4636,-2.4636,-2.4636,-2.4334,-2.3445,-2.3445,-2.3147,-2.2408,-2.2408,-2.2558,-2.2558,-2.2707,-2.2707,-2.2558,-2.2558,-2.2496,-2.2072,-2.1939,-2.1673,-2.1269,-2.1269,-2.1064,-2.0665,-2.0665,-2.0665,0.0,0.0,0.0,0.0,0.0,-1.1599,0.0,0.0,0.0,0.0,0.0,0.0,0.0,0.0,0.0,0.0,0.0,0.0,0.0,0.0,0.0,0.0,0.0,0.0,0.0,-2.296,-2.3538,-2.4372,-2.45,-2.4757,-2.5234,-2.5326,-2.5345,-2.5102,-2.4429,-2.4166,-2.4214,-2.4445,-2.4667,-2.5,-2.5798,-2.6453,-2.6852,-2.7241,-2.74,-2.7199,-2.6979,-2.6658,-2.6059,-2.5431,-2.4941,-2.4355,-2.4014,-2.4282,-2.4606,-2.4209,-2.418,-2.4088,-2.3823,-2.355,-2.327,-2.2996,-2.2859,-2.2859,-2.2859,-2.304,-2.3354,-2.3881,-2.4035,-2.4115,-2.4462,-2.4556,-2.4569,-2.4623,-2.4636,-2.4636,-2.4636,-2.4636,-2.4636,-2.4636,-2.4636,-2.4636,-2.4636,-2.4636,-2.4636,-2.4636,-2.4636,-2.4636,-2.4636,-2.4636,-2.4334,-2.3593,-2.3445,-2.3147,-2.2558,-2.2707,-2.2856,-2.3005,-2.3296,-2.3296,-2.2856,-2.2856,-2.2584,-2.1873,-2.1824,-2.1553,-2.1058,-2.1009,-2.0877,-2.0665,-2.0665,-2.0665,0.0,0.0,0.0,0.0,-1.2356,0.0,0.0,0.0,0.0,0.0,0.0,0.0,0.0,0.0,0.0,0.0,0.0,0.0,0.0,0.0,0.0,0.0,0.0,0.0,0.0,-2.1695,-2.2282,-2.3003,-2.3483,-2.4024,-2.4803,-2.5179,-2.5345,-2.5102,-2.423,-2.3854,-2.3913,-2.368,-2.3672,-2.4103,-2.4667,-2.5216,-2.5604,-2.5967,-2.6347,-2.6626,-2.6515,-2.6562,-2.6449,-2.6067,-2.5815,-2.5325,-2.3743,-2.3155,-2.3215,-2.2558,-2.2653,-2.3133,-2.3003,-2.2996,-2.2996,-2.2866,-2.2859,-2.2859,-2.2859,-2.2886,-2.2986,-2.3327,-2.3427,-2.3554,-2.4108,-2.4255,-2.4322,-2.4576,-2.4636,-2.4636,-2.4636,-2.4636,-2.4636,-2.4636,-2.4636,-2.4636,-2.4636,-2.4636,-2.4636,-2.4636,-2.4636,-2.4636,-2.4636,-2.4636,-2.4488,-2.4038,-2.3593,-2.3445,-2.3296,-2.3005,-2.3005,-2.3296,-2.3445,-2.3296,-2.2856,-2.2558,-2.2287,-2.1879,-2.1643,-2.1372,-2.1058,-2.0822,-2.0696,-2.0665,-2.0665,-2.0665,0.0,0.0,0.0,0.0,0.0,0.0,-1.2076,0.0,-1.2076,0.0,0.0,0.0,0.0,0.0,0.0,0.0,0.0,0.0,0.0,0.0,0.0,0.0,0.0,0.0,0.0,0.0,0.0,0.0,-2.2034,-2.2593,-2.3666,-2.4097,-2.4407,-2.473,-2.4003,-2.3637,-2.3568,-2.3336,-2.3095,-2.3087,-2.3544,-2.3957,-2.4204,-2.4671,-2.5033,-2.5641,-2.6498,-2.6909,-2.7168,-2.765,-2.753,-2.6918,-2.579,-2.4733,-2.3811,-2.2897,-2.3027,-2.355,-2.355,-2.355,-2.355,-2.327,-2.2996,-2.2859,-2.2859,-2.2859,-2.2926,-2.324,-2.3327,-2.346,-2.4048,-2.4202,-2.4275,-2.4569,-2.4636,-2.4636,-2.4636,-2.4636,-2.4636,-2.4636,-2.4636,-2.4636,-2.4636,-2.4636,-2.4636,-2.4636,-2.4636,-2.4636,-2.4636,-2.4636,-2.4488,-2.4038,-2.3741,-2.335,-2.3203,-2.3063,-2.3113,-2.3259,-2.3107,-2.2822,-2.2676,-2.2099,-2.1679,-2.1408,-2.1293,-2.1106,-2.0828,-2.072,-2.0665,-2.0665,-2.0665,-2.0665,-1.5176,0.0,0.0,0.0,0.0,0.0,0.0,0.0,0.0,0.0,0.0,0.0,0.0,0.0,0.0,0.0,0.0,0.0,0.0,0.0,0.0,0.0,0.0,0.0,0.0,0.0,0.0,0.0,0.0,-2.1154,-2.229,-2.2844,-2.3431,-2.4105,-2.3597,-2.3253,-2.3231,-2.2772,-2.2425,-2.2191,-2.2418,-2.2702,-2.2921,-2.3262,-2.3841,-2.4667,-2.5885,-2.6779,-2.7159,-2.8131,-2.814,-2.7659,-2.7159,-2.6191,-2.5106,-2.415,-2.4144,-2.4636,-2.4851,-2.4617,-2.4217,-2.3679,-2.327,-2.2859,-2.2859,-2.2859,-2.2906,-2.314,-2.32,-2.332,-2.3834,-2.3961,-2.4055,-2.4429,-2.4516,-2.4536,-2.4616,-2.4636,-2.4636,-2.4636,-2.4636,-2.4636,-2.4636,-2.4636,-2.4636,-2.4636,-2.4636,-2.4636,-2.4636,-2.4636,-2.4488,-2.4186,-2.379,-2.3469,-2.3323,-2.3216,-2.3197,-2.334,-2.2911,-2.2618,-2.2618,-2.1906,-2.1347,-2.1064,-2.1058,-2.0931,-2.0665,-2.0665,-2.0665,-2.0665,-2.0665,-2.0665,0.0,0.0,0.0,-1.2619,0.0,0.0,0.0,0.0,-1.1728,0.0,0.0,0.0,0.0,0.0,0.0,0.0,0.0,0.0,0.0,0.0,0.0,0.0,0.0,0.0,0.0,0.0,0.0,0.0,0.0,0.0,-2.077,-2.1648,-2.2425,-2.3091,-2.2617,-2.2392,-2.2562,-2.1995,-2.1539,-2.1211,-2.1303,-2.1457,-2.1657,-2.1986,-2.2676,-2.3741,-2.4676,-2.557,-2.6197,-2.6805,-2.7064,-2.7073,-2.67,-2.6675,-2.6802,-2.6231,-2.619,-2.6537,-2.6869,-2.6061,-2.488,-2.4224,-2.3543,-2.2859,-2.2859,-2.2859,-2.2866,-2.2873,-2.2879,-2.2953,-2.3273,-2.3354,-2.35,-2.4082,-2.4215,-2.4295,-2.4576,-2.4636,-2.4636,-2.4636,-2.4636,-2.4636,-2.4636,-2.4636,-2.4636,-2.4636,-2.4636,-2.4636,-2.4636,-2.4636,-2.4636,-2.4636,-2.393,-2.3766,-2.4202,-2.3504,-2.334,-2.3768,-2.3047,-2.2618,-2.2618,-2.1906,-2.1347,-2.1064,-2.1058,-2.0931,-2.0665,-2.0665,-2.0665,-2.0665,-2.0665,-2.0665,0.0,0.0,-1.494,-1.4129,0.0,0.0,0.0,0.0,0.0,0.0,0.0,0.0,0.0,0.0,0.0,0.0,0.0,0.0,0.0,0.0,0.0,0.0,0.0,0.0,0.0,0.0,0.0,0.0,-1.6762,0.0,0.0,-2.0027,-2.0815,-2.1895,-2.1802,-2.181,-2.1973,-2.1309,-2.0856,-2.0622,-2.0162,-2.0206,-2.0392,-2.0688,-2.1234,-2.2032,-2.3316,-2.407,-2.4571,-2.5309,-2.5815,-2.6197,-2.6675,-2.7107,-2.7295,-2.6909,-2.697,-2.7198,-2.7158,-2.6344,-2.5278,-2.4495,-2.3679,-2.2859,-2.2859,-2.2859,-2.2859,-2.2859,-2.2859,-2.2933,-2.3247,-2.3327,-2.3474,-2.4068,-2.4202,-2.4282,-2.4576,-2.4636,-2.4636,-2.4636,-2.4636,-2.4636,-2.4636,-2.4636,-2.4636,-2.4636,-2.4636,-2.4636,-2.4636,-2.4469,-2.4349,-2.4349,-2.3771,-2.3479,-2.3627,-2.3207,-2.3028,-2.3173,-2.2471,-2.2058,-2.2058,-2.1358,-2.0901,-2.0804,-2.0804,-2.0756,-2.0665,-2.0665,-2.0665,-2.0665,-2.0665,-2.0665,-1.7379,-1.6871,0.0,-1.5419,-1.4876,0.0,-1.3467,0.0,0.0,0.0,0.0,0.0,0.0,0.0,0.0,0.0,0.0,0.0,0.0,0.0,0.0,0.0,0.0,0.0,0.0,0.0,-1.4198,-1.4754,-1.4926,0.0,0.0,0.0,-1.9249,-2.0434,-2.0767,-2.0987,-2.113,-2.0579,-2.0295,-2.027,-1.9822,-1.9746,-2.0162,-2.0334,-2.0754,-2.1423,-2.2331,-2.2959,-2.3333,-2.4077,-2.4579,-2.521,-2.6042,-2.6658,-2.7254,-2.8002,-2.8477,-2.8818,-2.8147,-2.7153,-2.5943,-2.503,-2.3816,-2.2859,-2.2859,-2.2859,-2.2859,-2.2859,-2.2859,-2.2906,-2.3106,-2.316,-2.3287,-2.3774,-2.3895,-2.4001,-2.4396,-2.4482,-2.4516,-2.4616,-2.4636,-2.4636,-2.4636,-2.4636,-2.4636,-2.4636,-2.4636,-2.4636,-2.4636,-2.4382,-2.4202,-2.4202,-2.3681,-2.328,-2.3173,-2.2979,-2.2859,-2.2722,-2.2179,-2.1766,-2.1628,-2.1081,-2.0665,-2.0665,-2.0665,-2.0665,-2.0665,-2.0665,-2.0665,-2.0665,-2.0665,-2.0665]},{"header":{"parameterUnit":"m.s-1","parameterCategory":1,"la1":30.6,"la2":29.2853,"lo1":-89.7004,"lo2":-87.6739,"dy":0.0162,"dx":0.0183,"nx":112,"ny":82,"refTime":"2026-03-17T00:00:00:Z","depth":0,"parameterNumber":3,"parameterNumberName":"V-component_of_WINDS"},"data":[0.0,0.0,0.0,0.0,0.0,0.0,0.0,0.0,0.0,0.0,0.0,0.0,0.0,0.0,0.0,0.0,0.0,0.0,0.0,0.0,0.0,0.0,0.0,0.0,0.0,0.0,0.0,0.0,0.0,0.0,0.0,0.0,0.0,0.0,0.0,0.0,0.0,0.0,0.0,0.0,0.0,0.0,0.0,0.0,0.0,0.0,0.0,0.0,0.0,0.0,0.0,0.0,0.0,0.0,0.0,0.0,0.0,0.0,0.0,0.0,0.0,0.0,0.0,0.0,0.0,0.0,0.0,0.0,0.0,0.0,0.0,0.0,0.0,0.0,0.0,0.0,0.0,0.0,0.0,0.0,0.0,0.0,0.0,0.0,0.0,0.0,0.0,0.0,0.0,0.0,-2.6023,-3.038,-3.3298,-3.4175,-3.2398,-2.9419,-2.6453,-2.371,0.0,0.0,0.0,0.0,0.0,0.0,0.0,0.0,0.0,0.0,0.0,0.0,0.0,0.0,0.0,0.0,0.0,0.0,0.0,0.0,0.0,0.0,0.0,0.0,0.0,0.0,0.0,0.0,0.0,0.0,0.0,0.0,0.0,0.0,0.0,0.0,0.0,0.0,0.0,0.0,0.0,0.0,0.0,0.0,0.0,0.0,0.0,0.0,0.0,0.0,0.0,0.0,0.0,0.0,0.0,0.0,0.0,0.0,0.0,0.0,0.0,0.0,0.0,0.0,0.0,0.0,0.0,0.0,0.0,0.0,0.0,0.0,0.0,0.0,0.0,0.0,0.0,0.0,0.0,0.0,0.0,0.0,0.0,0.0,0.0,0.0,0.0,0.0,0.0,0.0,0.0,0.0,0.0,0.0,0.0,0.0,0.0,0.0,0.0,0.0,0.0,0.0,0.0,0.0,-2.7659,-3.3615,-3.688,-3.7667,-3.5354,-3.2522,-3.0248,-2.8701,0.0,0.0,0.0,0.0,0.0,0.0,0.0,0.0,0.0,0.0,0.0,0.0,0.0,0.0,0.0,0.0,0.0,0.0,0.0,0.0,0.0,0.0,0.0,0.0,0.0,0.0,0.0,0.0,0.0,0.0,0.0,0.0,0.0,0.0,0.0,0.0,0.0,0.0,0.0,0.0,0.0,0.0,0.0,0.0,0.0,0.0,0.0,0.0,0.0,0.0,0.0,0.0,0.0,0.0,0.0,0.0,0.0,0.0,0.0,0.0,0.0,0.0,0.0,0.0,0.0,0.0,0.0,0.0,0.0,0.0,0.0,0.0,0.0,0.0,0.0,0.0,0.0,0.0,0.0,0.0,0.0,0.0,0.0,0.0,0.0,0.0,0.0,0.0,0.0,0.0,0.0,0.0,0.0,0.0,0.0,0.0,0.0,0.0,0.0,0.0,0.0,0.0,0.0,-2.8487,-3.2804,-3.6057,-3.8774,-3.9159,-3.6219,-3.3888,-3.1225,-2.8112,-2.4754,0.0,0.0,0.0,0.0,0.0,0.0,0.0,0.0,0.0,0.0,0.0,0.0,0.0,0.0,0.0,0.0,0.0,0.0,0.0,0.0,0.0,0.0,0.0,0.0,0.0,0.0,0.0,0.0,0.0,0.0,0.0,0.0,0.0,0.0,0.0,0.0,0.0,0.0,0.0,0.0,0.0,0.0,0.0,0.0,0.0,0.0,0.0,0.0,0.0,0.0,0.0,0.0,0.0,0.0,0.0,0.0,0.0,0.0,0.0,0.0,0.0,0.0,0.0,0.0,0.0,0.0,0.0,0.0,0.0,0.0,0.0,0.0,0.0,0.0,0.0,0.0,0.0,0.0,0.0,0.0,0.0,0.0,0.0,0.0,0.0,0.0,0.0,0.0,0.0,0.0,0.0,0.0,0.0,0.0,0.0,0.0,0.0,0.0,0.0,0.0,0.0,0.0,-3.3617,-3.7581,-3.8678,-4.0738,-4.0735,-3.7583,-3.5283,-3.2083,-2.7528,-2.4996,0.0,0.0,0.0,0.0,0.0,0.0,0.0,0.0,0.0,0.0,0.0,0.0,0.0,0.0,0.0,0.0,0.0,0.0,0.0,0.0,0.0,0.0,0.0,0.0,0.0,0.0,0.0,0.0,0.0,0.0,0.0,0.0,0.0,0.0,0.0,0.0,0.0,0.0,0.0,0.0,0.0,0.0,0.0,0.0,0.0,0.0,0.0,0.0,0.0,0.0,0.0,0.0,0.0,0.0,0.0,0.0,0.0,0.0,0.0,0.0,0.0,0.0,0.0,0.0,0.0,0.0,0.0,0.0,0.0,0.0,0.0,0.0,0.0,0.0,0.0,0.0,0.0,0.0,0.0,0.0,0.0,0.0,0.0,0.0,0.0,0.0,0.0,0.0,0.0,0.0,0.0,0.0,0.0,0.0,0.0,0.0,0.0,0.0,0.0,0.0,0.0,0.0,-3.5328,-3.9719,-4.2069,-4.3777,-4.366,-4.1075,-3.7735,-3.4089,-3.0002,-2.5321,0.0,0.0,0.0,0.0,0.0,0.0,0.0,0.0,0.0,0.0,0.0,0.0,0.0,0.0,0.0,0.0,0.0,0.0,0.0,0.0,0.0,0.0,0.0,0.0,0.0,0.0,0.0,0.0,0.0,0.0,0.0,0.0,0.0,0.0,0.0,0.0,0.0,0.0,0.0,0.0,0.0,0.0,0.0,0.0,0.0,0.0,0.0,0.0,0.0,0.0,0.0,0.0,0.0,0.0,0.0,0.0,0.0,0.0,0.0,0.0,0.0,0.0,0.0,0.0,0.0,0.0,0.0,0.0,0.0,0.0,0.0,0.0,0.0,0.0,0.0,0.0,0.0,0.0,0.0,0.0,0.0,0.0,0.0,0.0,0.0,0.0,0.0,0.0,0.0,0.0,0.0,0.0,0.0,0.0,0.0,0.0,0.0,0.0,0.0,0.0,0.0,0.0,-3.7087,-4.1345,0.0,-4.4517,-4.3934,-4.091,-3.7956,-3.4091,-2.9081,0.0,0.0,0.0,0.0,0.0,0.0,0.0,0.0,0.0,0.0,0.0,0.0,0.0,0.0,0.0,0.0,0.0,0.0,0.0,0.0,0.0,0.0,0.0,0.0,0.0,0.0,0.0,0.0,0.0,0.0,0.0,0.0,0.0,0.0,0.0,0.0,0.0,0.0,0.0,0.0,0.0,0.0,0.0,0.0,0.0,0.0,0.0,0.0,0.0,0.0,0.0,0.0,0.0,0.0,0.0,0.0,0.0,0.0,0.0,0.0,0.0,0.0,0.0,0.0,0.0,0.0,0.0,0.0,0.0,0.0,0.0,0.0,0.0,0.0,0.0,0.0,0.0,0.0,0.0,0.0,0.0,0.0,0.0,0.0,0.0,0.0,0.0,0.0,0.0,0.0,0.0,0.0,0.0,0.0,0.0,0.0,0.0,0.0,0.0,0.0,0.0,0.0,-3.2692,-3.8191,-4.2314,0.0,-4.5398,-4.4525,-4.0659,-3.7961,-3.3949,-2.8038,0.0,0.0,0.0,0.0,0.0,0.0,0.0,0.0,0.0,0.0,0.0,0.0,0.0,0.0,0.0,0.0,0.0,0.0,0.0,0.0,0.0,0.0,0.0,0.0,0.0,0.0,0.0,0.0,0.0,0.0,0.0,0.0,0.0,0.0,0.0,0.0,0.0,0.0,0.0,0.0,0.0,0.0,0.0,0.0,0.0,0.0,0.0,0.0,0.0,0.0,0.0,0.0,0.0,0.0,0.0,0.0,0.0,0.0,0.0,0.0,0.0,0.0,0.0,0.0,0.0,0.0,0.0,0.0,0.0,0.0,0.0,0.0,0.0,0.0,0.0,0.0,0.0,0.0,0.0,0.0,0.0,0.0,0.0,0.0,0.0,0.0,0.0,0.0,0.0,0.0,0.0,0.0,0.0,0.0,0.0,0.0,0.0,0.0,0.0,0.0,0.0,0.0,-3.338,-3.8544,-4.2556,-4.5026,-4.6717,-4.5695,-4.081,-3.8116,-3.3881,0.0,0.0,0.0,0.0,0.0,0.0,0.0,0.0,0.0,0.0,0.0,0.0,0.0,0.0,0.0,0.0,0.0,0.0,0.0,0.0,0.0,0.0,0.0,0.0,0.0,0.0,0.0,0.0,0.0,0.0,0.0,0.0,0.0,0.0,0.0,0.0,0.0,0.0,0.0,0.0,0.0,0.0,0.0,0.0,0.0,0.0,0.0,0.0,0.0,0.0,0.0,0.0,0.0,0.0,0.0,0.0,0.0,0.0,0.0,0.0,0.0,0.0,0.0,0.0,0.0,0.0,0.0,0.0,0.0,0.0,0.0,0.0,0.0,0.0,0.0,0.0,0.0,0.0,0.0,0.0,0.0,0.0,0.0,0.0,0.0,0.0,0.0,0.0,0.0,0.0,0.0,0.0,0.0,0.0,0.0,0.0,0.0,0.0,0.0,0.0,0.0,0.0,0.0,-3.4271,-3.9398,-4.3169,-4.5101,-4.5714,-4.4488,-4.0717,-3.7596,-3.3528,-2.8086,0.0,0.0,0.0,0.0,0.0,0.0,0.0,0.0,0.0,0.0,0.0,0.0,0.0,0.0,0.0,0.0,0.0,0.0,0.0,0.0,0.0,0.0,0.0,0.0,0.0,0.0,0.0,0.0,0.0,0.0,0.0,0.0,0.0,0.0,0.0,0.0,0.0,0.0,0.0,0.0,0.0,0.0,0.0,0.0,0.0,0.0,0.0,0.0,0.0,0.0,0.0,0.0,0.0,0.0,0.0,0.0,0.0,0.0,0.0,0.0,0.0,0.0,0.0,0.0,0.0,0.0,0.0,0.0,0.0,0.0,0.0,0.0,0.0,0.0,0.0,0.0,0.0,0.0,0.0,0.0,0.0,0.0,0.0,0.0,0.0,0.0,0.0,0.0,0.0,0.0,0.0,0.0,0.0,0.0,0.0,0.0,0.0,0.0,0.0,0.0,0.0,0.0,-3.4643,-3.9491,-4.2816,-4.4153,-4.4581,-4.3448,-4.016,-3.7458,-3.3839,-2.8922,0.0,0.0,0.0,0.0,0.0,0.0,0.0,0.0,0.0,0.0,0.0,0.0,0.0,0.0,0.0,0.0,0.0,0.0,0.0,0.0,0.0,0.0,0.0,0.0,0.0,0.0,0.0,0.0,0.0,0.0,0.0,0.0,0.0,0.0,0.0,0.0,0.0,0.0,0.0,0.0,0.0,0.0,0.0,0.0,0.0,0.0,0.0,0.0,0.0,0.0,0.0,0.0,0.0,0.0,0.0,0.0,0.0,0.0,0.0,0.0,0.0,0.0,0.0,0.0,0.0,0.0,0.0,0.0,0.0,0.0,0.0,0.0,0.0,0.0,0.0,0.0,0.0,0.0,0.0,0.0,0.0,0.0,0.0,0.0,0.0,0.0,0.0,0.0,0.0,0.0,0.0,0.0,0.0,0.0,0.0,0.0,0.0,0.0,0.0,0.0,0.0,0.0,-3.4643,-3.9064,-4.1869,-4.2612,-4.341,-4.2593,-3.9361,-3.7561,-3.4568,-2.9795,0.0,0.0,0.0,0.0,0.0,0.0,0.0,0.0,0.0,0.0,0.0,0.0,0.0,0.0,0.0,0.0,0.0,0.0,0.0,0.0,0.0,0.0,0.0,0.0,0.0,0.0,0.0,0.0,0.0,0.0,0.0,0.0,0.0,0.0,0.0,0.0,0.0,0.0,0.0,0.0,0.0,0.0,0.0,0.0,0.0,0.0,0.0,0.0,0.0,0.0,0.0,0.0,0.0,0.0,0.0,0.0,0.0,0.0,0.0,0.0,-2.5485,0.0,0.0,0.0,0.0,0.0,0.0,0.0,0.0,0.0,0.0,0.0,0.0,0.0,0.0,0.0,0.0,0.0,0.0,0.0,0.0,0.0,0.0,0.0,0.0,0.0,0.0,0.0,0.0,0.0,0.0,0.0,0.0,0.0,0.0,0.0,0.0,0.0,0.0,0.0,0.0,0.0,-3.4736,-3.9064,-4.1664,-4.1832,-4.2575,-4.195,-3.9258,-3.7525,-3.4759,-3.0461,-2.7557,0.0,0.0,0.0,0.0,0.0,0.0,0.0,0.0,0.0,0.0,0.0,0.0,0.0,0.0,0.0,0.0,0.0,0.0,0.0,0.0,0.0,0.0,0.0,0.0,0.0,0.0,0.0,0.0,0.0,0.0,0.0,0.0,0.0,0.0,0.0,0.0,0.0,0.0,0.0,0.0,0.0,0.0,0.0,0.0,0.0,0.0,0.0,0.0,0.0,0.0,0.0,0.0,0.0,0.0,0.0,0.0,0.0,0.0,0.0,0.0,-2.8418,0.0,0.0,0.0,0.0,0.0,0.0,0.0,0.0,0.0,0.0,0.0,0.0,0.0,0.0,0.0,0.0,0.0,0.0,0.0,0.0,0.0,0.0,0.0,0.0,0.0,0.0,0.0,0.0,0.0,0.0,0.0,0.0,0.0,0.0,0.0,0.0,0.0,0.0,0.0,0.0,-3.5386,-3.964,-4.2017,-4.1627,-4.195,-4.1297,-3.9192,-3.7812,-3.5512,-3.18,-2.8861,0.0,0.0,0.0,0.0,0.0,0.0,0.0,0.0,0.0,0.0,0.0,0.0,0.0,0.0,0.0,0.0,0.0,0.0,0.0,0.0,0.0,0.0,0.0,0.0,0.0,0.0,0.0,0.0,0.0,0.0,0.0,0.0,0.0,0.0,0.0,0.0,0.0,0.0,0.0,0.0,0.0,0.0,0.0,0.0,0.0,0.0,0.0,0.0,0.0,0.0,0.0,0.0,0.0,-3.8028,-3.8395,-3.779,-3.8597,-3.8946,-3.8848,-3.637,-3.4289,-3.2637,-3.2539,0.0,0.0,0.0,0.0,0.0,0.0,0.0,0.0,0.0,0.0,0.0,0.0,0.0,0.0,0.0,0.0,0.0,0.0,0.0,0.0,0.0,0.0,0.0,0.0,-3.7243,-3.585,0.0,0.0,0.0,0.0,0.0,0.0,0.0,0.0,0.0,0.0,0.0,0.0,-3.611,-4.0271,-4.2482,-4.1683,-4.1679,-4.11,-3.9534,-3.8549,-3.6648,-3.3375,-3.0341,-2.7214,0.0,0.0,0.0,0.0,0.0,0.0,0.0,0.0,0.0,0.0,0.0,0.0,0.0,0.0,0.0,0.0,0.0,0.0,0.0,0.0,0.0,0.0,0.0,0.0,0.0,0.0,0.0,0.0,0.0,0.0,0.0,0.0,-2.1344,-2.1697,0.0,0.0,0.0,0.0,0.0,0.0,0.0,0.0,0.0,0.0,0.0,0.0,0.0,-3.5569,-3.8744,-3.979,-4.1001,-4.2378,-4.3314,-4.3699,-4.3626,-4.4433,-4.4782,-4.48,-4.5094,0.0,-3.6738,-3.5984,0.0,0.0,0.0,0.0,0.0,0.0,0.0,0.0,0.0,0.0,0.0,0.0,0.0,0.0,0.0,0.0,0.0,0.0,0.0,0.0,0.0,0.0,-3.9863,-4.159,-4.1906,-4.1683,0.0,-3.8878,-3.624,-3.3863,-3.2562,0.0,0.0,0.0,0.0,0.0,0.0,0.0,-3.624,-4.0271,-4.2482,-4.1683,-4.218,-4.2125,-4.1083,-4.0197,-3.8265,-3.4936,-3.3103,-3.0369,-2.6407,-2.5486,0.0,0.0,0.0,0.0,0.0,0.0,0.0,0.0,0.0,0.0,0.0,0.0,0.0,0.0,0.0,0.0,0.0,0.0,0.0,0.0,0.0,0.0,0.0,0.0,0.0,0.0,0.0,0.0,0.0,-2.2471,-2.4461,-2.4248,-2.4889,-2.529,0.0,0.0,0.0,0.0,0.0,0.0,0.0,0.0,0.0,-3.7129,-3.8891,-4.113,-4.392,-4.5681,-4.7131,-4.8288,-4.9095,-4.9242,-4.882,-4.9169,-4.9077,-4.8673,-4.904,-4.759,-4.4799,-4.2169,-3.9866,-3.7864,0.0,0.0,0.0,0.0,-3.5901,-3.7026,-3.7819,-3.7874,0.0,-3.6639,0.0,0.0,0.0,0.0,0.0,0.0,0.0,0.0,0.0,0.0,-4.367,-4.5732,-4.5881,-4.5547,-4.5547,-4.4413,-4.2407,0.0,-3.692,-3.4816,-3.2005,0.0,0.0,0.0,0.0,-3.416,-3.7002,-4.094,-4.3169,-4.2352,-4.2897,-4.2765,-4.1403,-4.0872,-3.9448,-3.6636,-3.4999,-3.2551,-2.8981,-2.8521,-2.6931,0.0,0.0,0.0,0.0,0.0,0.0,0.0,0.0,0.0,0.0,0.0,0.0,0.0,0.0,0.0,0.0,0.0,0.0,0.0,0.0,0.0,0.0,0.0,0.0,0.0,0.0,0.0,0.0,-2.5694,-2.7558,-2.7665,-2.8271,-2.8675,0.0,0.0,0.0,0.0,0.0,0.0,-3.5917,-3.7349,-3.9239,-4.1662,-4.3681,-4.5993,-4.8655,-5.0508,-5.1811,-5.2619,-5.3427,-5.339,-5.2619,-5.2821,-5.2582,-5.2032,-5.2032,-5.1903,-5.1426,-4.7573,-4.4816,-4.2831,-4.1075,-4.0517,-4.0688,-4.0701,-4.1346,-4.2327,-4.3358,-4.3579,-4.3229,-4.2216,0.0,-3.822,-3.7211,0.0,0.0,0.0,0.0,-4.1386,-4.4469,-4.5732,-4.6735,-4.8742,-4.876,-4.8314,-4.8314,-4.8131,-4.6888,0.0,-4.0796,-3.8581,-3.6125,0.0,0.0,0.0,0.0,-3.6036,-3.8525,-4.2054,-4.4098,-4.3454,-4.4013,-4.3822,-4.2313,-4.1724,-4.0501,-3.832,-3.6306,-3.4039,-3.1473,-3.0775,-2.8907,-2.5689,0.0,0.0,0.0,0.0,0.0,0.0,0.0,0.0,0.0,0.0,0.0,0.0,0.0,0.0,0.0,0.0,0.0,0.0,0.0,0.0,0.0,0.0,0.0,0.0,0.0,0.0,0.0,0.0,0.0,-3.2517,-3.3378,0.0,0.0,0.0,0.0,-3.7973,-3.8322,-3.9423,-4.1754,-4.2671,-4.4232,-4.6673,-4.7609,-4.9609,-5.2876,-5.3023,-5.3482,-5.4289,-5.5078,-5.506,-5.4308,-5.506,-5.539,-5.5354,-5.5354,-5.4932,-5.3959,-5.0618,-4.8728,-4.7719,-4.5333,-4.4874,-4.5535,-4.5535,-4.6526,-4.8122,-4.9756,-4.9811,-4.8932,-4.7278,-4.3692,-4.0148,-4.1011,-4.0123,0.0,0.0,-4.4265,-4.5547,-4.8017,-4.8686,-4.8964,-4.9912,-5.006,-4.9986,-4.9986,-4.9321,-4.7972,0.0,-4.4193,-4.2791,-4.024,0.0,-3.6369,-3.7303,-3.7598,-3.8599,-4.1089,-4.3652,-4.5162,-4.499,-4.5645,-4.569,-4.4702,-4.3146,-4.1534,-3.9882,-3.6895,-3.4758,-3.3758,-3.1658,-3.0021,-2.8993,-2.6611,0.0,0.0,0.0,0.0,0.0,0.0,0.0,0.0,0.0,0.0,0.0,0.0,0.0,0.0,0.0,0.0,0.0,0.0,0.0,0.0,0.0,0.0,0.0,0.0,0.0,0.0,0.0,0.0,-3.6726,-3.728,0.0,-3.9735,-3.9054,-3.9643,-4.2359,-4.3534,-4.4947,-4.6874,-4.8233,-4.9591,-5.0986,-5.2307,-5.3555,-5.473,-5.5262,-5.5923,-5.6712,-5.6473,-5.6216,-5.5941,-5.5702,-5.5592,-5.5592,-5.5592,-5.5721,-5.5812,-5.4106,-5.2656,-5.1334,-4.9939,-4.9884,-5.0545,-5.0013,-5.0527,-5.1555,-5.2142,-5.216,-5.1738,-5.068,-4.8494,-4.6316,-4.6212,-4.5797,-4.5547,-4.6197,-4.7757,-4.941,-5.0283,-5.0896,-5.1491,-5.2327,-5.2512,-5.2197,-5.1156,-5.0674,-4.9878,-4.7861,-4.6295,-4.4878,-4.3494,-4.1599,-4.0419,-4.0775,-4.0843,-4.1373,-4.2778,-4.4665,-4.5867,-4.5814,-4.6484,-4.6339,-4.4923,-4.375,-4.2411,-4.0859,-3.87,-3.7173,-3.6381,-3.5016,-3.3393,-3.1489,-2.9012,-2.673,0.0,0.0,0.0,0.0,0.0,0.0,0.0,0.0,0.0,0.0,0.0,0.0,0.0,0.0,0.0,0.0,0.0,0.0,0.0,0.0,0.0,0.0,0.0,0.0,0.0,0.0,-3.8169,-4.0926,-4.1579,-4.2378,-4.3999,-4.33,-4.3736,-4.6177,-4.7076,-4.8251,-4.9903,-5.1261,-5.2491,-5.3573,-5.517,-5.6271,-5.6804,-5.7611,-5.829,-5.8804,-5.8272,-5.8015,-5.8015,-5.7464,-5.7207,-5.7207,-5.7207,-5.7519,-5.7978,-5.7446,-5.6583,-5.5482,-5.3849,-5.3537,-5.3977,-5.372,-5.3959,-5.4418,-5.4418,-5.4252,-5.3867,-5.3166,-5.2051,-5.0968,-5.0786,-5.0787,-5.0805,-5.0546,-5.1454,-5.2511,-5.2567,-5.2791,-5.3125,-5.3683,-5.3813,-5.3441,-5.2085,-5.1324,-5.0582,-4.9452,-4.8253,-4.7148,-4.6319,-4.5013,-4.4091,-4.411,-4.3682,-4.3642,-4.4454,-4.5745,-4.6687,-4.6946,-4.7426,-4.7224,-4.6066,-4.4707,-4.3238,-4.1654,-3.9583,-3.8048,-3.7256,-3.6141,-3.4668,-3.2684,-2.9995,-2.757,-2.5482,0.0,0.0,0.0,0.0,0.0,0.0,0.0,0.0,0.0,0.0,0.0,0.0,0.0,0.0,0.0,0.0,0.0,0.0,0.0,0.0,0.0,0.0,0.0,-3.5379,-3.8905,-4.2282,-4.507,-4.627,-4.7268,-4.8224,-4.6928,-4.7058,-4.9517,-4.8912,-4.915,-5.0802,-5.161,-5.2747,-5.4308,-5.5959,-5.7556,-5.9134,-5.996,-6.0364,-6.0364,-6.0364,-6.0364,-6.0364,-6.0401,-6.0401,-6.0401,-6.0401,-6.0401,-6.0401,-6.0401,-6.0401,-6.0089,-5.6969,-5.5739,-5.5831,-5.662,-5.6914,-5.6914,-5.6895,-5.6363,-5.5618,-5.4834,-5.4049,-5.3576,-5.4511,-5.4751,-5.4903,-5.566,-5.5291,-5.4681,-5.4822,-5.4288,-5.3695,-5.3811,-5.3868,-5.3664,-5.2828,-5.1287,-5.0065,-5.0028,-5.0028,-4.9732,-4.8716,-4.796,-4.748,-4.7427,-4.61,0.0,-4.6207,-4.6945,-4.7702,-4.8421,-4.8494,-4.8438,-4.8288,-4.6085,-4.4011,-4.2396,-3.9338,-3.7235,-3.6358,-3.4798,-3.3556,-3.2651,-2.9531,-2.7132,-2.5575,0.0,0.0,0.0,0.0,0.0,0.0,0.0,0.0,0.0,0.0,0.0,0.0,0.0,0.0,0.0,0.0,0.0,0.0,0.0,0.0,0.0,0.0,-3.7345,-3.8744,-4.1217,-4.4109,-4.7494,-4.8433,-4.9328,-5.0798,-5.005,-5.0215,-5.2068,-5.1444,-5.1444,-5.2491,-5.2747,-5.3078,-5.3518,-5.5666,-5.7024,-5.7464,-5.8859,-5.9538,-5.9538,-5.9538,-5.9538,-5.9557,-6.0144,-6.0401,-6.0401,-6.0401,-6.0401,-6.0401,-6.0401,-6.0401,-6.0309,-5.9428,-5.9079,-5.9116,-5.9336,-5.941,-5.9336,-5.8749,-5.8419,-5.8088,-5.7308,-5.6544,-5.6024,-5.6307,-5.5981,-5.5512,-5.5143,-5.446,-5.3832,-5.3872,-5.3804,-5.3843,-5.4457,-5.5108,-5.5224,-5.3775,-5.2623,-5.1714,-5.1138,-5.1027,-5.0676,-4.9677,-4.9749,-4.9932,-4.9912,-4.9009,0.0,-4.864,-4.8309,-4.8143,-4.8326,-4.8363,-4.8124,-4.7498,-4.5755,-4.4011,-4.2396,-3.9858,-3.804,-3.7184,-3.6185,-3.4972,-3.3495,-3.1507,-2.9398,0.0,0.0,0.0,0.0,0.0,0.0,0.0,0.0,0.0,0.0,0.0,0.0,0.0,0.0,0.0,0.0,0.0,0.0,0.0,0.0,0.0,0.0,-3.809,-4.1715,-4.3671,-4.5474,-4.7561,-5.0196,-5.1438,-5.2307,-5.2931,-5.2289,-5.2197,-5.3133,-5.2766,-5.2858,-5.3665,-5.3702,-5.4014,-5.4693,-5.64,-5.7629,-5.8309,-5.9575,-6.0382,-6.0713,-6.0382,-6.0382,-6.0731,-6.1208,-6.141,0.0,-6.141,-6.141,-6.141,-6.141,-6.141,0.0,0.0,0.0,0.0,0.0,-6.0401,-6.0346,-5.9869,-5.9501,-5.9134,-5.8657,-5.8006,-5.7353,-5.7004,-5.6367,-5.5625,-5.4791,-5.3764,-5.2954,-5.3308,-5.3481,-5.3743,-5.4615,-5.5488,-5.5751,-5.4454,-5.3269,-5.2324,-5.1861,-5.1472,0.0,-5.0952,-5.1226,-5.1461,-5.1382,-5.064,-5.0086,-5.0086,-4.9664,-4.9481,-4.9811,-4.9554,-4.9169,-4.871,-4.7168,0.0,0.0,0.0,-3.9038,-3.7581,-3.6376,0.0,0.0,0.0,0.0,0.0,0.0,0.0,0.0,-3.0129,-3.1411,0.0,0.0,0.0,0.0,0.0,0.0,0.0,0.0,0.0,0.0,0.0,0.0,0.0,0.0,0.0,0.0,-4.1488,-4.5566,-4.8774,-5.0578,-5.1863,-5.2872,-5.4535,-5.5317,-5.4601,-5.3739,-5.3298,-5.3463,-5.3316,-5.3592,-5.4491,0.0,0.0,0.0,0.0,-5.8859,-6.0401,-6.119,-6.1961,-6.2677,-6.1942,-6.1979,-6.2677,-6.2768,-6.2805,-6.2805,-6.2805,-6.2805,-6.2805,-6.2805,-6.2805,-6.2677,-6.1245,-6.0676,-6.0676,-6.0676,-6.0676,-6.0658,-6.0566,0.0,0.0,-5.9373,-5.8859,-5.8125,-5.7317,-5.6455,-5.5556,-5.4748,-5.3298,-5.2238,-5.3185,-5.3447,-5.3686,-5.4732,-5.5581,-5.5974,-5.5161,-5.3754,-5.2702,-5.2702,-5.2077,-5.1726,-5.2447,-5.2484,-5.2349,-5.2165,-5.1444,-5.0949,-5.0949,-5.0857,-5.1077,-5.1775,0.0,0.0,-5.0674,-4.9224,-4.7315,-4.4984,-4.2415,-4.001,-3.7845,-3.6174,-3.6093,-3.7834,-3.6482,-3.5826,-3.5932,-3.6118,-3.7042,-3.8507,-3.5312,-3.5535,0.0,0.0,0.0,0.0,0.0,0.0,0.0,0.0,0.0,0.0,0.0,0.0,0.0,0.0,0.0,-4.0322,-4.4507,-4.7893,-4.9846,-5.3162,-5.5174,-5.4747,-5.5257,-5.5537,-5.5372,-5.4051,-5.3739,-5.5042,-5.394,-5.383,-5.528,-5.5354,-5.5812,-5.6785,-5.8217,-5.9446,-6.0401,-6.119,-6.1667,-6.1832,0.0,0.0,-6.1851,-6.2511,-6.2805,-6.2805,-6.2805,-6.2805,-6.2805,-6.2805,-6.2805,-6.2787,-6.2475,-6.2346,-6.2346,-6.2346,-6.2346,-6.2254,-6.1594,-6.1263,-6.1025,-6.0382,-6.007,-5.9795,-5.8988,-5.7721,0.0,-5.5574,-5.3739,-5.2325,-5.3818,-5.4246,-5.4717,-5.6215,-5.7235,-5.7691,-5.6823,-5.59,-5.5217,-5.5217,-5.457,-5.4013,-5.4059,-5.3562,-5.3079,-5.3038,-5.2312,-5.1756,-5.1756,-5.1206,-5.0857,-5.1022,-5.0894,-5.0545,-4.9884,-4.8893,-4.7553,-4.5773,-4.2176,-3.9918,-3.9441,-3.7923,-3.7871,-3.9491,-3.9342,-3.9254,-3.9264,-4.0637,-4.1797,-4.2668,-4.0131,-4.0346,0.0,0.0,0.0,0.0,0.0,0.0,0.0,0.0,0.0,0.0,0.0,-3.1906,0.0,0.0,-3.9745,-4.2668,-4.6684,-4.9962,-5.1572,-5.4572,-5.6438,-5.5944,-5.6438,-5.6638,-5.6235,-5.5482,-5.5335,-5.6143,-5.5831,-5.6124,-5.7336,-5.7409,-5.7776,-5.8584,-5.9391,-6.0199,-6.0988,-6.1796,-6.242,-6.2842,-6.2842,-6.2842,-6.286,-6.3264,-6.3209,-6.2842,-6.3264,-6.3447,-6.3447,-6.3447,-6.3447,-6.3411,-6.2989,-6.2805,-6.2805,-6.2805,-6.2805,-6.275,-6.2346,-6.1942,-6.152,-6.1135,-6.0731,-6.0254,-5.9446,-5.8364,-5.7226,-5.6436,-5.4748,-5.3482,-5.4693,-5.5048,-5.5386,-5.6617,-5.7563,-5.8086,-5.7645,-5.6927,-5.6356,-5.6356,-5.5711,-5.4988,-5.4522,-5.4117,-5.3713,-5.3327,-5.2899,-5.2601,-5.2601,-5.2252,-5.2013,-5.2013,-5.2013,-5.1683,-5.0857,-4.9646,-4.8289,-4.6691,-4.3899,-4.2154,-4.1834,-4.0607,-4.0565,-4.1875,-4.1976,-4.2445,-4.3354,-4.4183,-4.5407,-4.6965,-4.5844,-4.5714,0.0,0.0,0.0,0.0,0.0,0.0,0.0,0.0,-2.8577,-2.9816,-3.3032,-3.5969,-3.7179,-4.0053,-4.29,-4.4781,-4.8446,-5.161,-5.3225,-5.5519,-5.6923,-5.6649,-5.7455,-5.7758,-5.7097,-5.7042,-5.7097,-5.7262,-5.7868,-5.8657,-5.963,-5.9685,-6.0052,-6.0841,-6.0878,-6.1263,-6.2071,-6.2732,-6.3484,-6.4328,-6.4328,-6.4328,-6.4328,-6.4163,-6.3796,-6.3337,-6.4035,-6.4328,-6.4328,-6.4328,-6.4237,-6.4016,-6.3337,-6.297,-6.2805,-6.2805,-6.2805,-6.2805,-6.2805,-6.2383,-6.1832,-6.1832,-6.1392,-6.0731,-5.9924,-5.9098,-5.8309,-5.7501,-5.6235,-5.528,-5.6088,-5.629,-5.6455,-5.7116,-5.7758,-5.8198,-5.8033,-5.7483,-5.7042,-5.7042,-5.651,-5.5794,-5.5005,-5.473,-5.4308,-5.3353,-5.3206,-5.3206,-5.3206,-5.3206,-5.3206,-5.3206,-5.3206,-5.2876,-5.2068,-5.0695,-4.9265,-4.785,-4.6341,-4.5202,-4.4681,-4.3637,-4.3508,-4.4472,-4.4672,-4.5493,-4.6943,-4.7293,-4.8444,-5.0358,-5.0562,-5.0209,-2.498,-2.579,0.0,-2.7624,-2.8594,-2.9756,0.0,0.0,-3.2788,-3.4984,-3.7644,-3.9921,-4.1078,-4.3102,-4.526,-4.7193,-4.998,-5.2417,-5.4032,-5.6345,-5.7611,-5.6832,-5.7501,-5.796,-5.7868,-5.7868,-5.8162,-5.8896,-5.9024,-5.974,-6.1245,-6.1318,-6.1704,-6.253,-6.2548,-6.2952,-6.3796,-6.3906,-6.4365,-6.5173,-6.5173,-6.5173,-6.5154,-6.442,-6.4439,-6.5044,-6.5136,-6.5173,-6.5173,-6.5173,-6.4751,-6.409,-6.398,-6.3484,-6.2805,-6.2805,-6.2805,-6.2805,-6.2805,-6.275,-6.2677,-6.2677,-6.2603,-6.2383,-6.1575,-6.0768,-5.996,-5.9171,-5.829,-5.7776,-5.8602,-5.8804,-5.8841,-5.8933,-5.9006,-5.8877,-5.8143,-5.7923,-5.7868,-5.7868,-5.7776,-5.7483,-5.6675,-5.5941,-5.495,-5.3445,-5.3206,-5.3206,-5.3206,-5.3206,-5.3206,-5.3206,-5.3206,-5.2876,-5.2068,-5.1213,-5.0391,-4.9489,-4.8679,-4.8181,-4.7979,-4.6541,-4.6116,-4.6893,-4.7792,-4.8342,-4.8563,-5.0099,-5.0989,-5.1268,-5.1992,-5.1899,-2.7672,0.0,0.0,0.0,-3.2286,-3.3617,-3.4406,-3.5615,-3.7086,-3.9083,-4.144,-4.3343,-4.4249,-4.5693,-4.7294,0.0,-5.114,-5.3261,-5.4858,-5.6767,-5.7703,-5.6914,-5.6271,-5.6271,-5.7207,-5.7721,-5.8529,-5.9813,-6.0346,-6.1098,-6.2236,-6.231,-6.2456,-6.2805,-6.2805,-6.3227,-6.409,-6.4549,-6.5209,-6.5999,-6.6476,-6.6439,-6.5999,-6.565,-6.5687,-6.5999,-6.5999,-6.6256,-6.6659,-6.62,-6.5797,-6.5448,-6.4971,-6.4585,-6.4145,-6.3172,-6.2805,-6.2805,-6.2805,-6.2805,-6.2805,-6.2805,-6.2805,-6.275,-6.2401,-6.2071,-6.1741,-6.141,-6.0731,-6.0162,-6.0511,-6.0254,-5.9905,-5.9905,-5.9557,-5.9116,-5.8786,-5.8327,-5.7997,-5.7997,-5.7997,-5.774,-5.695,-5.6528,-5.5757,-5.4142,-5.35,-5.3206,-5.3206,-5.3206,-5.3206,-5.3206,-5.3206,-5.3059,-5.2776,-5.2449,-5.1996,-5.1302,-5.0951,-5.0563,-5.0045,-4.9325,-4.9122,-4.9491,-4.9898,-5.0417,-5.0991,-5.1732,-5.2345,-5.281,-5.3144,-5.3125,-2.9719,0.0,0.0,-3.3778,-3.5453,-3.6806,-3.7848,-3.8965,-4.0286,-4.2021,-4.3735,-4.513,-4.6003,-4.7126,0.0,-5.0064,-5.2094,-5.4044,-5.5658,-5.7116,-5.7611,-5.6583,-5.5445,-5.5097,-5.6051,-5.6859,-5.8107,-5.9942,-6.1025,-6.1942,-6.2768,-6.2805,-6.2805,-6.2805,-6.3044,-6.3576,-6.442,-6.5228,-6.6035,-6.6843,-6.7412,-6.7375,-6.6824,-6.6824,-6.6714,-6.6512,-6.6733,-6.7155,-6.7632,-6.7063,-6.6696,-6.6439,-6.587,-6.5503,-6.5154,-6.3943,-6.3503,-6.3466,-6.3246,-6.3172,-6.3135,-6.2897,-6.2805,-6.2805,-6.2805,-6.2805,-6.2805,-6.2805,-6.2383,-6.1924,-6.1924,-6.1502,-6.1006,-6.0786,-6.0291,-5.9758,-5.9318,-5.8749,-5.8272,-5.8033,-5.7997,-5.7813,-5.7226,-5.695,-5.6326,-5.4932,-5.4075,-5.3487,-5.3243,-5.3206,-5.3206,-5.3206,-5.3206,-5.3272,-5.3318,-5.3359,-5.3241,-5.2786,-5.2749,-5.2451,-5.1782,-5.1484,-5.1355,-5.1374,-5.1412,-5.1823,-5.2549,-5.281,-5.3348,-5.4128,-5.4128,-5.4258,0.0,0.0,-3.3846,-3.6113,-3.7804,-3.9276,-4.0747,-4.1205,-4.1801,-4.3492,-4.4009,-4.4544,-4.5748,-4.7047,-4.8556,-5.0556,-5.2736,-5.4737,-5.6347,-5.7391,-5.7409,-5.5812,-5.5574,-5.5262,0.0,-5.5188,-5.6657,-5.9079,-6.0694,-6.1942,-6.2768,-6.2805,-6.2805,-6.2805,-6.3613,-6.4439,-6.5264,-6.6054,-6.6861,-6.765,-6.7687,-6.7687,-6.765,-6.765,-6.7228,-6.6531,-6.7302,-6.7669,-6.7687,-6.765,-6.7192,-6.6494,-6.6476,-6.5999,-6.5301,-6.5246,-6.5228,-6.5118,-6.4328,-6.4053,-6.3906,-6.308,-6.2805,-6.2805,-6.2805,-6.2805,-6.2805,-6.2805,-6.2787,-6.2768,-6.2768,-6.2768,-6.2548,-6.1741,-6.1539,-6.1098,-5.9557,-5.9189,-5.8951,-5.8143,-5.7997,-5.7997,-5.796,-5.7317,-5.6528,-5.5684,-5.4908,-5.416,-5.3298,-5.3206,-5.3206,-5.3206,-5.3254,-5.3318,-5.33,-5.3558,-5.3695,-5.3676,-5.3717,-5.3641,-5.3425,-5.2804,-5.234,-5.2088,-5.2284,-5.238,-5.2398,-5.3329,-5.4184,-5.4964,-5.4964,-5.5429,0.0,0.0,-3.618,-3.8413,-4.046,-4.2066,-4.2557,-4.3119,-4.3736,-4.4463,-4.428,-4.4371,-4.5699,-4.6835,-4.8236,-5.0354,-5.2893,-5.5047,-5.628,-5.7326,-5.7593,-5.6528,-5.5445,0.0,0.0,0.0,0.0,-5.8253,-5.9887,-6.1153,-6.1961,-6.2511,-6.2805,-6.2805,-6.3649,-6.4494,-6.5301,-6.6109,-6.6898,-6.7687,-6.7687,-6.7687,-6.7687,-6.7687,-6.754,-6.7302,-6.7577,-6.7687,-6.7687,-6.7687,-6.7522,-6.7283,-6.7283,-6.7118,-6.688,-6.688,-6.688,-6.6696,-6.5356,-6.4549,-6.4035,-6.3759,-6.3282,-6.2805,-6.2805,-6.2805,-6.2805,-6.2805,-6.2805,-6.2805,-6.2805,-6.2805,-6.275,-6.2475,-6.1998,-6.1447,-6.0915,-5.996,-5.9134,-5.8859,-5.8364,-5.7997,-5.7997,-5.7776,-5.7363,-5.6617,-5.4896,-5.3613,-5.3414,-5.3396,-5.3396,-5.3396,-5.3418,-5.3459,-5.3558,-5.3656,-5.3695,-5.3754,-5.3774,-5.3736,-5.3656,-5.3397,-5.3248,-5.3151,-5.323,-5.3289,-5.3347,-5.3626,-5.4221,-5.5001,-5.5001,-5.5466,0.0,-3.6451,-3.843,-4.0375,-4.2151,-4.3504,-4.3775,-4.4215,-4.4529,-4.4241,-4.3355,-4.3031,-4.4314,-4.5184,-4.6663,-4.9559,-5.2456,-5.4821,-5.6121,-5.728,-5.7703,-5.6914,-5.5904,0.0,0.0,0.0,0.0,-5.7042,-5.8639,-6.0015,-6.1117,-6.2218,-6.2805,-6.2805,-6.3925,-6.4787,-6.5301,-6.6384,-6.7173,-6.7687,-6.7687,-6.7687,-6.7687,-6.7687,-6.7687,-6.7687,-6.7687,-6.7687,-6.7687,-6.7687,-6.7687,-6.7687,-6.7687,-6.7687,-6.7687,-6.7687,-6.7687,-6.7504,-6.62,-6.5393,-6.4861,-6.4273,-6.3723,-6.3209,-6.2897,-6.2805,-6.2805,-6.2805,-6.2805,-6.2805,-6.2805,-6.2805,-6.2805,-6.2805,-6.242,-6.1942,-6.1649,-6.0786,-5.9979,-5.9685,-5.9208,-5.8767,-5.8492,-5.8006,-5.7545,-5.7162,-5.5507,-5.4289,-5.4349,-5.4349,-5.4349,-5.4349,-5.4389,-5.4448,-5.4547,-5.4605,-5.4645,-5.4704,-5.4704,-5.4665,-5.4547,-5.4605,-5.4605,-5.4566,-5.4605,-5.4645,-5.4704,-5.4704,-5.5113,-5.5893,-5.5893,-5.6357,-3.7313,-3.9191,-4.0663,-4.21,-4.3014,-4.3724,-4.4418,-4.4553,-4.419,-4.2927,-4.134,-4.06,0.0,0.0,-4.3834,-4.8094,-5.1436,-5.4098,-5.5849,-5.7214,-5.7721,0.0,0.0,0.0,0.0,0.0,0.0,-5.5666,0.0,-5.8694,-6.0309,-6.1942,-6.2805,-6.2805,-6.4439,-6.5319,-6.5319,-6.6898,-6.7687,-6.7687,-6.7687,-6.7687,-6.7687,-6.7687,-6.7687,-6.7687,-6.7687,-6.7687,-6.7687,-6.7687,-6.7687,-6.7687,-6.7687,-6.7687,-6.7687,-6.7687,-6.7687,-6.7577,-6.6824,-6.6531,-6.6256,-6.4714,-6.4182,-6.3998,-6.3191,-6.2952,-6.2934,-6.2897,-6.2879,-6.2879,-6.2823,-6.2805,-6.2805,-6.2805,-6.2805,-6.2603,-6.1832,-6.163,-6.1374,-6.0621,-6.0438,-6.0144,-5.9355,-5.8051,-5.7198,-5.7339,-5.6714,-5.6177,-5.5942,-5.5923,-5.5923,-5.5923,-5.6025,-5.6125,-5.6125,-5.6243,-5.6302,-5.6302,-5.6302,-5.6243,-5.6125,-5.6243,-5.6243,-5.6125,-5.6243,-5.6302,-5.6302,-5.6302,-5.671,-5.7509,-5.7509,-5.7936,-4.0223,-4.2286,-4.3656,-4.4604,-4.4976,-4.5026,-4.4671,-4.413,-4.3339,-4.2159,-3.9771,-3.8259,0.0,0.0,0.0,-4.5558,-5.0022,0.0,-5.5015,-5.682,0.0,0.0,0.0,-5.8272,-5.7464,-5.7189,0.0,0.0,-5.7758,-5.8694,-6.0309,-6.1942,-6.2805,-6.2805,-6.4439,-6.5319,-6.5319,-6.6898,-6.7687,-6.7687,-6.7687,-6.7687,-6.7687,-6.7687,-6.7687,-6.7687,-6.7687,-6.7687,-6.7687,-6.7687,-6.7687,-6.7687,-6.7687,-6.7687,-6.7687,-6.7687,-6.7687,-6.765,-6.7467,-6.699,-6.6421,-6.6017,-6.5485,-6.4952,-6.4732,-6.4677,-6.4549,-6.3943,-6.3759,-6.3613,-6.2989,-6.2805,-6.2805,-6.2805,-6.2805,-6.275,-6.2548,-6.2016,-6.1539,-6.1318,-6.0901,-6.0286,-5.9495,-5.9198,-5.8869,-5.8288,-5.8113,-5.7598,-5.6351,-5.6203,-5.6203,-5.6203,-5.6243,-5.6243,-5.6243,-5.6302,-5.6302,-5.6302,-5.6302,-5.6302,-5.6243,-5.6302,-5.6302,-5.6243,-5.6302,-5.6302,-5.6302,-5.6302,-5.671,-5.7509,-5.7509,-5.7936,-4.1965,-4.391,-4.5094,-4.5179,-4.5466,-4.5331,-4.3893,-4.2997,-4.1899,-3.9978,-3.7467,0.0,0.0,0.0,0.0,0.0,0.0,0.0,-5.3592,-5.5651,-5.7079,0.0,-5.818,0.0,-5.8547,-5.8529,-5.8676,0.0,-5.8731,-5.9079,-6.0346,-6.1942,-6.2805,-6.2805,-6.4439,-6.565,-6.6347,-6.7247,-6.7687,-6.7687,-6.7687,-6.7687,-6.7687,-6.7687,-6.7687,-6.7687,0.0,-6.7687,-6.7687,-6.7687,-6.7687,-6.7687,-6.7687,-6.7687,-6.7687,-6.7687,-6.7687,-6.7687,-6.7687,-6.7393,-6.6971,-6.6604,-6.62,-6.576,-6.5411,-6.5353,-6.5261,-6.4751,-6.4416,-6.4081,-6.3503,-6.3099,-6.2805,-6.2805,-6.2805,-6.2805,-6.2805,-6.2456,-6.2126,-6.2126,-6.1581,-6.1024,-6.0628,-6.0119,-5.9622,-5.9165,-5.8879,-5.8382,-5.7472,-5.736,-5.736,-5.736,-5.736,-5.736,-5.736,-5.736,-5.736,-5.736,-5.736,-5.736,-5.736,-5.736,-5.736,-5.736,-5.736,-5.736,-5.736,-5.736,-5.7602,-5.8029,-5.8029,-5.8271,-4.3149,-4.4688,-4.5551,-4.4891,-4.5145,-4.4959,-4.2658,-4.1356,-3.985,-3.7183,0.0,0.0,-3.5363,0.0,-3.7723,-4.2879,0.0,-5.0067,-5.2036,-5.4135,-5.5684,-5.64,-5.7373,-5.8327,-5.9134,-5.9501,-5.9979,-6.0676,-6.0089,-5.9942,-6.0529,-6.1998,-6.2915,-6.3135,-6.4549,-6.6072,-6.7669,-6.7687,-6.7687,-6.7687,-6.7687,-6.7687,-6.7687,-6.7687,-6.7687,-6.7687,-6.7687,0.0,-6.7687,-6.7687,-6.7687,-6.7687,-6.7687,-6.7687,-6.7687,-6.7687,-6.7687,-6.7687,-6.7687,-6.7687,-6.7577,-6.688,-6.6659,-6.6531,-6.5833,-6.5717,-6.5801,-6.5588,-6.5106,-6.4549,-6.4196,-6.3539,-6.2952,-6.2842,-6.2805,-6.2805,-6.2805,-6.2805,-6.2805,-6.2805,-6.2353,-6.1982,-6.1984,-6.0958,-6.0073,-5.99,-5.9311,-5.8828,-5.8716,-5.8716,-5.8716,-5.8716,-5.8716,-5.8716,-5.8716,-5.8716,-5.8716,-5.8716,-5.8716,-5.8716,-5.8716,-5.8716,-5.8716,-5.8716,-5.8716,-5.8716,-5.8716,-5.8716,-5.8716,-5.8716,-5.8716,-5.8716,-4.4857,-4.55,-4.5669,-4.5551,-4.5145,-4.4181,-4.1914,-3.9411,0.0,0.0,0.0,-2.9776,-3.2142,-3.3611,0.0,-4.1262,0.0,0.0,0.0,0.0,-5.4656,0.0,0.0,0.0,0.0,0.0,0.0,0.0,0.0,-6.1961,-6.141,-6.2291,-6.3447,-6.4824,-6.5154,-6.6072,-6.7669,-6.7687,-6.7687,-6.7687,-6.7687,-6.7687,-6.7687,-6.7687,-6.7687,-6.7687,-6.7687,0.0,-6.7687,-6.7687,-6.7687,-6.7687,-6.7687,-6.7687,-6.7687,-6.7687,-6.7687,-6.7687,-6.7687,-6.7687,-6.7669,-6.7522,-6.7485,-6.7502,-6.7461,-6.7476,-6.7381,-6.6768,-6.6492,-6.5966,-6.4622,-6.4081,-6.3686,-6.2989,-6.2805,-6.2805,-6.2805,-6.2805,-6.2805,-6.2805,-6.291,-6.2741,-6.2123,-6.1974,-6.1459,-6.0128,-5.9794,-5.9459,-5.8791,-5.8716,-5.8716,-5.8716,-5.8716,-5.8716,-5.8716,-5.8716,-5.8716,-5.8716,-5.8716,-5.8716,-5.8716,-5.8716,-5.8716,-5.8716,-5.8716,-5.8716,-5.8716,-5.8716,-5.8716,-5.8716,-5.8716,-5.8716,-4.4807,-4.5399,-4.5517,-4.4722,-4.4304,-4.3189,-3.9714,0.0,0.0,0.0,0.0,-2.7756,-3.0214,0.0,0.0,0.0,0.0,0.0,0.0,0.0,0.0,0.0,0.0,0.0,0.0,0.0,0.0,0.0,0.0,-6.264,-6.2254,-6.2603,-6.3576,-6.5264,-6.5319,-6.6072,-6.7669,-6.7687,-6.7687,-6.7687,-6.7687,-6.7687,-6.7687,-6.7687,-6.7687,-6.7687,-6.7687,0.0,-6.7687,-6.7687,-6.7687,-6.7687,-6.7687,-6.7687,-6.7687,-6.7687,-6.7687,-6.7687,-6.7687,-6.7687,-6.7687,-6.7794,-6.7776,-6.7847,-6.7881,-6.8004,-6.8014,-6.7627,-6.717,-6.6621,-6.5796,-6.4816,-6.398,-6.3576,-6.3135,-6.2805,-6.2904,-6.2904,-6.2904,-6.3002,-6.3165,-6.3178,-6.2808,-6.2538,-6.2134,-6.1336,-6.0463,-5.9775,-5.9385,-5.8977,-5.8716,-5.8716,-5.8716,-5.8716,-5.8716,-5.8716,-5.8716,-5.8716,-5.8716,-5.8716,-5.8716,-5.8716,-5.8716,-5.8716,-5.8716,-5.8716,-5.8716,-5.8716,-5.8716,-5.8716,-5.8716,-5.8716,-4.4367,-4.501,-4.5094,-4.3572,-4.2935,-4.1511,-3.7228,-3.4278,0.0,0.0,0.0,0.0,-2.8241,0.0,0.0,0.0,0.0,0.0,0.0,0.0,0.0,0.0,0.0,0.0,0.0,0.0,0.0,0.0,0.0,0.0,-6.2805,-6.2805,-6.3503,-6.5007,-6.5209,-6.5999,-6.7412,-6.7595,-6.7687,-6.7687,-6.7687,-6.7687,-6.7687,-6.7687,-6.7687,-6.7687,-6.7687,0.0,0.0,-6.7687,-6.7687,-6.7687,-6.7687,-6.7687,-6.7687,-6.7687,-6.7687,-6.7687,-6.7687,-6.7687,-6.7741,-6.7847,-6.7881,-6.7881,-6.7985,-6.8158,-6.8259,-6.819,-6.7677,-6.711,-6.6824,-6.5694,-6.4567,-6.4402,-6.3686,-6.3112,-6.3211,-6.3113,-6.3051,-6.3165,-6.3307,-6.34,-6.34,-6.2992,-6.2617,-6.2432,-6.128,-6.0314,-5.9961,-5.9367,-5.8902,-5.8735,-5.8716,-5.8716,-5.8716,-5.8716,-5.8716,-5.8716,-5.8716,-5.8716,-5.8716,-5.8716,-5.8716,-5.8716,-5.8716,-5.8716,-5.8716,-5.8716,-5.8791,-5.8977,-5.8977,-5.9069,-4.4367,-4.4621,-4.4372,-4.2955,-4.1053,-3.854,-3.4849,0.0,0.0,0.0,-2.3984,-2.3467,-2.5253,0.0,0.0,0.0,0.0,0.0,0.0,0.0,0.0,0.0,0.0,0.0,0.0,0.0,0.0,0.0,0.0,0.0,-6.2805,-6.2805,-6.3246,-6.4182,-6.4916,-6.5723,-6.6604,-6.732,-6.7687,-6.7687,-6.7687,-6.7687,-6.7687,-6.7687,-6.7687,-6.7687,-6.7687,0.0,0.0,-6.7687,-6.7687,-6.7687,-6.7687,-6.7687,-6.7687,-6.7687,-6.7687,-6.7687,-6.7687,-6.7687,-6.7741,-6.7847,-6.7881,-6.7952,-6.8208,-6.8259,-6.8309,-6.8408,-6.8235,-6.7811,-6.7073,-6.6574,-6.6109,-6.5375,-6.4651,-6.4057,-6.4107,-6.3634,-6.3165,-6.3213,-6.3307,-6.34,-6.34,-6.3437,-6.3249,-6.2524,-6.2283,-6.1633,-6.011,-5.985,-5.9515,-5.8791,-5.8716,-5.8716,-5.8716,-5.8716,-5.8716,-5.8716,-5.8716,-5.8716,-5.8716,-5.8716,-5.8716,-5.8716,-5.8716,-5.8716,-5.8716,-5.8716,-5.9088,-5.9794,-5.9794,-6.0221,-4.3555,-4.4215,-4.4169,-4.2309,-4.0169,-3.749,-3.3362,0.0,0.0,-2.4718,-2.3463,-2.3172,-2.4489,0.0,0.0,0.0,0.0,0.0,0.0,0.0,0.0,0.0,0.0,0.0,0.0,0.0,0.0,0.0,0.0,0.0,-6.2805,-6.2805,-6.3209,-6.4053,-6.4402,-6.5191,-6.6494,-6.6824,-6.721,-6.7687,-6.7687,-6.7687,-6.7687,-6.7687,-6.7687,-6.7687,-6.7687,0.0,0.0,-6.7687,-6.7687,-6.7687,-6.7687,-6.7687,-6.7687,-6.7687,-6.7687,-6.7687,-6.7687,-6.7687,-6.7741,-6.7933,-6.8037,-6.8037,-6.8259,-6.8358,-6.8408,-6.8358,-6.824,-6.8014,-6.7598,-6.7001,-6.6292,-6.5588,-6.4793,-6.4217,-6.4413,-6.3862,-6.3354,-6.3419,-6.3465,-6.3511,-6.3511,-6.3557,-6.349,-6.3175,-6.271,-6.2171,-6.1503,-6.0983,-6.0574,-6.024,-5.9311,-5.8716,-5.8716,-5.8716,-5.8716,-5.8716,-5.8716,-5.8716,-5.8716,-5.8716,-5.8716,-5.8716,-5.8716,-5.8716,-5.8716,-5.9199,-5.9608,-5.9924,-6.0444,-6.0871,-4.1982,-4.3166,-4.3423,-4.1325,-3.8942,-3.6085,0.0,0.0,-2.6053,-2.4029,-2.3259,-2.3203,-2.3989,-2.4724,0.0,0.0,0.0,0.0,0.0,0.0,0.0,0.0,0.0,0.0,0.0,0.0,0.0,0.0,0.0,0.0,-6.2805,-6.2805,-6.3099,-6.3704,-6.3961,-6.4751,-6.6127,-6.6384,-6.6898,-6.7687,-6.7687,-6.7687,-6.7687,-6.7687,-6.7687,-6.7687,-6.7687,0.0,0.0,-6.7687,-6.7687,-6.7687,-6.7687,-6.7687,-6.7687,-6.7687,-6.7687,-6.7687,-6.7687,-6.7687,-6.7741,-6.7985,-6.8088,-6.8139,-6.8208,-6.8358,-6.8408,-6.8309,-6.8139,-6.7985,-6.7881,-6.7371,-6.682,-6.6335,-6.5409,-6.4715,-6.4909,-6.4188,-6.3511,-6.3557,-6.3602,-6.3602,-6.3602,-6.3602,-6.3602,-6.3602,-6.3137,-6.2673,-6.2432,-6.1911,-6.1466,-6.1243,-6.0147,-5.9348,-5.9088,-5.9051,-5.8958,-5.8735,-5.8716,-5.8716,-5.8716,-5.8716,-5.8828,-5.9051,-5.9051,-5.9181,-5.9441,-6.0017,-6.0425,-6.0667,-6.128,-6.1689,-3.9546,-4.1221,-4.1831,-3.9825,-3.7047,-3.3884,0.0,-2.7195,-2.462,-2.3198,-2.302,-2.3175,-2.3458,-2.3682,-2.4907,0.0,0.0,0.0,0.0,0.0,0.0,0.0,0.0,0.0,0.0,0.0,0.0,0.0,0.0,0.0,-6.2805,-6.2805,-6.2805,-6.2823,-6.3649,-6.4494,-6.5319,-6.6109,-6.6898,-6.7687,-6.7687,-6.7687,-6.7687,-6.7687,-6.7687,0.0,0.0,0.0,0.0,-6.7687,-6.7687,-6.7687,-6.7687,-6.7687,-6.7687,-6.7687,-6.7687,-6.7687,-6.7687,-6.7687,-6.7741,-6.7847,-6.7985,-6.8088,-6.8088,-6.8208,-6.8309,-6.8309,-6.8107,-6.7881,-6.7741,-6.7776,-6.7863,-6.7863,-6.6814,-6.576,-6.576,-6.4642,-6.3602,-6.3602,-6.3602,-6.3602,-6.3602,-6.3602,-6.3602,-6.3602,-6.3602,-6.3305,-6.2506,-6.2394,-6.2079,-6.1298,-6.1187,-6.0834,-5.998,-5.9905,-5.9552,-5.8754,-5.8716,-5.8716,-5.8716,-5.8716,-5.9069,-5.9887,-5.9905,-6.0314,-6.1168,-6.1187,-6.1596,-6.2376,-6.2394,-6.2822,-3.6434,-3.7818,-3.837,-3.7285,-3.4814,-3.1935,-2.942,-2.6891,-2.4753,-2.3385,-2.3247,-2.3417,-2.3602,-2.3795,-2.4832,-2.7602,0.0,0.0,0.0,0.0,0.0,0.0,0.0,0.0,0.0,0.0,0.0,0.0,0.0,0.0,-6.2805,-6.2805,-6.2805,-6.2805,-6.308,-6.3888,-6.5301,-6.5558,-6.6366,-6.7687,-6.7687,-6.7687,-6.7687,-6.7687,-6.7687,0.0,0.0,0.0,0.0,-6.7687,-6.7687,-6.7687,-6.7687,-6.7687,-6.7687,-6.7687,-6.7687,-6.7687,-6.7687,-6.7687,-6.7741,-6.7847,-6.7933,-6.7985,-6.8088,-6.819,-6.8259,-6.8107,-6.7899,-6.7741,-6.7687,-6.7794,-6.7933,-6.8037,-6.7326,-6.6697,-6.6813,-6.5561,-6.4438,-6.4438,-6.3992,-6.3602,-6.3602,-6.3602,-6.3602,-6.3602,-6.3602,-6.3527,-6.3267,-6.323,-6.3137,-6.2877,-6.284,-6.2041,-6.0072,-5.9905,-5.9571,-5.8754,-5.8716,-5.8958,-5.9515,-5.9534,-5.9924,-6.0778,-6.0797,-6.0927,-6.1206,-6.1763,-6.2432,-6.323,-6.323,-6.3379,0.0,-3.3965,-3.4661,-3.4096,-3.2124,-2.9849,-2.8085,-2.6179,-2.455,-2.3512,-2.3463,-2.3646,-2.3795,-2.3976,-2.4789,-2.6955,0.0,0.0,0.0,0.0,0.0,0.0,0.0,0.0,0.0,0.0,0.0,0.0,0.0,0.0,-6.2805,-6.2805,-6.2805,-6.2805,-6.2805,-6.3466,-6.4842,-6.4861,-6.5503,-6.6788,-6.6788,-6.6788,-6.6788,-6.6788,-6.6788,0.0,0.0,0.0,0.0,-6.7559,-6.7687,-6.7687,-6.7687,-6.7687,-6.7687,-6.7687,-6.7687,-6.7687,-6.7687,-6.7687,-6.7741,-6.7794,-6.7828,-6.7828,-6.7985,-6.8088,-6.8088,-6.7899,-6.7794,-6.7687,-6.7687,-6.7847,-6.7985,-6.8088,-6.7629,-6.7221,-6.725,-6.6258,-6.5199,-6.4865,-6.4419,-6.3973,-6.3657,-6.3602,-6.3602,-6.3602,-6.3602,-6.3602,-6.3602,-6.3602,-6.3602,-6.3602,-6.3602,-6.2859,-6.1001,-6.0853,-6.0518,-5.9701,-5.9645,-5.9887,-6.037,-6.0407,-6.0797,-6.1651,-6.1651,-6.18,-6.2116,-6.2617,-6.3119,-6.3602,-6.3602,-6.3602,0.0,-2.9765,-3.084,-3.0358,-2.911,-2.7667,-2.6502,-2.5177,0.0,-2.3618,-2.3685,-2.3837,-2.3996,-2.4168,-2.4814,0.0,0.0,0.0,0.0,0.0,0.0,0.0,0.0,0.0,0.0,0.0,0.0,0.0,0.0,0.0,-6.2773,-6.2773,-6.2805,-6.2805,-6.2805,-6.3227,-6.409,-6.409,-6.4494,-6.5319,-6.5319,-6.5319,-6.5319,-6.5319,-6.5319,0.0,0.0,0.0,0.0,-6.7302,-6.7632,-6.7687,-6.7687,-6.7687,-6.7687,-6.7687,-6.7687,-6.7687,-6.7687,-6.7687,-6.7687,-6.7687,-6.7687,-6.7741,-6.7847,-6.7881,-6.7828,-6.7741,-6.7687,-6.7687,-6.7687,-6.7881,-6.8088,-6.8088,-6.7735,-6.7391,-6.7391,-6.676,-6.5961,-6.5162,-6.4902,-6.4568,-6.3825,-6.3657,-6.3602,-6.3602,-6.3602,-6.3602,-6.3602,-6.3602,-6.3602,-6.3602,-6.3602,-6.3305,-6.2562,-6.2432,-6.206,-6.1261,-6.1206,-6.1243,-6.128,-6.1298,-6.167,-6.2469,-6.2506,-6.2859,-6.3602,-6.3602,-6.3602,-6.3602,-6.3602,-6.3602,-2.3927,0.0,-2.7348,-2.7774,-2.6825,-2.5725,0.0,0.0,0.0,0.0,0.0,0.0,0.0,0.0,0.0,0.0,0.0,0.0,0.0,0.0,0.0,0.0,0.0,0.0,0.0,0.0,0.0,0.0,0.0,0.0,-6.2654,-6.2654,-6.2705,-6.2823,-6.2805,-6.3227,-6.409,-6.409,-6.4494,-6.5319,-6.5319,-6.5319,-6.5319,-6.5319,-6.5319,0.0,0.0,0.0,-6.6512,-6.6696,-6.7136,-6.7687,-6.7687,-6.7687,-6.7687,-6.7687,-6.7687,-6.7687,-6.7687,-6.7687,-6.7687,-6.7687,-6.7687,-6.7687,-6.7741,-6.7741,-6.7741,-6.7687,-6.7687,-6.7687,-6.7687,-6.7828,-6.7985,-6.8088,-6.8111,-6.808,-6.8178,-6.7595,-6.6964,-6.676,-6.5682,-6.4753,-6.4568,-6.4029,-6.3602,-6.3602,-6.3602,-6.3602,-6.3602,-6.3602,-6.3602,-6.3602,-6.3602,-6.3527,-6.3342,-6.2766,-6.206,-6.1261,-6.1206,-6.1484,-6.2097,-6.2134,-6.2506,-6.3305,-6.3323,-6.3416,-6.3602,-6.3602,-6.3602,-6.3602,-6.3602,-6.3602,-2.2031,-2.3258,-2.4533,-2.4986,-2.45,-2.4009,0.0,0.0,0.0,0.0,0.0,0.0,0.0,0.0,0.0,0.0,0.0,0.0,0.0,0.0,0.0,0.0,0.0,0.0,0.0,0.0,0.0,0.0,0.0,0.0,-6.229,-6.243,-6.2603,-6.2805,-6.2805,-6.3044,-6.3503,-6.3503,-6.3723,-6.4163,-6.4163,-6.4163,-6.4163,-6.4163,-6.4163,0.0,0.0,0.0,-6.543,-6.5797,-6.6219,-6.6641,-6.7008,-6.7136,-6.7173,-6.754,-6.7687,-6.7687,-6.7687,-6.7687,-6.7687,-6.7687,-6.7687,-6.7687,-6.7687,-6.7687,-6.7687,-6.7687,-6.7687,-6.7687,-6.7687,-6.7794,-6.7933,-6.7985,-6.8158,-6.8309,-6.8408,-6.8123,-6.7744,-6.7373,-6.6574,-6.5719,-6.4939,-6.4456,-6.4048,-6.3676,-6.3602,-6.3602,-6.3602,-6.3602,-6.3602,-6.3602,-6.3602,-6.3602,-6.3602,-6.3212,-6.2766,-6.2339,-6.2301,-6.2506,-6.2933,-6.2952,-6.3175,-6.3602,-6.3602,-6.3602,-6.3602,-6.3602,-6.3602,-6.3602,-6.3602,-6.3602,-2.1384,-2.2108,-2.2667,-2.2823,-2.297,-2.311,0.0,0.0,0.0,0.0,0.0,0.0,0.0,0.0,0.0,0.0,0.0,0.0,0.0,0.0,0.0,0.0,0.0,0.0,0.0,0.0,0.0,0.0,0.0,0.0,-6.1625,-6.1932,-6.2321,-6.2705,-6.2723,-6.2723,-6.2723,-6.2773,-6.2805,-6.2805,-6.2805,-6.2805,-6.2805,-6.2805,-6.2805,-6.286,0.0,0.0,-6.4145,-6.4842,-6.5191,-6.5375,-6.6054,-6.6384,-6.6586,-6.7265,-6.7577,-6.7687,-6.7687,-6.7687,-6.7687,-6.7687,-6.7687,-6.7687,-6.7687,-6.7687,-6.7687,-6.7687,-6.7687,-6.7687,-6.7687,-6.7776,-6.7881,-6.7933,-6.8088,-6.8259,-6.8309,-6.8408,-6.832,-6.7633,-6.7391,-6.6852,-6.5441,-6.5088,-6.4772,-6.4085,-6.388,-6.3788,-6.3788,-6.3695,-6.3602,-6.3602,-6.3602,-6.3602,-6.3602,-6.3602,-6.3602,-6.3602,-6.3602,-6.3602,-6.3602,-6.3602,-6.3602,-6.3602,-6.3602,-6.3602,-6.3602,-6.3602,-6.3602,-6.3602,-6.3602,-6.3602,-2.1384,-2.2117,-2.284,-2.346,-2.4143,-2.47,0.0,0.0,0.0,0.0,0.0,0.0,0.0,0.0,0.0,0.0,0.0,0.0,0.0,0.0,0.0,0.0,0.0,0.0,0.0,0.0,0.0,0.0,0.0,0.0,-6.0519,-6.0774,-6.137,-6.2449,-6.2467,-6.2467,-6.2467,-6.2672,-6.2805,-6.2805,-6.2805,-6.2805,-6.2805,-6.2805,-6.2805,-6.2823,0.0,-6.3429,-6.409,-6.4218,-6.4695,-6.5319,-6.5448,-6.5907,-6.6512,-6.6641,-6.7118,-6.7687,-6.7687,-6.7687,-6.7687,-6.7687,-6.7687,-6.7687,-6.7687,-6.7687,-6.7687,-6.7687,-6.7687,-6.7687,-6.7687,-6.7741,-6.7794,-6.8037,-6.8088,-6.819,-6.8408,-6.8475,-6.8468,-6.8357,-6.7781,-6.7224,-6.6964,-6.6351,-6.5868,-6.5738,-6.5106,-6.4642,-6.4642,-6.4029,-6.3602,-6.3602,-6.3602,-6.3602,-6.3602,-6.3602,-6.3602,-6.3602,-6.3602,-6.3602,-6.3602,-6.3602,-6.3602,-6.3602,-6.3602,-6.3602,-6.3602,-6.3602,-6.3602,-6.3602,-6.3602,-6.3602,-2.0618,-2.1539,-2.2488,-2.4074,-2.504,0.0,0.0,0.0,0.0,0.0,0.0,0.0,0.0,0.0,0.0,0.0,0.0,0.0,0.0,0.0,0.0,0.0,0.0,0.0,0.0,0.0,0.0,0.0,0.0,0.0,-5.8822,-5.9594,-6.0275,-6.0953,-6.1368,-6.1602,-6.1602,-6.1696,-6.2059,-6.2552,-6.2552,-6.2603,-6.2705,-6.2705,-6.2705,-6.2805,0.0,-6.3044,-6.3392,-6.3392,-6.3631,-6.4016,-6.4475,-6.4879,-6.5301,-6.6182,-6.7008,-6.7687,-6.7687,-6.7687,-6.7687,-6.7687,-6.7687,-6.7687,-6.7687,-6.7687,-6.7687,-6.7687,-6.7687,-6.7687,-6.7687,-6.7741,-6.7828,-6.7985,-6.8088,-6.8259,-6.8358,-6.8457,-6.8506,-6.8506,-6.8208,-6.7818,-6.7373,-6.7001,-6.6611,-6.6184,-6.5775,-6.5348,-6.4865,-6.4493,-6.4085,-6.3657,-6.3602,-6.3602,-6.3602,-6.3602,-6.3602,-6.3602,-6.3602,-6.3602,-6.3602,-6.3602,-6.3602,-6.3602,-6.3602,-6.3602,-6.3602,-6.3602,-6.3602,-6.3602,-6.3602,-6.3602,-1.9826,-2.0866,-2.2108,0.0,0.0,0.0,0.0,0.0,0.0,0.0,0.0,0.0,0.0,0.0,0.0,0.0,0.0,0.0,0.0,0.0,0.0,0.0,0.0,0.0,0.0,0.0,0.0,0.0,0.0,0.0,-5.7386,-5.8245,-5.9023,-5.9697,-6.0285,-6.0618,-6.0796,-6.0796,-6.1225,-6.2041,-6.2113,-6.2291,-6.243,-6.25,-6.2654,-6.2805,-6.2805,-6.2805,-6.2805,-6.2805,-6.2805,-6.2879,-6.3539,-6.3906,-6.4273,-6.5907,-6.688,-6.7448,-6.7614,-6.7687,-6.7687,-6.7687,-6.7687,-6.7687,-6.7687,-6.7687,-6.7687,-6.7687,-6.7687,-6.7687,-6.7687,-6.7794,-6.7881,-6.7933,-6.8158,-6.8309,-6.8358,-6.8408,-6.8506,-6.8506,-6.8506,-6.832,-6.7707,-6.7595,-6.7373,-6.676,-6.65,-6.6147,-6.5478,-6.5051,-6.4568,-6.3955,-6.3713,-6.3602,-6.3602,-6.3602,-6.3602,-6.3602,-6.3602,-6.3602,-6.3602,-6.3602,-6.3602,-6.3602,-6.3602,-6.3602,-6.3602,-6.3602,-6.3602,-6.3602,-6.3602,-6.3602,-1.9344,-2.0487,-2.197,0.0,0.0,0.0,0.0,0.0,0.0,0.0,0.0,0.0,0.0,0.0,0.0,0.0,0.0,0.0,0.0,0.0,0.0,0.0,0.0,0.0,0.0,0.0,0.0,0.0,0.0,0.0,-5.6449,-5.6701,-5.7628,-5.9359,-5.9466,-5.9838,-6.0547,-6.0547,-6.0711,-6.1015,-6.1394,-6.1712,-6.1951,-6.2273,-6.257,-6.2805,-6.2805,-6.2805,-6.2805,-6.2805,-6.2805,-6.2823,-6.2879,-6.3392,-6.4273,-6.5907,-6.6531,-6.6678,-6.743,-6.7687,-6.7687,-6.7687,-6.7687,-6.7687,-6.7687,-6.7687,-6.7687,-6.7687,-6.7687,-6.7687,-6.7687,-6.7794,-6.7933,-6.8037,-6.8208,-6.8309,-6.8457,-6.8506,-6.8506,-6.8506,-6.8506,-6.8487,-6.8431,-6.8431,-6.8394,-6.8357,-6.7707,-6.7205,-6.7131,-6.5775,-6.4791,-6.4735,-6.4066,-6.3602,-6.3602,-6.3602,-6.3602,-6.3602,-6.3602,-6.3602,-6.3602,-6.3602,-6.3602,-6.3602,-6.3602,-6.3602,-6.3602,-6.3602,-6.3602,-6.3602,-6.3602,-6.3602,-2.0584,-2.116,-2.2074,0.0,0.0,0.0,0.0,0.0,0.0,0.0,0.0,0.0,0.0,0.0,0.0,0.0,0.0,0.0,0.0,0.0,0.0,0.0,0.0,0.0,0.0,0.0,0.0,0.0,0.0,0.0,0.0,-5.572,-5.6286,-5.6986,-5.7945,-5.8589,-5.8868,-5.9338,-5.9613,-5.9726,-6.0626,-6.1257,-6.1656,-6.1896,-6.2167,-6.257,-6.257,-6.257,-6.257,-6.257,-6.257,-6.257,-6.257,-6.3064,-6.3923,-6.502,-6.5751,-6.6299,-6.725,-6.7597,-6.7597,-6.7687,-6.7687,-6.7687,-6.7687,-6.7687,-6.7687,-6.7687,-6.7687,-6.7687,-6.7687,-6.7828,-6.8037,-6.8088,-6.8259,-6.8408,-6.8506,-6.8506,-6.8506,-6.8506,-6.8506,-6.8506,-6.8506,-6.8506,-6.8506,-6.8506,-6.8246,-6.7874,-6.7373,-6.676,-6.5979,-6.4921,-6.3993,-6.3511,-6.3602,-6.3511,-6.3511,-6.3602,-6.3602,-6.3602,-6.3602,-6.3602,-6.3602,-6.3602,-6.3602,-6.3602,-6.3602,-6.3602,-6.3602,-6.3602,-6.3602,-6.3602,-2.1135,-2.1418,-2.2091,0.0,0.0,0.0,0.0,0.0,0.0,0.0,0.0,0.0,0.0,0.0,0.0,0.0,0.0,0.0,0.0,0.0,0.0,0.0,0.0,0.0,0.0,0.0,0.0,0.0,0.0,0.0,0.0,-5.4994,-5.5374,-5.5615,-5.6633,-5.7409,-5.7909,-5.8409,-5.8771,-5.9012,-5.9908,-6.06,-6.1063,-6.1239,-6.1508,-6.1915,-6.1915,-6.1915,-6.1915,-6.1915,-6.1915,-6.1915,-6.1915,-6.2241,-6.2894,-6.3925,-6.4763,-6.5493,-6.679,-6.7341,-6.7414,-6.7633,-6.7687,-6.7687,-6.7687,-6.7687,-6.7687,-6.7687,-6.7687,-6.7687,-6.7687,-6.7899,-6.8037,-6.8088,-6.824,-6.8457,-6.8506,-6.8506,-6.8506,-6.8506,-6.8506,-6.8506,-6.8506,-6.8506,-6.8506,-6.8506,-6.8506,-6.832,-6.7763,-6.7465,-6.6619,-6.493,-6.4151,-6.3725,-6.353,-6.3447,-6.3447,-6.3602,-6.3602,-6.3602,-6.3602,-6.3602,-6.3602,-6.3602,-6.3602,-6.3602,-6.3602,-6.3602,-6.3602,-6.3602,-6.3602,-6.3602,-2.0636,-2.0997,0.0,0.0,0.0,0.0,0.0,0.0,0.0,0.0,0.0,0.0,0.0,0.0,0.0,0.0,0.0,0.0,0.0,0.0,0.0,0.0,0.0,0.0,0.0,0.0,0.0,0.0,0.0,0.0,0.0,-5.4512,-5.4839,-5.5581,-5.5615,-5.634,-5.7874,-5.7892,-5.8271,-5.8995,-5.9149,-5.9534,-6.0019,-6.0317,-6.0651,-6.0897,-6.0897,-6.0897,-6.0897,-6.0897,-6.0897,-6.0897,-6.0897,-6.0897,-6.1093,-6.2699,-6.3471,-6.4045,-6.6039,-6.6928,-6.7248,-6.7561,-6.7687,-6.7687,-6.7687,-6.7687,-6.7687,-6.7687,-6.7687,-6.7687,-6.7687,-6.7794,-6.7933,-6.8088,-6.8208,-6.8309,-6.8457,-6.8524,-6.8524,-6.8524,-6.8506,-6.8506,-6.8506,-6.8506,-6.8506,-6.8506,-6.8506,-6.8506,-6.8524,-6.78,-6.6619,-6.479,-6.4604,-6.4271,-6.3475,-6.34,-6.3447,-6.3602,-6.3602,-6.3602,-6.3602,-6.3602,-6.3602,-6.3602,-6.3602,-6.3602,-6.3602,-6.3602,-6.3602,-6.3602,-6.3602,-6.3602,-2.1927,0.0,0.0,0.0,0.0,0.0,0.0,0.0,0.0,0.0,0.0,0.0,0.0,0.0,0.0,0.0,0.0,0.0,0.0,0.0,0.0,0.0,0.0,0.0,0.0,0.0,0.0,0.0,0.0,0.0,0.0,-5.4512,-5.4615,-5.4822,-5.5339,-5.5839,-5.6288,-5.684,-5.7236,-5.746,-5.8062,-5.8831,-5.9844,-6.0118,-6.0335,-6.059,-6.059,-6.059,-6.059,-6.059,-6.059,-6.059,-6.059,-6.059,-6.0714,-6.1805,-6.2381,-6.2994,-6.4991,-6.592,-6.6407,-6.7396,-6.7687,-6.7687,-6.7687,-6.7687,-6.7687,-6.7687,-6.7687,-6.7687,-6.7687,-6.7741,-6.7776,-6.7933,-6.8037,-6.819,-6.819,-6.8309,-6.8358,-6.8358,-6.8408,-6.8506,-6.8506,-6.8506,-6.8506,-6.8506,-6.8506,-6.8457,-6.8358,-6.7586,-6.6803,-6.6254,-6.5066,-6.4321,-6.4242,-6.364,-6.3354,-6.3575,-6.3511,-6.3511,-6.362,-6.3602,-6.3602,-6.3602,-6.3602,-6.3602,-6.3602,-6.3602,-6.3602,-6.3602,-6.3602,-6.3602,0.0,0.0,0.0,0.0,0.0,0.0,0.0,0.0,0.0,0.0,0.0,0.0,0.0,0.0,0.0,0.0,0.0,0.0,0.0,0.0,0.0,0.0,0.0,0.0,0.0,0.0,0.0,0.0,0.0,0.0,0.0,-5.4512,-5.4512,-5.4512,-5.4943,-5.5322,-5.5615,-5.6081,-5.6477,-5.6805,-5.7253,-5.804,-5.9033,-5.9478,-5.9731,-5.9873,-5.9873,-5.9873,-5.9873,-5.9873,-5.9873,-5.9873,-5.9873,-5.9873,-5.9978,-6.0832,-6.1372,-6.2053,-6.3914,-6.5055,-6.5874,-6.6884,-6.743,-6.7687,-6.7687,-6.7687,-6.7687,-6.7687,-6.7687,-6.7687,-6.7687,-6.7687,-6.7741,-6.7899,-6.7985,-6.8037,-6.8088,-6.8139,-6.8259,-6.8309,-6.8358,-6.8408,-6.8506,-6.8506,-6.8506,-6.8506,-6.8457,-6.8358,-6.8259,-6.7714,-6.7239,-6.6874,-6.5851,-6.4985,-6.4469,-6.397,-6.364,-6.353,-6.3492,-6.3511,-6.362,-6.3557,-6.3557,-6.3602,-6.3602,-6.3602,-6.3602,-6.3602,-6.3602,-6.3602,-6.3602,-6.3602,0.0,0.0,0.0,0.0,0.0,0.0,0.0,0.0,0.0,0.0,0.0,0.0,0.0,0.0,0.0,0.0,0.0,0.0,0.0,0.0,0.0,0.0,0.0,0.0,0.0,0.0,0.0,0.0,0.0,0.0,0.0,-5.4477,-5.4512,-5.4512,-5.4512,-5.4839,-5.5512,-5.5512,-5.5874,-5.6598,-5.6667,-5.7047,-5.7736,-5.8547,-5.8961,-5.9012,-5.9012,-5.9012,-5.9012,-5.9012,-5.9012,-5.9012,-5.9081,-5.9081,-5.9167,-5.9892,-6.0578,-6.1372,-6.2746,-6.4201,-6.5545,-6.6279,-6.699,-6.7595,-6.7669,-6.7687,-6.7687,-6.7687,-6.7687,-6.7687,-6.7687,-6.7687,-6.7741,-6.7828,-6.7881,-6.7933,-6.8037,-6.8088,-6.8139,-6.8259,-6.8259,-6.8309,-6.8457,-6.8457,-6.8457,-6.8457,-6.8358,-6.8208,-6.8088,-6.8088,-6.776,-6.6887,-6.674,-6.6077,-6.4586,-6.4463,-6.4221,-6.3549,-6.3622,-6.3631,-6.3602,-6.3492,-6.3465,-6.362,-6.3602,-6.3602,-6.3602,-6.3602,-6.3602,-6.3602,-6.3602,-6.3602,0.0,0.0,0.0,0.0,0.0,0.0,0.0,0.0,0.0,0.0,0.0,0.0,0.0,0.0,0.0,0.0,0.0,0.0,0.0,0.0,0.0,0.0,0.0,0.0,0.0,0.0,0.0,0.0,0.0,0.0,-5.3649,-5.4201,-5.4512,-5.4512,-5.4512,-5.4581,-5.4753,-5.4753,-5.4822,0.0,-5.5598,-5.5943,-5.615,-5.7512,-5.8461,-5.9012,-5.9012,-5.9012,-5.9012,-5.9012,-5.9081,-5.9234,-5.9436,-5.9551,-5.9683,-6.0006,-6.0445,-6.1077,-6.2385,-6.3264,-6.4166,-6.5913,-6.6623,-6.688,-6.7504,-6.7687,-6.7687,-6.7687,-6.7687,-6.7687,-6.7687,-6.7687,-6.7687,-6.7741,-6.7741,-6.7741,-6.7794,-6.7881,-6.7933,-6.7985,-6.8088,-6.8139,-6.819,-6.819,-6.819,-6.819,-6.8088,-6.8004,-6.7933,-6.7828,-6.772,-6.7502,-6.6914,-6.6452,-6.6187,-6.558,-6.5011,-6.4372,-6.4251,-6.402,-6.3639,-6.3557,-6.3557,-6.3602,-6.3602,-6.3602,-6.3602,-6.3602,-6.3602,-6.3602,-6.3602,-6.3602,0.0,0.0,0.0,0.0,0.0,0.0,0.0,0.0,0.0,0.0,0.0,0.0,0.0,0.0,0.0,0.0,0.0,0.0,0.0,0.0,0.0,0.0,0.0,0.0,0.0,0.0,0.0,0.0,0.0,-5.3408,-5.3408,-5.4098,-5.4512,-5.4512,-5.4512,-5.4512,-5.4512,-5.4512,-5.4512,-5.4512,-5.4908,-5.527,-5.565,-5.684,-5.7788,-5.8478,-5.8478,-5.8685,-5.9012,-5.9012,-5.9166,-5.9436,-5.9683,-5.9908,-6.0146,-6.0379,-6.0765,-6.1252,-6.205,-6.2857,-6.3674,-6.494,-6.587,-6.6586,-6.699,-6.7375,-6.7687,-6.7687,-6.7687,-6.7687,-6.7687,-6.7687,-6.7687,-6.7687,-6.7687,-6.7687,-6.7687,-6.7741,-6.7828,-6.7881,-6.7933,-6.8037,-6.8088,-6.8088,-6.8088,-6.8037,-6.7933,-6.7881,-6.7828,-6.7741,-6.7687,-6.7687,-6.7302,-6.6969,-6.6636,-6.6367,-6.5859,-6.5175,-6.4798,-6.4485,-6.4215,-6.4178,-6.401,-6.362,-6.3602,-6.3602,-6.3602,-6.3602,-6.3602,-6.3602,-6.3602,-6.3602,0.0,0.0,0.0,0.0,0.0,0.0,0.0,0.0,0.0,0.0,0.0,0.0,0.0,0.0,0.0,0.0,0.0,0.0,0.0,0.0,0.0,0.0,0.0,0.0,0.0,0.0,0.0,0.0,0.0,-5.3011,-5.3011,-5.3701,-5.4115,-5.4115,-5.4253,-5.4322,-5.4322,-5.4443,-5.4512,-5.4512,-5.4512,-5.4822,-5.5443,-5.6098,-5.6874,-5.7719,-5.784,-5.8254,-5.8908,-5.9029,-5.9351,-5.9748,-6.0019,-6.0379,-6.0686,-6.0992,-6.1318,-6.1674,-6.1915,-6.2639,-6.3523,-6.3965,-6.5081,-6.6329,-6.6457,-6.7063,-6.7687,-6.7687,-6.7687,-6.7687,-6.7687,-6.7687,-6.7687,-6.7687,-6.7687,-6.7687,-6.7687,-6.7687,-6.7741,-6.7828,-6.7899,-6.7881,-6.8037,-6.8037,-6.7985,-6.7881,-6.7899,-6.7847,-6.7741,-6.7687,-6.7687,-6.7687,-6.7687,-6.7412,-6.6822,-6.6957,-6.6759,-6.6014,-6.5485,-6.5134,-6.5051,-6.5032,-6.4716,-6.4048,-6.4048,-6.3973,-6.3825,-6.3825,-6.375,-6.3602,-6.3602,-6.3602,0.0,0.0,0.0,0.0,0.0,0.0,0.0,0.0,0.0,0.0,0.0,0.0,0.0,0.0,0.0,0.0,0.0,0.0,0.0,0.0,0.0,0.0,0.0,0.0,0.0,0.0,0.0,0.0,-5.0994,-5.1425,-5.1425,-5.2132,-5.2528,-5.2528,-5.3184,-5.3546,-5.3546,-5.4184,-5.4512,-5.4512,-5.4512,-5.4563,-5.4667,-5.477,-5.5598,-5.6978,-5.7633,-5.8028,-5.8401,-5.9175,-5.9814,-6.0244,-6.0722,-6.1063,-6.143,-6.173,-6.1969,-6.2132,-6.2291,-6.2522,-6.2878,-6.3782,-6.4714,-6.5595,-6.6292,-6.7063,-6.7687,-6.7687,-6.7687,-6.7687,-6.7687,-6.7687,-6.7687,-6.7687,-6.7687,-6.7687,-6.7687,-6.7687,-6.7687,-6.7741,-6.7741,-6.7741,-6.7741,-6.7741,-6.7741,-6.7741,-6.7741,-6.7741,-6.7687,-6.7687,-6.7687,-6.7687,-6.7687,-6.7686,-6.7734,-6.7734,-6.7539,-6.6945,-6.6846,-6.6523,-6.5961,-6.5942,-6.5887,-6.5775,-6.5775,-6.5404,-6.4661,-6.4661,-6.4289,-6.3602,-6.3602,-6.3602,0.0,0.0,0.0,0.0,0.0,0.0,0.0,0.0,0.0,0.0,0.0,0.0,0.0,0.0,0.0,0.0,0.0,0.0,0.0,0.0,0.0,0.0,0.0,0.0,0.0,0.0,0.0,0.0,-5.0683,-5.1114,-5.1114,-5.1821,-5.2218,-5.2218,-5.2994,-5.3408,-5.3408,-5.4132,-5.4512,-5.4512,-5.4512,-5.4512,-5.4512,-5.4512,-5.5115,-5.615,-5.6477,-5.723,-5.8372,-5.8963,-5.9777,-6.0722,-6.1279,-6.1694,-6.2005,-6.2344,-6.25,-6.2552,-6.2603,-6.2654,-6.276,-6.3246,-6.4255,-6.5375,-6.5723,-6.6696,-6.7687,-6.7687,-6.7687,-6.7687,-6.7687,-6.7687,-6.7687,-6.7687,-6.7687,-6.7687,-6.7687,-6.7687,-6.7687,-6.7687,-6.7687,-6.7687,-6.7687,-6.7687,-6.7687,-6.7687,-6.7687,-6.7687,-6.7687,-6.7687,-6.7687,-6.7687,-6.7687,-6.7741,-6.7881,-6.7985,-6.7941,-6.7809,-6.7413,-6.7102,-6.6797,-6.6778,-6.6778,-6.6778,-6.6332,-6.5924,-6.5534,-6.5051,-6.4642,-6.427,-6.3825,-6.3602,0.0,0.0,0.0,0.0,0.0,0.0,0.0,0.0,0.0,0.0,0.0,0.0,0.0,0.0,0.0,0.0,0.0,0.0,0.0,0.0,0.0,0.0,0.0,0.0,0.0,0.0,0.0,0.0,-5.0528,-5.0838,-5.0838,-5.1356,-5.1666,-5.1666,-5.2408,-5.2822,-5.2822,-5.3753,-5.4322,-5.4512,-5.4512,-5.4512,-5.4512,-5.4512,-5.4805,-5.5339,-5.5529,-5.6448,-5.791,-5.8675,-5.9663,-6.0795,-6.1622,-6.2113,-6.2362,-6.2654,-6.2755,-6.2755,-6.2823,-6.2805,-6.2805,-6.2805,-6.3815,-6.5044,-6.5246,-6.6274,-6.743,-6.7632,-6.7687,-6.7687,-6.7687,-6.7687,-6.7687,-6.7687,-6.7687,-6.7687,-6.7687,-6.7687,-6.7687,-6.7687,-6.7687,-6.7687,-6.7687,-6.7687,-6.7687,-6.7687,-6.7687,-6.7687,-6.7687,-6.7687,-6.7687,-6.7687,-6.7687,-6.7794,-6.7933,-6.8037,-6.819,-6.8358,-6.79,-6.7614,-6.7614,-6.7614,-6.7614,-6.7614,-6.7038,-6.6611,-6.6407,-6.5552,-6.5032,-6.4791,-6.3973,-6.3602,0.0,0.0,0.0,0.0,0.0,0.0,0.0,0.0,0.0,0.0,0.0,0.0,0.0,0.0,0.0,0.0,0.0,0.0,0.0,0.0,0.0,0.0,0.0,0.0,0.0,0.0,0.0,0.0,-5.0045,-5.0062,-5.0062,-5.0097,-5.0114,-5.0114,-5.0838,-5.1235,-5.1235,-5.2718,-5.3822,-5.4512,-5.4512,-5.4512,-5.4512,-5.4512,-5.4529,-5.4615,-5.5305,-5.5877,-5.6464,-5.8396,-5.9501,-6.0063,-6.1441,-6.2078,-6.2238,-6.25,-6.2603,-6.2654,-6.2755,-6.2805,-6.2805,-6.2805,-6.3429,-6.4292,-6.5081,-6.5888,-6.6714,-6.7485,-6.7687,-6.7687,-6.7687,-6.7687,-6.7687,-6.7687,-6.7687,-6.7687,-6.7687,-6.7687,-6.7687,-6.7687,-6.7687,-6.7687,-6.7687,-6.7687,-6.7687,-6.7687,-6.7687,-6.7687,-6.7687,-6.7687,-6.7687,-6.7687,-6.7687,-6.7794,-6.8088,-6.8088,-6.819,-6.8457,-6.8468,-6.845,-6.845,-6.845,-6.845,-6.845,-6.8413,-6.8004,-6.7243,-6.6444,-6.5626,-6.4791,-6.3973,-6.3602,0.0,0.0,0.0,0.0,0.0,0.0,0.0,0.0,0.0,0.0,0.0,0.0,0.0,0.0,0.0,0.0,0.0,0.0,0.0,0.0,0.0,0.0,0.0,0.0,0.0,0.0,0.0,0.0,0.0,-5.0011,-5.0011,-5.0011,-5.0011,-5.0011,-5.0735,-5.1597,-5.258,-5.3132,-5.377,-5.4512,-5.4512,-5.4512,-5.4512,-5.4512,-5.4512,-5.4529,-5.4787,-5.5375,-5.6255,-5.7132,-5.8348,-5.9645,-6.0343,-6.1058,-6.1786,-6.2023,-6.2273,-6.25,-6.2705,-6.2805,-6.2805,-6.2805,-6.3392,-6.4145,-6.4439,-6.5448,-6.6549,-6.6843,-6.7283,-6.7687,-6.7687,-6.7687,-6.7687,-6.7687,-6.7687,-6.7687,-6.7687,-6.7687,-6.7687,-6.7687,-6.7687,-6.7687,-6.7687,-6.7687,-6.7687,-6.7687,-6.7687,-6.7687,-6.7687,-6.7687,-6.7687,-6.7687,-6.7794,-6.7881,-6.8088,-6.819,-6.8309,-6.8506,-6.8506,-6.8506,-6.8506,-6.8506,-6.8506,-6.8506,-6.8506,-6.8376,-6.8078,-6.6646,-6.5848,-6.5608,-6.4142,-6.3511,0.0,0.0,0.0,0.0,0.0,0.0,0.0,0.0,0.0,0.0,0.0,0.0,0.0,0.0,0.0,0.0,0.0,0.0,0.0,0.0,0.0,0.0,0.0,0.0,0.0,0.0,0.0,0.0,0.0,0.0,-5.0011,-5.0011,-5.0011,-5.0011,-5.0493,-5.1356,-5.2632,-5.2632,-5.3132,-5.4132,-5.4132,-5.427,-5.4512,-5.4512,-5.4512,-5.4512,-5.4512,-5.4994,-5.5792,-5.6309,-5.7455,-5.8895,-5.9467,-6.0349,-6.1315,-6.1638,-6.1933,-6.2238,-6.2603,-6.2705,-6.2755,-6.2773,-6.3191,-6.3723,-6.3998,-6.5044,-6.6145,-6.6421,-6.7063,-6.7687,-6.7687,-6.7687,-6.7687,-6.7687,-6.7687,-6.7687,-6.7687,-6.7687,-6.7687,-6.7687,-6.7687,-6.7687,-6.7687,-6.7687,-6.7687,-6.7687,-6.7687,-6.7687,-6.7687,-6.7687,-6.7741,-6.7794,-6.7847,-6.7985,-6.8139,-6.8259,-6.8358,-6.8506,-6.8506,-6.8506,-6.8506,-6.8506,-6.8506,-6.8506,-6.8457,-6.8457,-6.8506,-6.6794,-6.5997,-6.6072,-6.429,-6.3492,0.0,0.0,0.0,0.0,0.0,0.0,0.0,0.0,0.0,0.0,0.0,0.0,0.0,0.0,0.0,0.0,0.0,0.0,0.0,0.0,0.0,0.0,0.0,0.0,0.0,0.0,0.0,0.0,-5.0011,-5.0011,-5.0011,-5.0011,-5.0011,-5.0011,-5.0011,-5.0355,-5.1097,-5.1114,-5.1873,-5.3408,-5.3408,-5.3787,-5.4512,-5.4512,-5.4512,-5.4512,-5.4512,-5.4637,-5.4894,-5.5898,-5.6913,-5.7886,-5.8931,-5.9891,-6.08,-6.1257,-6.1544,-6.1768,-6.2378,-6.2603,-6.2603,-6.2755,-6.2805,-6.297,-6.3796,-6.464,-6.5466,-6.6237,-6.7063,-6.7687,-6.7687,-6.7687,-6.7687,-6.7687,-6.7687,-6.7687,-6.7687,-6.7687,-6.7687,-6.7687,-6.7687,-6.7687,-6.7687,-6.7687,-6.7687,-6.7687,-6.7687,-6.7687,-6.7687,-6.7687,-6.7741,-6.7881,-6.7881,-6.7985,-6.8259,-6.8309,-6.8358,-6.8506,-6.8506,-6.8506,-6.8506,-6.8506,-6.8506,-6.8506,-6.8389,-6.834,-6.8506,-6.689,-6.6109,-6.6072,-6.4382,-6.3602,-1.8999,0.0,0.0,0.0,0.0,0.0,0.0,0.0,0.0,0.0,0.0,0.0,0.0,0.0,0.0,0.0,0.0,0.0,0.0,0.0,0.0,0.0,0.0,0.0,0.0,0.0,0.0,0.0,-5.0011,-5.0011,-5.0011,-5.0011,-5.0011,-5.0011,-5.0011,-5.0355,-5.1097,-5.1114,-5.1873,-5.3408,-5.3408,-5.3787,-5.4512,-5.4512,-5.4575,-5.4717,-5.4824,-5.493,-5.5113,-5.5015,-5.5837,-5.7131,-5.7387,-5.8514,-6.0008,-6.0272,-6.0765,-6.1297,-6.1897,-6.2255,-6.25,-6.2705,-6.2805,-6.286,-6.3099,-6.4163,-6.5356,-6.5576,-6.6623,-6.7687,-6.7687,-6.7687,-6.7687,-6.7687,-6.7687,-6.7687,-6.7687,-6.7687,-6.7687,-6.7687,-6.7687,-6.7687,-6.7687,-6.7687,-6.7687,-6.7687,-6.7687,-6.7687,-6.7687,-6.7687,-6.7741,-6.7881,-6.7985,-6.8088,-6.8259,-6.8408,-6.8457,-6.8524,-6.8506,-6.8506,-6.8506,-6.8506,-6.8506,-6.8506,-6.8457,-6.8457,-6.8506,-6.6679,-6.5901,-6.6072,-6.4382,-6.3602,0.0,0.0,0.0,0.0,0.0,0.0,0.0,0.0,0.0,0.0,0.0,0.0,0.0,0.0,0.0,0.0,0.0,0.0,0.0,0.0,0.0,0.0,0.0,0.0,0.0,-4.8596,-4.9045,-4.9045,-4.9338,-4.9666,-4.9993,-5.0011,-5.0011,-5.0011,-5.0011,-5.0218,-5.0649,-5.0649,-5.1252,-5.2442,-5.2442,-5.3011,-5.4046,-5.4046,-5.4344,-5.4886,-5.5096,-5.5301,-5.5478,-5.5343,-5.6047,-5.7242,-5.7242,-5.8293,-5.9943,-6.0227,-6.0661,-6.1216,-6.1823,-6.2167,-6.2467,-6.2705,-6.2805,-6.2805,-6.2805,-6.398,-6.5319,-6.5319,-6.6457,-6.7687,-6.7687,-6.7687,-6.7687,-6.7687,-6.7687,-6.7687,-6.7687,-6.7687,-6.7687,-6.7687,-6.7687,-6.7687,-6.7687,-6.7687,-6.7687,-6.7687,-6.7687,-6.7687,-6.7687,-6.7687,-6.7794,-6.7985,-6.8037,-6.819,-6.8358,-6.8457,-6.8506,-6.8506,-6.8506,-6.8506,-6.8506,-6.8506,-6.8506,-6.8506,-6.8457,-6.8074,-6.7369,-6.6345,-6.5597,-6.5032,-6.4066,-6.3602,-2.0498,-2.0463,0.0,0.0,0.0,0.0,-2.222,-2.3781,0.0,0.0,0.0,0.0,0.0,0.0,0.0,0.0,0.0,0.0,0.0,0.0,0.0,0.0,0.0,0.0,-4.6613,-4.7286,-4.7717,-4.7717,-4.8407,-4.9166,-4.9959,-5.0011,-5.0011,-4.9993,-5.0068,-5.0051,-5.0051,-5.0051,-5.0431,-5.1097,-5.1114,-5.1925,-5.3408,-5.3408,-5.3991,-5.4992,-5.5301,-5.5636,-5.594,-5.6239,-5.6905,-5.7789,-5.7789,-5.8765,-6.0291,-6.0598,-6.0968,-6.1426,-6.1969,-6.2257,-6.2467,-6.2705,-6.2805,-6.2805,-6.2805,-6.3925,-6.5209,-6.5393,-6.6457,-6.7577,-6.7669,-6.7687,-6.7687,-6.7687,-6.7687,-6.7687,-6.7687,-6.7687,-6.7687,-6.7687,-6.7687,-6.7687,-6.7687,-6.7687,-6.7687,-6.7687,-6.7687,-6.7687,-6.7687,-6.7687,-6.7776,-6.8088,-6.8088,-6.819,-6.8457,-6.8506,-6.8506,-6.8506,-6.8506,-6.8506,-6.8506,-6.8506,-6.8506,-6.8506,-6.8284,-6.7401,-6.5827,-6.6025,-6.5255,-6.3602,-6.3602,-6.3602,-2.1194,-2.0877,-2.0549,-2.1211,0.0,0.0,-2.1608,-2.2988,0.0,0.0,0.0,0.0,0.0,0.0,0.0,0.0,0.0,0.0,0.0,0.0,0.0,0.0,0.0,0.0,-4.6613,-4.7286,-4.7717,-4.7717,-4.8407,-4.9166,-4.9959,-5.0011,-5.0051,-5.0149,-5.0246,-5.0302,-5.0302,-5.0302,-5.0627,-5.1256,-5.1156,-5.1925,-5.3408,-5.3408,-5.3991,-5.5053,-5.5437,-5.5861,-5.6179,-5.6582,-5.6992,-5.7477,-5.7477,-5.8419,-5.9811,-5.9888,-6.055,-6.1505,-6.186,-6.2167,-6.2467,-6.2705,-6.2805,-6.2805,-6.2805,-6.3521,-6.4604,-6.5907,-6.6494,-6.688,-6.7522,-6.7687,-6.7687,-6.7687,-6.7687,-6.7687,-6.7687,-6.7687,-6.7687,-6.7687,-6.7687,-6.7687,-6.7687,-6.7687,-6.7687,-6.7687,-6.7687,-6.7687,-6.7687,-6.7687,-6.7776,-6.8088,-6.8088,-6.819,-6.8457,-6.8506,-6.8506,-6.8506,-6.8506,-6.8506,-6.8506,-6.8506,-6.8506,-6.8506,-6.7826,-6.7028,-6.6044,-6.6109,-6.5255,-6.3602,-6.3602,-6.3602,-2.3195,-2.2712,-2.21,-2.216,0.0,0.0,0.0,0.0,0.0,0.0,0.0,0.0,0.0,0.0,0.0,0.0,0.0,0.0,0.0,0.0,0.0,0.0,0.0,0.0,-4.4889,-4.5561,-4.632,-4.7096,-4.751,-4.8062,-4.8821,-4.8855,-4.9141,-4.9729,-4.9916,-5.0255,-5.0694,-5.0657,-5.0739,-5.0954,-5.0662,-5.1166,-5.227,-5.2649,-5.3385,-5.4417,-5.5203,-5.5729,-5.6088,-5.6438,-5.6761,-5.7119,-5.7603,-5.8788,-6.017,-6.0226,-6.0916,-6.1896,-6.206,-6.2273,-6.2552,-6.2705,-6.2805,-6.2805,-6.2805,-6.3411,-6.4439,-6.6054,-6.6494,-6.6678,-6.7485,-6.7687,-6.7687,-6.7687,-6.7687,-6.7687,-6.7687,-6.7687,-6.7687,-6.7687,-6.7687,-6.7687,-6.7687,-6.7687,-6.7687,-6.7687,-6.7687,-6.7687,-6.7687,-6.7687,-6.7776,-6.8088,-6.8088,-6.819,-6.8457,-6.8457,-6.8408,-6.8408,-6.8358,-6.8358,-6.8408,-6.8408,-6.8222,-6.793,-6.7521,-6.6704,-6.5459,-6.5459,-6.4828,-6.3602,-6.3602,-6.3602,0.0,0.0,0.0,0.0,0.0,-2.1815,0.0,0.0,0.0,0.0,0.0,0.0,0.0,0.0,0.0,0.0,0.0,0.0,0.0,0.0,0.0,0.0,0.0,0.0,0.0,-4.3182,-4.4268,-4.5837,-4.6079,-4.6562,-4.7458,-4.7631,-4.8173,-4.9266,-4.9538,-5.0101,-5.1052,-5.0964,-5.0857,-5.0694,-5.0359,-5.0547,-5.1308,-5.2052,-5.2917,-5.3962,-5.501,-5.5578,-5.5883,-5.6128,-5.6348,-5.6689,-5.7618,-5.8986,-6.0521,-6.0681,-6.1386,-6.2344,-6.2467,-6.257,-6.2654,-6.2755,-6.2805,-6.2805,-6.2805,-6.3301,-6.4163,-6.5613,-6.6035,-6.6256,-6.721,-6.7467,-6.7504,-6.765,-6.7687,-6.7687,-6.7687,-6.7687,-6.7687,-6.7687,-6.7687,-6.7687,-6.7687,-6.7687,-6.7687,-6.7687,-6.7687,-6.7687,-6.7687,-6.7687,-6.7776,-6.8037,-6.8088,-6.819,-6.8408,-6.8358,-6.8309,-6.8259,-6.8139,-6.8139,-6.8309,-6.8309,-6.7988,-6.7317,-6.7168,-6.6332,-6.4809,-6.4661,-6.4252,-6.3602,-6.3602,-6.3602,0.0,0.0,0.0,0.0,-2.3116,0.0,0.0,0.0,0.0,0.0,0.0,0.0,0.0,0.0,0.0,0.0,0.0,0.0,0.0,0.0,0.0,0.0,0.0,0.0,0.0,-4.0802,-4.1905,-4.3491,-4.4165,-4.5182,-4.6648,-4.7355,-4.8173,-4.9266,-4.9679,-5.0294,-5.1281,-5.1367,-5.1349,-5.1105,-5.0857,-5.1132,-5.192,-5.2656,-5.3427,-5.4291,-5.5278,-5.5689,-5.5764,-5.5901,-5.5996,-5.6219,-5.6969,-5.841,-6.0085,-6.0335,-6.1404,-6.2705,-6.2773,-6.2755,-6.2755,-6.2823,-6.2805,-6.2805,-6.2805,-6.2879,-6.3154,-6.409,-6.4365,-6.4714,-6.6237,-6.6641,-6.6824,-6.7522,-6.7687,-6.7687,-6.7687,-6.7687,-6.7687,-6.7687,-6.7687,-6.7687,-6.7687,-6.7687,-6.7687,-6.7687,-6.7687,-6.7687,-6.7687,-6.7687,-6.7741,-6.7881,-6.8037,-6.8088,-6.8139,-6.8259,-6.8259,-6.8139,-6.8088,-6.8139,-6.8309,-6.8408,-6.8086,-6.7335,-6.6611,-6.5775,-6.4809,-6.4085,-6.3695,-6.3602,-6.3602,-6.3602,0.0,0.0,0.0,0.0,0.0,0.0,-2.2712,0.0,-2.2712,0.0,0.0,0.0,0.0,0.0,0.0,0.0,0.0,0.0,0.0,0.0,0.0,0.0,0.0,0.0,0.0,0.0,0.0,0.0,-4.144,-4.2492,-4.4509,-4.532,-4.6636,-4.8535,-4.8942,-4.9835,-5.1418,-5.1503,-5.1569,-5.1551,-5.1365,-5.1669,-5.2502,-5.3211,-5.3991,-5.4677,-5.5243,-5.5478,-5.5396,-5.5156,-5.5217,-5.5496,-5.5943,-5.7568,-5.9683,-6.004,-6.1181,-6.257,-6.257,-6.257,-6.257,-6.2654,-6.2755,-6.2805,-6.2805,-6.2805,-6.2989,-6.3851,-6.409,-6.4457,-6.6072,-6.6494,-6.6696,-6.7504,-6.7687,-6.7687,-6.7687,-6.7687,-6.7687,-6.7687,-6.7687,-6.7687,-6.7687,-6.7687,-6.7687,-6.7687,-6.7687,-6.7687,-6.7687,-6.7687,-6.7741,-6.7881,-6.751,-6.7336,-6.7387,-6.698,-6.6653,-6.6602,-6.6635,-6.6753,-6.6803,-6.7017,-6.6722,-6.5887,-6.5534,-6.4958,-6.4103,-6.3769,-6.3602,-6.3602,-6.3602,-6.3602,-2.8097,0.0,0.0,0.0,0.0,0.0,0.0,0.0,0.0,0.0,0.0,0.0,0.0,0.0,0.0,0.0,0.0,0.0,0.0,0.0,0.0,0.0,0.0,0.0,0.0,0.0,0.0,0.0,0.0,-3.9784,-4.2144,-4.342,-4.5251,-4.7823,-4.838,-4.9584,-5.1571,-5.1754,-5.1884,-5.1964,-5.1866,-5.2211,-5.3032,-5.3821,-5.4506,-5.508,-5.5511,-5.5519,-5.5378,-5.4913,-5.493,-5.5174,-5.5378,-5.6812,-5.8789,-5.9399,-6.0518,-6.1751,-6.1897,-6.2095,-6.2273,-6.25,-6.2654,-6.2805,-6.2805,-6.2805,-6.2934,-6.3576,-6.3741,-6.4071,-6.5485,-6.5833,-6.609,-6.7118,-6.7357,-6.7412,-6.7632,-6.7687,-6.7687,-6.7687,-6.7687,-6.7687,-6.7687,-6.7687,-6.7687,-6.7687,-6.7687,-6.7687,-6.7687,-6.7687,-6.7741,-6.7828,-6.7181,-6.6736,-6.6787,-6.6017,-6.5506,-6.5455,-6.5607,-6.5688,-6.5688,-6.5949,-6.5701,-6.4828,-6.4809,-6.4419,-6.3602,-6.3602,-6.3602,-6.3602,-6.3602,-6.3602,0.0,0.0,0.0,-2.3241,0.0,0.0,0.0,0.0,-2.2056,0.0,0.0,0.0,0.0,0.0,0.0,0.0,0.0,0.0,0.0,0.0,0.0,0.0,0.0,0.0,0.0,0.0,0.0,0.0,0.0,0.0,-3.9898,-4.2258,-4.4733,-4.7345,-4.8502,-5.0,-5.1889,-5.2132,-5.2322,-5.2498,-5.2397,-5.2777,-5.3603,-5.4418,-5.5085,-5.5592,-5.6081,-5.6108,-5.5861,-5.5572,-5.549,-5.5507,-5.5666,-5.6241,-5.7152,-5.8232,-5.917,-5.9956,-6.0706,-6.1397,-6.1969,-6.2291,-6.2552,-6.2805,-6.2805,-6.2805,-6.2823,-6.2842,-6.286,-6.3062,-6.3943,-6.4163,-6.4567,-6.6164,-6.6531,-6.6751,-6.7522,-6.7687,-6.7687,-6.7687,-6.7687,-6.7687,-6.7687,-6.7687,-6.7687,-6.7687,-6.7687,-6.7687,-6.7687,-6.7687,-6.7687,-6.7687,-6.7111,-6.6651,-6.6494,-6.5915,-6.5455,-6.5301,-6.5538,-6.5688,-6.5688,-6.5949,-6.5701,-6.4828,-6.4809,-6.4419,-6.3602,-6.3602,-6.3602,-6.3602,-6.3602,-6.3602,0.0,0.0,-2.7091,-2.5887,0.0,0.0,0.0,0.0,0.0,0.0,0.0,0.0,0.0,0.0,0.0,0.0,0.0,0.0,0.0,0.0,0.0,0.0,0.0,0.0,0.0,0.0,0.0,0.0,-3.1524,0.0,0.0,-4.0167,-4.2914,-4.5905,-4.7565,-4.9276,-5.1144,-5.1445,-5.1946,-5.269,-5.2868,-5.3332,-5.418,-5.4966,-5.5678,-5.6291,-5.6638,-5.6704,-5.651,-5.6184,-5.5996,-5.5861,-5.5613,-5.5578,-5.5964,-5.7706,-5.884,-5.9681,-6.0642,-6.1318,-6.1787,-6.2185,-6.25,-6.2805,-6.2805,-6.2805,-6.2805,-6.2805,-6.2805,-6.3007,-6.387,-6.409,-6.4494,-6.6127,-6.6494,-6.6714,-6.7522,-6.7687,-6.7687,-6.7687,-6.7687,-6.7687,-6.7687,-6.7687,-6.7687,-6.7687,-6.7687,-6.7687,-6.7687,-6.7228,-6.6898,-6.6898,-6.5757,-6.4949,-6.4916,-6.4196,-6.37,-6.3668,-6.3898,-6.4062,-6.4062,-6.4299,-6.4326,-6.4029,-6.4029,-6.388,-6.3602,-6.3602,-6.3602,-6.3602,-6.3602,-6.3602,-3.0717,-2.9972,0.0,-2.7674,-2.6836,0.0,-2.4802,0.0,0.0,0.0,0.0,0.0,0.0,0.0,0.0,0.0,0.0,0.0,0.0,0.0,0.0,0.0,0.0,0.0,0.0,0.0,-2.7421,-2.8343,-2.8672,0.0,0.0,0.0,-4.1516,-4.5098,-4.7196,-4.9144,-5.1012,-5.1257,-5.1853,-5.2806,-5.3017,-5.3524,-5.4287,-5.5119,-5.588,-5.6546,-5.7055,-5.7184,-5.7033,-5.6722,-5.6528,-5.6292,-5.5848,-5.5578,-5.5571,-5.7097,-5.8386,-5.9415,-6.0361,-6.0986,-6.149,-6.1951,-6.2449,-6.2805,-6.2805,-6.2805,-6.2805,-6.2805,-6.2805,-6.2934,-6.3484,-6.3631,-6.398,-6.5319,-6.565,-6.5944,-6.7026,-6.7265,-6.7357,-6.7632,-6.7687,-6.7687,-6.7687,-6.7687,-6.7687,-6.7687,-6.7687,-6.7687,-6.7687,-6.699,-6.6494,-6.6494,-6.5063,-6.3961,-6.3668,-6.3135,-6.2805,-6.2855,-6.3069,-6.3213,-6.326,-6.3465,-6.3602,-6.3602,-6.3602,-6.3602,-6.3602,-6.3602,-6.3602,-6.3602,-6.3602,-6.3602]}]]